<?xml version="1.0" encoding="UTF-8"?>
<gpx version="1.0" creator="GPSBabel - https://www.gpsbabel.org" xmlns="http://www.topografix.com/GPX/1/0">
  <time>2021-11-17T21:16:56.312Z</time>
  <bounds minlat="32.144488640" minlon="-109.453243860" maxlat="32.156661330" maxlon="-109.435285850"/>
  <trk>
    <name>Ft Bowie Hike.Pat.2018-11-21</name>
    <trkseg>
      <trkpt lat="32.156661330" lon="-109.452859600">
        <ele>1414.000</ele>
        <time>2018-11-21T18:13:26Z</time>
        <name>WPT</name>
      </trkpt>
      <trkpt lat="32.156645400" lon="-109.452815600">
        <ele>1412.000</ele>
        <time>2018-11-21T18:14:10Z</time>
        <name>WPT.1</name>
      </trkpt>
      <trkpt lat="32.156619350" lon="-109.452773000">
        <ele>1411.000</ele>
        <time>2018-11-21T18:14:15Z</time>
        <name>WPT.2</name>
      </trkpt>
      <trkpt lat="32.156599720" lon="-109.452730720">
        <ele>1410.000</ele>
        <time>2018-11-21T18:14:20Z</time>
        <name>WPT.3</name>
      </trkpt>
      <trkpt lat="32.156600320" lon="-109.452687830">
        <ele>1409.000</ele>
        <time>2018-11-21T18:14:25Z</time>
        <name>WPT.4</name>
      </trkpt>
      <trkpt lat="32.156567680" lon="-109.452668900">
        <ele>1408.000</ele>
        <time>2018-11-21T18:15:12Z</time>
        <name>WPT.5</name>
      </trkpt>
      <trkpt lat="32.156585260" lon="-109.452710400">
        <ele>1410.000</ele>
        <time>2018-11-21T18:17:58Z</time>
        <name>WPT.6</name>
      </trkpt>
      <trkpt lat="32.156603110" lon="-109.452758850">
        <ele>1410.000</ele>
        <time>2018-11-21T18:18:02Z</time>
        <name>WPT.7</name>
      </trkpt>
      <trkpt lat="32.156618510" lon="-109.452811700">
        <ele>1410.000</ele>
        <time>2018-11-21T18:18:05Z</time>
        <name>WPT.8</name>
      </trkpt>
      <trkpt lat="32.156625260" lon="-109.452855040">
        <ele>1410.000</ele>
        <time>2018-11-21T18:18:08Z</time>
        <name>WPT.9</name>
      </trkpt>
      <trkpt lat="32.156615420" lon="-109.452902730">
        <ele>1410.000</ele>
        <time>2018-11-21T18:18:12Z</time>
        <name>WPT.10</name>
      </trkpt>
      <trkpt lat="32.156578780" lon="-109.452895490">
        <ele>1408.000</ele>
        <time>2018-11-21T18:18:17Z</time>
        <name>WPT.11</name>
      </trkpt>
      <trkpt lat="32.156545370" lon="-109.452868430">
        <ele>1407.000</ele>
        <time>2018-11-21T18:18:22Z</time>
        <name>WPT.12</name>
      </trkpt>
      <trkpt lat="32.156507770" lon="-109.452865720">
        <ele>1408.000</ele>
        <time>2018-11-21T18:18:41Z</time>
        <name>WPT.13</name>
      </trkpt>
      <trkpt lat="32.156482780" lon="-109.452912740">
        <ele>1408.000</ele>
        <time>2018-11-21T18:18:50Z</time>
        <name>WPT.14</name>
      </trkpt>
      <trkpt lat="32.156450620" lon="-109.452947800">
        <ele>1406.000</ele>
        <time>2018-11-21T18:18:54Z</time>
        <name>WPT.15</name>
      </trkpt>
      <trkpt lat="32.156433820" lon="-109.452998200">
        <ele>1405.000</ele>
        <time>2018-11-21T18:19:01Z</time>
        <name>WPT.16</name>
      </trkpt>
      <trkpt lat="32.156415430" lon="-109.453036190">
        <ele>1405.000</ele>
        <time>2018-11-21T18:19:05Z</time>
        <name>WPT.17</name>
      </trkpt>
      <trkpt lat="32.156402130" lon="-109.453082010">
        <ele>1405.000</ele>
        <time>2018-11-21T18:19:11Z</time>
        <name>WPT.18</name>
      </trkpt>
      <trkpt lat="32.156382240" lon="-109.453124460">
        <ele>1403.000</ele>
        <time>2018-11-21T18:19:17Z</time>
        <name>WPT.19</name>
      </trkpt>
      <trkpt lat="32.156353540" lon="-109.453162400">
        <ele>1402.000</ele>
        <time>2018-11-21T18:19:22Z</time>
        <name>WPT.20</name>
      </trkpt>
      <trkpt lat="32.156323470" lon="-109.453193710">
        <ele>1401.000</ele>
        <time>2018-11-21T18:19:27Z</time>
        <name>WPT.21</name>
      </trkpt>
      <trkpt lat="32.156285210" lon="-109.453213060">
        <ele>1400.000</ele>
        <time>2018-11-21T18:19:32Z</time>
        <name>WPT.22</name>
      </trkpt>
      <trkpt lat="32.156248080" lon="-109.453190990">
        <ele>1399.000</ele>
        <time>2018-11-21T18:19:38Z</time>
        <name>WPT.23</name>
      </trkpt>
      <trkpt lat="32.156221660" lon="-109.453159620">
        <ele>1398.000</ele>
        <time>2018-11-21T18:19:42Z</time>
        <name>WPT.24</name>
      </trkpt>
      <trkpt lat="32.156198950" lon="-109.453125470">
        <ele>1399.000</ele>
        <time>2018-11-21T18:19:46Z</time>
        <name>WPT.25</name>
      </trkpt>
      <trkpt lat="32.156189630" lon="-109.453079450">
        <ele>1399.000</ele>
        <time>2018-11-21T18:19:50Z</time>
        <name>WPT.26</name>
      </trkpt>
      <trkpt lat="32.156189110" lon="-109.453026430">
        <ele>1400.000</ele>
        <time>2018-11-21T18:19:54Z</time>
        <name>WPT.27</name>
      </trkpt>
      <trkpt lat="32.156170690" lon="-109.452976320">
        <ele>1400.000</ele>
        <time>2018-11-21T18:19:59Z</time>
        <name>WPT.28</name>
      </trkpt>
      <trkpt lat="32.156153280" lon="-109.452926560">
        <ele>1400.000</ele>
        <time>2018-11-21T18:20:03Z</time>
        <name>WPT.29</name>
      </trkpt>
      <trkpt lat="32.156124620" lon="-109.452900120">
        <ele>1399.000</ele>
        <time>2018-11-21T18:20:06Z</time>
        <name>WPT.30</name>
      </trkpt>
      <trkpt lat="32.156094590" lon="-109.452872820">
        <ele>1399.000</ele>
        <time>2018-11-21T18:20:11Z</time>
        <name>WPT.31</name>
      </trkpt>
      <trkpt lat="32.156069670" lon="-109.452841600">
        <ele>1399.000</ele>
        <time>2018-11-21T18:20:15Z</time>
        <name>WPT.32</name>
      </trkpt>
      <trkpt lat="32.156036200" lon="-109.452820430">
        <ele>1397.000</ele>
        <time>2018-11-21T18:20:21Z</time>
        <name>WPT.33</name>
      </trkpt>
      <trkpt lat="32.156006020" lon="-109.452794390">
        <ele>1398.000</ele>
        <time>2018-11-21T18:20:25Z</time>
        <name>WPT.34</name>
      </trkpt>
      <trkpt lat="32.155995710" lon="-109.452751840">
        <ele>1400.000</ele>
        <time>2018-11-21T18:20:31Z</time>
        <name>WPT.35</name>
      </trkpt>
      <trkpt lat="32.155983770" lon="-109.452710960">
        <ele>1402.000</ele>
        <time>2018-11-21T18:20:37Z</time>
        <name>WPT.36</name>
      </trkpt>
      <trkpt lat="32.155956420" lon="-109.452672640">
        <ele>1400.000</ele>
        <time>2018-11-21T18:20:42Z</time>
        <name>WPT.37</name>
      </trkpt>
      <trkpt lat="32.155933310" lon="-109.452633380">
        <ele>1401.000</ele>
        <time>2018-11-21T18:20:46Z</time>
        <name>WPT.38</name>
      </trkpt>
      <trkpt lat="32.155906050" lon="-109.452594830">
        <ele>1401.000</ele>
        <time>2018-11-21T18:20:51Z</time>
        <name>WPT.39</name>
      </trkpt>
      <trkpt lat="32.155873950" lon="-109.452563270">
        <ele>1401.000</ele>
        <time>2018-11-21T18:20:56Z</time>
        <name>WPT.40</name>
      </trkpt>
      <trkpt lat="32.155844160" lon="-109.452538730">
        <ele>1401.000</ele>
        <time>2018-11-21T18:21:00Z</time>
        <name>WPT.41</name>
      </trkpt>
      <trkpt lat="32.155804150" lon="-109.452512670">
        <ele>1402.000</ele>
        <time>2018-11-21T18:21:05Z</time>
        <name>WPT.42</name>
      </trkpt>
      <trkpt lat="32.155757720" lon="-109.452511160">
        <ele>1403.000</ele>
        <time>2018-11-21T18:21:09Z</time>
        <name>WPT.43</name>
      </trkpt>
      <trkpt lat="32.155719780" lon="-109.452491760">
        <ele>1403.000</ele>
        <time>2018-11-21T18:21:13Z</time>
        <name>WPT.44</name>
      </trkpt>
      <trkpt lat="32.155683090" lon="-109.452482800">
        <ele>1403.000</ele>
        <time>2018-11-21T18:21:17Z</time>
        <name>WPT.45</name>
      </trkpt>
      <trkpt lat="32.155649190" lon="-109.452460120">
        <ele>1403.000</ele>
        <time>2018-11-21T18:21:21Z</time>
        <name>WPT.46</name>
      </trkpt>
      <trkpt lat="32.155611870" lon="-109.452432100">
        <ele>1403.000</ele>
        <time>2018-11-21T18:21:25Z</time>
        <name>WPT.47</name>
      </trkpt>
      <trkpt lat="32.155580910" lon="-109.452410080">
        <ele>1403.000</ele>
        <time>2018-11-21T18:21:30Z</time>
        <name>WPT.48</name>
      </trkpt>
      <trkpt lat="32.155549130" lon="-109.452389140">
        <ele>1403.000</ele>
        <time>2018-11-21T18:21:34Z</time>
        <name>WPT.49</name>
      </trkpt>
      <trkpt lat="32.155505660" lon="-109.452374460">
        <ele>1403.000</ele>
        <time>2018-11-21T18:21:38Z</time>
        <name>WPT.50</name>
      </trkpt>
      <trkpt lat="32.155459610" lon="-109.452388590">
        <ele>1403.000</ele>
        <time>2018-11-21T18:21:42Z</time>
        <name>WPT.51</name>
      </trkpt>
      <trkpt lat="32.155421030" lon="-109.452380150">
        <ele>1404.000</ele>
        <time>2018-11-21T18:21:46Z</time>
        <name>WPT.52</name>
      </trkpt>
      <trkpt lat="32.155386660" lon="-109.452360960">
        <ele>1404.000</ele>
        <time>2018-11-21T18:21:52Z</time>
        <name>WPT.53</name>
      </trkpt>
      <trkpt lat="32.155345750" lon="-109.452341090">
        <ele>1404.000</ele>
        <time>2018-11-21T18:22:56Z</time>
        <name>WPT.54</name>
      </trkpt>
      <trkpt lat="32.155307450" lon="-109.452326000">
        <ele>1402.000</ele>
        <time>2018-11-21T18:23:00Z</time>
        <name>WPT.55</name>
      </trkpt>
      <trkpt lat="32.155272010" lon="-109.452305240">
        <ele>1402.000</ele>
        <time>2018-11-21T18:23:05Z</time>
        <name>WPT.56</name>
      </trkpt>
      <trkpt lat="32.155228820" lon="-109.452299120">
        <ele>1402.000</ele>
        <time>2018-11-21T18:23:10Z</time>
        <name>WPT.57</name>
      </trkpt>
      <trkpt lat="32.155185020" lon="-109.452284330">
        <ele>1402.000</ele>
        <time>2018-11-21T18:23:16Z</time>
        <name>WPT.58</name>
      </trkpt>
      <trkpt lat="32.155148310" lon="-109.452294730">
        <ele>1401.000</ele>
        <time>2018-11-21T18:23:20Z</time>
        <name>WPT.59</name>
      </trkpt>
      <trkpt lat="32.155105450" lon="-109.452277730">
        <ele>1402.000</ele>
        <time>2018-11-21T18:23:26Z</time>
        <name>WPT.60</name>
      </trkpt>
      <trkpt lat="32.155076280" lon="-109.452243000">
        <ele>1403.000</ele>
        <time>2018-11-21T18:23:31Z</time>
        <name>WPT.61</name>
      </trkpt>
      <trkpt lat="32.155042240" lon="-109.452212220">
        <ele>1403.000</ele>
        <time>2018-11-21T18:23:37Z</time>
        <name>WPT.62</name>
      </trkpt>
      <trkpt lat="32.155002060" lon="-109.452187560">
        <ele>1403.000</ele>
        <time>2018-11-21T18:23:41Z</time>
        <name>WPT.63</name>
      </trkpt>
      <trkpt lat="32.154966720" lon="-109.452161710">
        <ele>1404.000</ele>
        <time>2018-11-21T18:23:46Z</time>
        <name>WPT.64</name>
      </trkpt>
      <trkpt lat="32.154929140" lon="-109.452157410">
        <ele>1404.000</ele>
        <time>2018-11-21T18:23:49Z</time>
        <name>WPT.65</name>
      </trkpt>
      <trkpt lat="32.154889840" lon="-109.452161500">
        <ele>1404.000</ele>
        <time>2018-11-21T18:23:53Z</time>
        <name>WPT.66</name>
      </trkpt>
      <trkpt lat="32.154840100" lon="-109.452158010">
        <ele>1403.000</ele>
        <time>2018-11-21T18:23:57Z</time>
        <name>WPT.67</name>
      </trkpt>
      <trkpt lat="32.154814770" lon="-109.452120140">
        <ele>1405.000</ele>
        <time>2018-11-21T18:24:02Z</time>
        <name>WPT.68</name>
      </trkpt>
      <trkpt lat="32.154799410" lon="-109.452078250">
        <ele>1404.000</ele>
        <time>2018-11-21T18:24:08Z</time>
        <name>WPT.69</name>
      </trkpt>
      <trkpt lat="32.154770600" lon="-109.452046310">
        <ele>1406.000</ele>
        <time>2018-11-21T18:24:12Z</time>
        <name>WPT.70</name>
      </trkpt>
      <trkpt lat="32.154740010" lon="-109.452006560">
        <ele>1406.000</ele>
        <time>2018-11-21T18:24:17Z</time>
        <name>WPT.71</name>
      </trkpt>
      <trkpt lat="32.154708290" lon="-109.451980570">
        <ele>1406.000</ele>
        <time>2018-11-21T18:24:21Z</time>
        <name>WPT.72</name>
      </trkpt>
      <trkpt lat="32.154666120" lon="-109.451968590">
        <ele>1405.000</ele>
        <time>2018-11-21T18:24:25Z</time>
        <name>WPT.73</name>
      </trkpt>
      <trkpt lat="32.154618140" lon="-109.451967700">
        <ele>1407.000</ele>
        <time>2018-11-21T18:24:31Z</time>
        <name>WPT.74</name>
      </trkpt>
      <trkpt lat="32.154582300" lon="-109.451956580">
        <ele>1407.000</ele>
        <time>2018-11-21T18:24:35Z</time>
        <name>WPT.75</name>
      </trkpt>
      <trkpt lat="32.154541890" lon="-109.451954640">
        <ele>1408.000</ele>
        <time>2018-11-21T18:24:39Z</time>
        <name>WPT.76</name>
      </trkpt>
      <trkpt lat="32.154502090" lon="-109.451963270">
        <ele>1408.000</ele>
        <time>2018-11-21T18:24:44Z</time>
        <name>WPT.77</name>
      </trkpt>
      <trkpt lat="32.154457570" lon="-109.451955680">
        <ele>1409.000</ele>
        <time>2018-11-21T18:24:49Z</time>
        <name>WPT.78</name>
      </trkpt>
      <trkpt lat="32.154416390" lon="-109.451962080">
        <ele>1410.000</ele>
        <time>2018-11-21T18:25:18Z</time>
        <name>WPT.79</name>
      </trkpt>
      <trkpt lat="32.154381370" lon="-109.451946280">
        <ele>1409.000</ele>
        <time>2018-11-21T18:25:22Z</time>
        <name>WPT.80</name>
      </trkpt>
      <trkpt lat="32.154345730" lon="-109.451913440">
        <ele>1409.000</ele>
        <time>2018-11-21T18:25:27Z</time>
        <name>WPT.81</name>
      </trkpt>
      <trkpt lat="32.154305610" lon="-109.451897800">
        <ele>1408.000</ele>
        <time>2018-11-21T18:25:31Z</time>
        <name>WPT.82</name>
      </trkpt>
      <trkpt lat="32.154264590" lon="-109.451899340">
        <ele>1408.000</ele>
        <time>2018-11-21T18:25:35Z</time>
        <name>WPT.83</name>
      </trkpt>
      <trkpt lat="32.154226420" lon="-109.451886710">
        <ele>1407.000</ele>
        <time>2018-11-21T18:25:40Z</time>
        <name>WPT.84</name>
      </trkpt>
      <trkpt lat="32.154193460" lon="-109.451865780">
        <ele>1406.000</ele>
        <time>2018-11-21T18:25:44Z</time>
        <name>WPT.85</name>
      </trkpt>
      <trkpt lat="32.154159130" lon="-109.451845610">
        <ele>1406.000</ele>
        <time>2018-11-21T18:25:48Z</time>
        <name>WPT.86</name>
      </trkpt>
      <trkpt lat="32.154117600" lon="-109.451825890">
        <ele>1407.000</ele>
        <time>2018-11-21T18:25:53Z</time>
        <name>WPT.87</name>
      </trkpt>
      <trkpt lat="32.154087530" lon="-109.451798520">
        <ele>1408.000</ele>
        <time>2018-11-21T18:25:57Z</time>
        <name>WPT.88</name>
      </trkpt>
      <trkpt lat="32.154056570" lon="-109.451771940">
        <ele>1408.000</ele>
        <time>2018-11-21T18:26:00Z</time>
        <name>WPT.89</name>
      </trkpt>
      <trkpt lat="32.154029800" lon="-109.451734120">
        <ele>1409.000</ele>
        <time>2018-11-21T18:26:04Z</time>
        <name>WPT.90</name>
      </trkpt>
      <trkpt lat="32.154004730" lon="-109.451702650">
        <ele>1410.000</ele>
        <time>2018-11-21T18:26:08Z</time>
        <name>WPT.91</name>
      </trkpt>
      <trkpt lat="32.153960420" lon="-109.451694630">
        <ele>1411.000</ele>
        <time>2018-11-21T18:26:12Z</time>
        <name>WPT.92</name>
      </trkpt>
      <trkpt lat="32.153913620" lon="-109.451698300">
        <ele>1411.000</ele>
        <time>2018-11-21T18:26:16Z</time>
        <name>WPT.93</name>
      </trkpt>
      <trkpt lat="32.153876150" lon="-109.451696610">
        <ele>1410.000</ele>
        <time>2018-11-21T18:26:19Z</time>
        <name>WPT.94</name>
      </trkpt>
      <trkpt lat="32.153840070" lon="-109.451694150">
        <ele>1411.000</ele>
        <time>2018-11-21T18:26:27Z</time>
        <name>WPT.95</name>
      </trkpt>
      <trkpt lat="32.153802970" lon="-109.451680790">
        <ele>1412.000</ele>
        <time>2018-11-21T18:26:31Z</time>
        <name>WPT.96</name>
      </trkpt>
      <trkpt lat="32.153767450" lon="-109.451659040">
        <ele>1411.000</ele>
        <time>2018-11-21T18:26:35Z</time>
        <name>WPT.97</name>
      </trkpt>
      <trkpt lat="32.153735680" lon="-109.451622510">
        <ele>1413.000</ele>
        <time>2018-11-21T18:26:40Z</time>
        <name>WPT.98</name>
      </trkpt>
      <trkpt lat="32.153702290" lon="-109.451590140">
        <ele>1411.000</ele>
        <time>2018-11-21T18:26:44Z</time>
        <name>WPT.99</name>
      </trkpt>
      <trkpt lat="32.153663580" lon="-109.451560570">
        <ele>1411.000</ele>
        <time>2018-11-21T18:26:48Z</time>
        <name>WPT.100</name>
      </trkpt>
      <trkpt lat="32.153624900" lon="-109.451539550">
        <ele>1411.000</ele>
        <time>2018-11-21T18:26:52Z</time>
        <name>WPT.101</name>
      </trkpt>
      <trkpt lat="32.153586330" lon="-109.451516540">
        <ele>1411.000</ele>
        <time>2018-11-21T18:26:56Z</time>
        <name>WPT.102</name>
      </trkpt>
      <trkpt lat="32.153550890" lon="-109.451498740">
        <ele>1411.000</ele>
        <time>2018-11-21T18:27:00Z</time>
        <name>WPT.103</name>
      </trkpt>
      <trkpt lat="32.153511160" lon="-109.451486380">
        <ele>1411.000</ele>
        <time>2018-11-21T18:27:04Z</time>
        <name>WPT.104</name>
      </trkpt>
      <trkpt lat="32.153466070" lon="-109.451466740">
        <ele>1411.000</ele>
        <time>2018-11-21T18:27:08Z</time>
        <name>WPT.105</name>
      </trkpt>
      <trkpt lat="32.153426170" lon="-109.451442090">
        <ele>1412.000</ele>
        <time>2018-11-21T18:27:12Z</time>
        <name>WPT.106</name>
      </trkpt>
      <trkpt lat="32.153390290" lon="-109.451419790">
        <ele>1412.000</ele>
        <time>2018-11-21T18:27:16Z</time>
        <name>WPT.107</name>
      </trkpt>
      <trkpt lat="32.153351540" lon="-109.451405210">
        <ele>1411.000</ele>
        <time>2018-11-21T18:27:20Z</time>
        <name>WPT.108</name>
      </trkpt>
      <trkpt lat="32.153309930" lon="-109.451379250">
        <ele>1413.000</ele>
        <time>2018-11-21T18:27:24Z</time>
        <name>WPT.109</name>
      </trkpt>
      <trkpt lat="32.153272990" lon="-109.451362150">
        <ele>1413.000</ele>
        <time>2018-11-21T18:27:27Z</time>
        <name>WPT.110</name>
      </trkpt>
      <trkpt lat="32.153229470" lon="-109.451343840">
        <ele>1412.000</ele>
        <time>2018-11-21T18:27:31Z</time>
        <name>WPT.111</name>
      </trkpt>
      <trkpt lat="32.153193470" lon="-109.451334450">
        <ele>1411.000</ele>
        <time>2018-11-21T18:27:34Z</time>
        <name>WPT.112</name>
      </trkpt>
      <trkpt lat="32.153155840" lon="-109.451334470">
        <ele>1411.000</ele>
        <time>2018-11-21T18:27:37Z</time>
        <name>WPT.113</name>
      </trkpt>
      <trkpt lat="32.153111560" lon="-109.451343330">
        <ele>1411.000</ele>
        <time>2018-11-21T18:27:41Z</time>
        <name>WPT.114</name>
      </trkpt>
      <trkpt lat="32.153064590" lon="-109.451335320">
        <ele>1411.000</ele>
        <time>2018-11-21T18:27:45Z</time>
        <name>WPT.115</name>
      </trkpt>
      <trkpt lat="32.153021640" lon="-109.451329910">
        <ele>1410.000</ele>
        <time>2018-11-21T18:27:49Z</time>
        <name>WPT.116</name>
      </trkpt>
      <trkpt lat="32.152983460" lon="-109.451304140">
        <ele>1411.000</ele>
        <time>2018-11-21T18:27:53Z</time>
        <name>WPT.117</name>
      </trkpt>
      <trkpt lat="32.152955680" lon="-109.451268140">
        <ele>1412.000</ele>
        <time>2018-11-21T18:27:57Z</time>
        <name>WPT.118</name>
      </trkpt>
      <trkpt lat="32.152931940" lon="-109.451236000">
        <ele>1413.000</ele>
        <time>2018-11-21T18:28:00Z</time>
        <name>WPT.119</name>
      </trkpt>
      <trkpt lat="32.152910310" lon="-109.451193770">
        <ele>1415.000</ele>
        <time>2018-11-21T18:28:04Z</time>
        <name>WPT.120</name>
      </trkpt>
      <trkpt lat="32.152883910" lon="-109.451160480">
        <ele>1415.000</ele>
        <time>2018-11-21T18:28:07Z</time>
        <name>WPT.121</name>
      </trkpt>
      <trkpt lat="32.152857260" lon="-109.451130220">
        <ele>1415.000</ele>
        <time>2018-11-21T18:28:10Z</time>
        <name>WPT.122</name>
      </trkpt>
      <trkpt lat="32.152833640" lon="-109.451088300">
        <ele>1416.000</ele>
        <time>2018-11-21T18:28:14Z</time>
        <name>WPT.123</name>
      </trkpt>
      <trkpt lat="32.152801690" lon="-109.451064670">
        <ele>1417.000</ele>
        <time>2018-11-21T18:28:17Z</time>
        <name>WPT.124</name>
      </trkpt>
      <trkpt lat="32.152771800" lon="-109.451036240">
        <ele>1417.000</ele>
        <time>2018-11-21T18:28:21Z</time>
        <name>WPT.125</name>
      </trkpt>
      <trkpt lat="32.152737110" lon="-109.451008080">
        <ele>1418.000</ele>
        <time>2018-11-21T18:28:25Z</time>
        <name>WPT.126</name>
      </trkpt>
      <trkpt lat="32.152705500" lon="-109.450986140">
        <ele>1417.000</ele>
        <time>2018-11-21T18:28:32Z</time>
        <name>WPT.127</name>
      </trkpt>
      <trkpt lat="32.152666230" lon="-109.450954750">
        <ele>1418.000</ele>
        <time>2018-11-21T18:28:44Z</time>
        <name>WPT.128</name>
      </trkpt>
      <trkpt lat="32.152637050" lon="-109.450928800">
        <ele>1420.000</ele>
        <time>2018-11-21T18:28:56Z</time>
        <name>WPT.129</name>
      </trkpt>
      <trkpt lat="32.152608080" lon="-109.450897670">
        <ele>1420.000</ele>
        <time>2018-11-21T18:29:01Z</time>
        <name>WPT.130</name>
      </trkpt>
      <trkpt lat="32.152569440" lon="-109.450878800">
        <ele>1420.000</ele>
        <time>2018-11-21T18:29:06Z</time>
        <name>WPT.131</name>
      </trkpt>
      <trkpt lat="32.152535420" lon="-109.450855080">
        <ele>1420.000</ele>
        <time>2018-11-21T18:29:09Z</time>
        <name>WPT.132</name>
      </trkpt>
      <trkpt lat="32.152499640" lon="-109.450840580">
        <ele>1419.000</ele>
        <time>2018-11-21T18:29:13Z</time>
        <name>WPT.133</name>
      </trkpt>
      <trkpt lat="32.152456210" lon="-109.450810510">
        <ele>1419.000</ele>
        <time>2018-11-21T18:29:17Z</time>
        <name>WPT.134</name>
      </trkpt>
      <trkpt lat="32.152416530" lon="-109.450782870">
        <ele>1419.000</ele>
        <time>2018-11-21T18:29:21Z</time>
        <name>WPT.135</name>
      </trkpt>
      <trkpt lat="32.152387070" lon="-109.450755000">
        <ele>1418.000</ele>
        <time>2018-11-21T18:29:25Z</time>
        <name>WPT.136</name>
      </trkpt>
      <trkpt lat="32.152351400" lon="-109.450742020">
        <ele>1418.000</ele>
        <time>2018-11-21T18:29:29Z</time>
        <name>WPT.137</name>
      </trkpt>
      <trkpt lat="32.152313820" lon="-109.450725000">
        <ele>1417.000</ele>
        <time>2018-11-21T18:29:34Z</time>
        <name>WPT.138</name>
      </trkpt>
      <trkpt lat="32.152276120" lon="-109.450710650">
        <ele>1417.000</ele>
        <time>2018-11-21T18:29:44Z</time>
        <name>WPT.139</name>
      </trkpt>
      <trkpt lat="32.152242590" lon="-109.450690620">
        <ele>1417.000</ele>
        <time>2018-11-21T18:29:48Z</time>
        <name>WPT.140</name>
      </trkpt>
      <trkpt lat="32.152209680" lon="-109.450668560">
        <ele>1417.000</ele>
        <time>2018-11-21T18:29:52Z</time>
        <name>WPT.141</name>
      </trkpt>
      <trkpt lat="32.152173940" lon="-109.450649740">
        <ele>1417.000</ele>
        <time>2018-11-21T18:29:56Z</time>
        <name>WPT.142</name>
      </trkpt>
      <trkpt lat="32.152137200" lon="-109.450631910">
        <ele>1419.000</ele>
        <time>2018-11-21T18:30:01Z</time>
        <name>WPT.143</name>
      </trkpt>
      <trkpt lat="32.152102620" lon="-109.450619060">
        <ele>1419.000</ele>
        <time>2018-11-21T18:30:04Z</time>
        <name>WPT.144</name>
      </trkpt>
      <trkpt lat="32.152065620" lon="-109.450595200">
        <ele>1420.000</ele>
        <time>2018-11-21T18:30:08Z</time>
        <name>WPT.145</name>
      </trkpt>
      <trkpt lat="32.152033690" lon="-109.450568200">
        <ele>1420.000</ele>
        <time>2018-11-21T18:30:11Z</time>
        <name>WPT.146</name>
      </trkpt>
      <trkpt lat="32.151999790" lon="-109.450536300">
        <ele>1420.000</ele>
        <time>2018-11-21T18:30:15Z</time>
        <name>WPT.147</name>
      </trkpt>
      <trkpt lat="32.151965410" lon="-109.450509840">
        <ele>1421.000</ele>
        <time>2018-11-21T18:30:19Z</time>
        <name>WPT.148</name>
      </trkpt>
      <trkpt lat="32.151924030" lon="-109.450505590">
        <ele>1420.000</ele>
        <time>2018-11-21T18:30:23Z</time>
        <name>WPT.149</name>
      </trkpt>
      <trkpt lat="32.151890220" lon="-109.450490480">
        <ele>1420.000</ele>
        <time>2018-11-21T18:30:26Z</time>
        <name>WPT.150</name>
      </trkpt>
      <trkpt lat="32.151853180" lon="-109.450468870">
        <ele>1420.000</ele>
        <time>2018-11-21T18:30:30Z</time>
        <name>WPT.151</name>
      </trkpt>
      <trkpt lat="32.151823180" lon="-109.450439780">
        <ele>1421.000</ele>
        <time>2018-11-21T18:30:34Z</time>
        <name>WPT.152</name>
      </trkpt>
      <trkpt lat="32.151785910" lon="-109.450422140">
        <ele>1421.000</ele>
        <time>2018-11-21T18:30:38Z</time>
        <name>WPT.153</name>
      </trkpt>
      <trkpt lat="32.151750170" lon="-109.450390860">
        <ele>1421.000</ele>
        <time>2018-11-21T18:30:42Z</time>
        <name>WPT.154</name>
      </trkpt>
      <trkpt lat="32.151717120" lon="-109.450358930">
        <ele>1422.000</ele>
        <time>2018-11-21T18:30:46Z</time>
        <name>WPT.155</name>
      </trkpt>
      <trkpt lat="32.151689320" lon="-109.450330890">
        <ele>1422.000</ele>
        <time>2018-11-21T18:30:49Z</time>
        <name>WPT.156</name>
      </trkpt>
      <trkpt lat="32.151649620" lon="-109.450300510">
        <ele>1422.000</ele>
        <time>2018-11-21T18:30:53Z</time>
        <name>WPT.157</name>
      </trkpt>
      <trkpt lat="32.151621270" lon="-109.450263090">
        <ele>1423.000</ele>
        <time>2018-11-21T18:30:57Z</time>
        <name>WPT.158</name>
      </trkpt>
      <trkpt lat="32.151594440" lon="-109.450232330">
        <ele>1424.000</ele>
        <time>2018-11-21T18:31:00Z</time>
        <name>WPT.159</name>
      </trkpt>
      <trkpt lat="32.151562210" lon="-109.450208170">
        <ele>1423.000</ele>
        <time>2018-11-21T18:31:03Z</time>
        <name>WPT.160</name>
      </trkpt>
      <trkpt lat="32.151524740" lon="-109.450183960">
        <ele>1424.000</ele>
        <time>2018-11-21T18:31:07Z</time>
        <name>WPT.161</name>
      </trkpt>
      <trkpt lat="32.151489850" lon="-109.450157330">
        <ele>1423.000</ele>
        <time>2018-11-21T18:31:12Z</time>
        <name>WPT.162</name>
      </trkpt>
      <trkpt lat="32.151467670" lon="-109.450110050">
        <ele>1425.000</ele>
        <time>2018-11-21T18:34:25Z</time>
        <name>WPT.163</name>
      </trkpt>
      <trkpt lat="32.151447660" lon="-109.450068180">
        <ele>1426.000</ele>
        <time>2018-11-21T18:34:28Z</time>
        <name>WPT.164</name>
      </trkpt>
      <trkpt lat="32.151422770" lon="-109.450032480">
        <ele>1427.000</ele>
        <time>2018-11-21T18:34:32Z</time>
        <name>WPT.165</name>
      </trkpt>
      <trkpt lat="32.151395360" lon="-109.449996660">
        <ele>1427.000</ele>
        <time>2018-11-21T18:34:36Z</time>
        <name>WPT.166</name>
      </trkpt>
      <trkpt lat="32.151378150" lon="-109.449953750">
        <ele>1427.000</ele>
        <time>2018-11-21T18:34:40Z</time>
        <name>WPT.167</name>
      </trkpt>
      <trkpt lat="32.151361310" lon="-109.449916140">
        <ele>1426.000</ele>
        <time>2018-11-21T18:34:43Z</time>
        <name>WPT.168</name>
      </trkpt>
      <trkpt lat="32.151341610" lon="-109.449867700">
        <ele>1427.000</ele>
        <time>2018-11-21T18:34:47Z</time>
        <name>WPT.169</name>
      </trkpt>
      <trkpt lat="32.151315460" lon="-109.449838170">
        <ele>1428.000</ele>
        <time>2018-11-21T18:34:50Z</time>
        <name>WPT.170</name>
      </trkpt>
      <trkpt lat="32.151281010" lon="-109.449821160">
        <ele>1427.000</ele>
        <time>2018-11-21T18:35:02Z</time>
        <name>WPT.171</name>
      </trkpt>
      <trkpt lat="32.151238740" lon="-109.449803390">
        <ele>1429.000</ele>
        <time>2018-11-21T18:35:09Z</time>
        <name>WPT.172</name>
      </trkpt>
      <trkpt lat="32.151196910" lon="-109.449804410">
        <ele>1430.000</ele>
        <time>2018-11-21T18:35:13Z</time>
        <name>WPT.173</name>
      </trkpt>
      <trkpt lat="32.151162270" lon="-109.449817160">
        <ele>1430.000</ele>
        <time>2018-11-21T18:35:16Z</time>
        <name>WPT.174</name>
      </trkpt>
      <trkpt lat="32.151120000" lon="-109.449816650">
        <ele>1430.000</ele>
        <time>2018-11-21T18:35:21Z</time>
        <name>WPT.175</name>
      </trkpt>
      <trkpt lat="32.151084120" lon="-109.449840230">
        <ele>1428.000</ele>
        <time>2018-11-21T18:35:53Z</time>
        <name>WPT.176</name>
      </trkpt>
      <trkpt lat="32.151045000" lon="-109.449849190">
        <ele>1429.000</ele>
        <time>2018-11-21T18:35:59Z</time>
        <name>WPT.177</name>
      </trkpt>
      <trkpt lat="32.151006690" lon="-109.449826940">
        <ele>1429.000</ele>
        <time>2018-11-21T18:36:50Z</time>
        <name>WPT.178</name>
      </trkpt>
      <trkpt lat="32.150968610" lon="-109.449814430">
        <ele>1428.000</ele>
        <time>2018-11-21T18:36:54Z</time>
        <name>WPT.179</name>
      </trkpt>
      <trkpt lat="32.150924000" lon="-109.449802940">
        <ele>1428.000</ele>
        <time>2018-11-21T18:36:58Z</time>
        <name>WPT.180</name>
      </trkpt>
      <trkpt lat="32.150882300" lon="-109.449791550">
        <ele>1428.000</ele>
        <time>2018-11-21T18:37:02Z</time>
        <name>WPT.181</name>
      </trkpt>
      <trkpt lat="32.150839370" lon="-109.449791450">
        <ele>1428.000</ele>
        <time>2018-11-21T18:37:05Z</time>
        <name>WPT.182</name>
      </trkpt>
      <trkpt lat="32.150800260" lon="-109.449791640">
        <ele>1428.000</ele>
        <time>2018-11-21T18:37:09Z</time>
        <name>WPT.183</name>
      </trkpt>
      <trkpt lat="32.150755240" lon="-109.449781060">
        <ele>1429.000</ele>
        <time>2018-11-21T18:37:13Z</time>
        <name>WPT.184</name>
      </trkpt>
      <trkpt lat="32.150710010" lon="-109.449768130">
        <ele>1428.000</ele>
        <time>2018-11-21T18:37:16Z</time>
        <name>WPT.185</name>
      </trkpt>
      <trkpt lat="32.150670850" lon="-109.449758900">
        <ele>1429.000</ele>
        <time>2018-11-21T18:37:19Z</time>
        <name>WPT.186</name>
      </trkpt>
      <trkpt lat="32.150633440" lon="-109.449746300">
        <ele>1429.000</ele>
        <time>2018-11-21T18:37:22Z</time>
        <name>WPT.187</name>
      </trkpt>
      <trkpt lat="32.150595860" lon="-109.449740620">
        <ele>1429.000</ele>
        <time>2018-11-21T18:37:25Z</time>
        <name>WPT.188</name>
      </trkpt>
      <trkpt lat="32.150554540" lon="-109.449748570">
        <ele>1429.000</ele>
        <time>2018-11-21T18:37:28Z</time>
        <name>WPT.189</name>
      </trkpt>
      <trkpt lat="32.150517650" lon="-109.449756640">
        <ele>1429.000</ele>
        <time>2018-11-21T18:37:31Z</time>
        <name>WPT.190</name>
      </trkpt>
      <trkpt lat="32.150480590" lon="-109.449771480">
        <ele>1429.000</ele>
        <time>2018-11-21T18:37:34Z</time>
        <name>WPT.191</name>
      </trkpt>
      <trkpt lat="32.150440480" lon="-109.449768070">
        <ele>1430.000</ele>
        <time>2018-11-21T18:37:37Z</time>
        <name>WPT.192</name>
      </trkpt>
      <trkpt lat="32.150403850" lon="-109.449767880">
        <ele>1430.000</ele>
        <time>2018-11-21T18:37:40Z</time>
        <name>WPT.193</name>
      </trkpt>
      <trkpt lat="32.150362340" lon="-109.449766480">
        <ele>1431.000</ele>
        <time>2018-11-21T18:37:43Z</time>
        <name>WPT.194</name>
      </trkpt>
      <trkpt lat="32.150323460" lon="-109.449764980">
        <ele>1431.000</ele>
        <time>2018-11-21T18:37:46Z</time>
        <name>WPT.195</name>
      </trkpt>
      <trkpt lat="32.150278770" lon="-109.449776190">
        <ele>1430.000</ele>
        <time>2018-11-21T18:37:50Z</time>
        <name>WPT.196</name>
      </trkpt>
      <trkpt lat="32.150229720" lon="-109.449776070">
        <ele>1430.000</ele>
        <time>2018-11-21T18:37:54Z</time>
        <name>WPT.197</name>
      </trkpt>
      <trkpt lat="32.150186360" lon="-109.449770450">
        <ele>1430.000</ele>
        <time>2018-11-21T18:37:58Z</time>
        <name>WPT.198</name>
      </trkpt>
      <trkpt lat="32.150150800" lon="-109.449760020">
        <ele>1430.000</ele>
        <time>2018-11-21T18:38:01Z</time>
        <name>WPT.199</name>
      </trkpt>
      <trkpt lat="32.150102950" lon="-109.449750300">
        <ele>1431.000</ele>
        <time>2018-11-21T18:38:05Z</time>
        <name>WPT.200</name>
      </trkpt>
      <trkpt lat="32.150054800" lon="-109.449739400">
        <ele>1432.000</ele>
        <time>2018-11-21T18:38:09Z</time>
        <name>WPT.201</name>
      </trkpt>
      <trkpt lat="32.150016500" lon="-109.449731920">
        <ele>1432.000</ele>
        <time>2018-11-21T18:38:12Z</time>
        <name>WPT.202</name>
      </trkpt>
      <trkpt lat="32.149972900" lon="-109.449725650">
        <ele>1432.000</ele>
        <time>2018-11-21T18:38:16Z</time>
        <name>WPT.203</name>
      </trkpt>
      <trkpt lat="32.149928010" lon="-109.449717520">
        <ele>1433.000</ele>
        <time>2018-11-21T18:38:20Z</time>
        <name>WPT.204</name>
      </trkpt>
      <trkpt lat="32.149895680" lon="-109.449746090">
        <ele>1432.000</ele>
        <time>2018-11-21T18:40:04Z</time>
        <name>WPT.205</name>
      </trkpt>
      <trkpt lat="32.149858220" lon="-109.449756650">
        <ele>1432.000</ele>
        <time>2018-11-21T18:40:07Z</time>
        <name>WPT.206</name>
      </trkpt>
      <trkpt lat="32.149815790" lon="-109.449773390">
        <ele>1432.000</ele>
        <time>2018-11-21T18:40:11Z</time>
        <name>WPT.207</name>
      </trkpt>
      <trkpt lat="32.149775780" lon="-109.449789010">
        <ele>1433.000</ele>
        <time>2018-11-21T18:40:15Z</time>
        <name>WPT.208</name>
      </trkpt>
      <trkpt lat="32.149739120" lon="-109.449785360">
        <ele>1433.000</ele>
        <time>2018-11-21T18:40:18Z</time>
        <name>WPT.209</name>
      </trkpt>
      <trkpt lat="32.149697120" lon="-109.449769700">
        <ele>1432.000</ele>
        <time>2018-11-21T18:40:22Z</time>
        <name>WPT.210</name>
      </trkpt>
      <trkpt lat="32.149657290" lon="-109.449769070">
        <ele>1432.000</ele>
        <time>2018-11-21T18:40:26Z</time>
        <name>WPT.211</name>
      </trkpt>
      <trkpt lat="32.149613050" lon="-109.449747910">
        <ele>1433.000</ele>
        <time>2018-11-21T18:40:30Z</time>
        <name>WPT.212</name>
      </trkpt>
      <trkpt lat="32.149570930" lon="-109.449725230">
        <ele>1434.000</ele>
        <time>2018-11-21T18:40:34Z</time>
        <name>WPT.213</name>
      </trkpt>
      <trkpt lat="32.149526980" lon="-109.449714620">
        <ele>1434.000</ele>
        <time>2018-11-21T18:40:38Z</time>
        <name>WPT.214</name>
      </trkpt>
      <trkpt lat="32.149485560" lon="-109.449699890">
        <ele>1434.000</ele>
        <time>2018-11-21T18:40:42Z</time>
        <name>WPT.215</name>
      </trkpt>
      <trkpt lat="32.149447240" lon="-109.449689220">
        <ele>1434.000</ele>
        <time>2018-11-21T18:40:45Z</time>
        <name>WPT.216</name>
      </trkpt>
      <trkpt lat="32.149405820" lon="-109.449665220">
        <ele>1434.000</ele>
        <time>2018-11-21T18:40:49Z</time>
        <name>WPT.217</name>
      </trkpt>
      <trkpt lat="32.149383160" lon="-109.449626770">
        <ele>1436.000</ele>
        <time>2018-11-21T18:40:54Z</time>
        <name>WPT.218</name>
      </trkpt>
      <trkpt lat="32.149347960" lon="-109.449608350">
        <ele>1436.000</ele>
        <time>2018-11-21T18:40:58Z</time>
        <name>WPT.219</name>
      </trkpt>
      <trkpt lat="32.149311750" lon="-109.449591080">
        <ele>1435.000</ele>
        <time>2018-11-21T18:41:07Z</time>
        <name>WPT.220</name>
      </trkpt>
      <trkpt lat="32.149281670" lon="-109.449563150">
        <ele>1435.000</ele>
        <time>2018-11-21T18:41:09Z</time>
        <name>WPT.221</name>
      </trkpt>
      <trkpt lat="32.149257420" lon="-109.449526400">
        <ele>1436.000</ele>
        <time>2018-11-21T18:41:13Z</time>
        <name>WPT.222</name>
      </trkpt>
      <trkpt lat="32.149229910" lon="-109.449497740">
        <ele>1436.000</ele>
        <time>2018-11-21T18:41:16Z</time>
        <name>WPT.223</name>
      </trkpt>
      <trkpt lat="32.149195280" lon="-109.449475510">
        <ele>1437.000</ele>
        <time>2018-11-21T18:41:20Z</time>
        <name>WPT.224</name>
      </trkpt>
      <trkpt lat="32.149157940" lon="-109.449454690">
        <ele>1436.000</ele>
        <time>2018-11-21T18:41:24Z</time>
        <name>WPT.225</name>
      </trkpt>
      <trkpt lat="32.149117240" lon="-109.449451240">
        <ele>1436.000</ele>
        <time>2018-11-21T18:41:28Z</time>
        <name>WPT.226</name>
      </trkpt>
      <trkpt lat="32.149073550" lon="-109.449452810">
        <ele>1437.000</ele>
        <time>2018-11-21T18:41:32Z</time>
        <name>WPT.227</name>
      </trkpt>
      <trkpt lat="32.149027300" lon="-109.449471310">
        <ele>1436.000</ele>
        <time>2018-11-21T18:41:36Z</time>
        <name>WPT.228</name>
      </trkpt>
      <trkpt lat="32.148988280" lon="-109.449486320">
        <ele>1435.000</ele>
        <time>2018-11-21T18:41:40Z</time>
        <name>WPT.229</name>
      </trkpt>
      <trkpt lat="32.148947600" lon="-109.449512230">
        <ele>1436.000</ele>
        <time>2018-11-21T18:41:44Z</time>
        <name>WPT.230</name>
      </trkpt>
      <trkpt lat="32.148910280" lon="-109.449533660">
        <ele>1436.000</ele>
        <time>2018-11-21T18:41:48Z</time>
        <name>WPT.231</name>
      </trkpt>
      <trkpt lat="32.148892670" lon="-109.449573690">
        <ele>1437.000</ele>
        <time>2018-11-21T18:41:54Z</time>
        <name>WPT.232</name>
      </trkpt>
      <trkpt lat="32.148879080" lon="-109.449627010">
        <ele>1440.000</ele>
        <time>2018-11-21T18:42:29Z</time>
        <name>WPT.233</name>
      </trkpt>
      <trkpt lat="32.148895030" lon="-109.449669030">
        <ele>1441.000</ele>
        <time>2018-11-21T18:42:33Z</time>
        <name>WPT.234</name>
      </trkpt>
      <trkpt lat="32.148898450" lon="-109.449718220">
        <ele>1441.000</ele>
        <time>2018-11-21T18:42:37Z</time>
        <name>WPT.235</name>
      </trkpt>
      <trkpt lat="32.148934230" lon="-109.449731730">
        <ele>1439.000</ele>
        <time>2018-11-21T18:42:52Z</time>
        <name>WPT.236</name>
      </trkpt>
      <trkpt lat="32.148911220" lon="-109.449692750">
        <ele>1440.000</ele>
        <time>2018-11-21T18:44:50Z</time>
        <name>WPT.237</name>
      </trkpt>
      <trkpt lat="32.148903590" lon="-109.449644120">
        <ele>1440.000</ele>
        <time>2018-11-21T18:44:54Z</time>
        <name>WPT.238</name>
      </trkpt>
      <trkpt lat="32.148886880" lon="-109.449591550">
        <ele>1440.000</ele>
        <time>2018-11-21T18:44:59Z</time>
        <name>WPT.239</name>
      </trkpt>
      <trkpt lat="32.148848530" lon="-109.449586870">
        <ele>1438.000</ele>
        <time>2018-11-21T18:45:03Z</time>
        <name>WPT.240</name>
      </trkpt>
      <trkpt lat="32.148813070" lon="-109.449578930">
        <ele>1439.000</ele>
        <time>2018-11-21T18:45:06Z</time>
        <name>WPT.241</name>
      </trkpt>
      <trkpt lat="32.148776300" lon="-109.449563930">
        <ele>1438.000</ele>
        <time>2018-11-21T18:45:09Z</time>
        <name>WPT.242</name>
      </trkpt>
      <trkpt lat="32.148726430" lon="-109.449555520">
        <ele>1438.000</ele>
        <time>2018-11-21T18:45:13Z</time>
        <name>WPT.243</name>
      </trkpt>
      <trkpt lat="32.148690580" lon="-109.449548330">
        <ele>1439.000</ele>
        <time>2018-11-21T18:45:17Z</time>
        <name>WPT.244</name>
      </trkpt>
      <trkpt lat="32.148654080" lon="-109.449550890">
        <ele>1439.000</ele>
        <time>2018-11-21T18:45:20Z</time>
        <name>WPT.245</name>
      </trkpt>
      <trkpt lat="32.148615970" lon="-109.449548560">
        <ele>1438.000</ele>
        <time>2018-11-21T18:45:25Z</time>
        <name>WPT.246</name>
      </trkpt>
      <trkpt lat="32.148582100" lon="-109.449527310">
        <ele>1438.000</ele>
        <time>2018-11-21T18:45:29Z</time>
        <name>WPT.247</name>
      </trkpt>
      <trkpt lat="32.148542390" lon="-109.449503620">
        <ele>1438.000</ele>
        <time>2018-11-21T18:45:33Z</time>
        <name>WPT.248</name>
      </trkpt>
      <trkpt lat="32.148502590" lon="-109.449486530">
        <ele>1437.000</ele>
        <time>2018-11-21T18:45:37Z</time>
        <name>WPT.249</name>
      </trkpt>
      <trkpt lat="32.148472310" lon="-109.449460270">
        <ele>1437.000</ele>
        <time>2018-11-21T18:45:40Z</time>
        <name>WPT.250</name>
      </trkpt>
      <trkpt lat="32.148436360" lon="-109.449430120">
        <ele>1436.000</ele>
        <time>2018-11-21T18:45:44Z</time>
        <name>WPT.251</name>
      </trkpt>
      <trkpt lat="32.148406760" lon="-109.449396140">
        <ele>1436.000</ele>
        <time>2018-11-21T18:45:47Z</time>
        <name>WPT.252</name>
      </trkpt>
      <trkpt lat="32.148377910" lon="-109.449360230">
        <ele>1436.000</ele>
        <time>2018-11-21T18:45:53Z</time>
        <name>WPT.253</name>
      </trkpt>
      <trkpt lat="32.148366470" lon="-109.449318810">
        <ele>1435.000</ele>
        <time>2018-11-21T18:46:45Z</time>
        <name>WPT.254</name>
      </trkpt>
      <trkpt lat="32.148340030" lon="-109.449282300">
        <ele>1435.000</ele>
        <time>2018-11-21T18:46:49Z</time>
        <name>WPT.255</name>
      </trkpt>
      <trkpt lat="32.148315730" lon="-109.449246280">
        <ele>1436.000</ele>
        <time>2018-11-21T18:46:53Z</time>
        <name>WPT.256</name>
      </trkpt>
      <trkpt lat="32.148281700" lon="-109.449216360">
        <ele>1434.000</ele>
        <time>2018-11-21T18:46:57Z</time>
        <name>WPT.257</name>
      </trkpt>
      <trkpt lat="32.148254870" lon="-109.449185280">
        <ele>1435.000</ele>
        <time>2018-11-21T18:47:01Z</time>
        <name>WPT.258</name>
      </trkpt>
      <trkpt lat="32.148223470" lon="-109.449149260">
        <ele>1434.000</ele>
        <time>2018-11-21T18:47:05Z</time>
        <name>WPT.259</name>
      </trkpt>
      <trkpt lat="32.148185240" lon="-109.449125430">
        <ele>1435.000</ele>
        <time>2018-11-21T18:47:09Z</time>
        <name>WPT.260</name>
      </trkpt>
      <trkpt lat="32.148150760" lon="-109.449110540">
        <ele>1435.000</ele>
        <time>2018-11-21T18:47:13Z</time>
        <name>WPT.261</name>
      </trkpt>
      <trkpt lat="32.148110600" lon="-109.449097310">
        <ele>1434.000</ele>
        <time>2018-11-21T18:47:17Z</time>
        <name>WPT.262</name>
      </trkpt>
      <trkpt lat="32.148078150" lon="-109.449061000">
        <ele>1433.000</ele>
        <time>2018-11-21T18:47:21Z</time>
        <name>WPT.263</name>
      </trkpt>
      <trkpt lat="32.148050750" lon="-109.449020770">
        <ele>1434.000</ele>
        <time>2018-11-21T18:47:25Z</time>
        <name>WPT.264</name>
      </trkpt>
      <trkpt lat="32.148024230" lon="-109.448976360">
        <ele>1434.000</ele>
        <time>2018-11-21T18:47:29Z</time>
        <name>WPT.265</name>
      </trkpt>
      <trkpt lat="32.147999290" lon="-109.448936070">
        <ele>1435.000</ele>
        <time>2018-11-21T18:47:33Z</time>
        <name>WPT.266</name>
      </trkpt>
      <trkpt lat="32.147973210" lon="-109.448897220">
        <ele>1436.000</ele>
        <time>2018-11-21T18:47:37Z</time>
        <name>WPT.267</name>
      </trkpt>
      <trkpt lat="32.147950250" lon="-109.448848670">
        <ele>1435.000</ele>
        <time>2018-11-21T18:47:41Z</time>
        <name>WPT.268</name>
      </trkpt>
      <trkpt lat="32.147928980" lon="-109.448800120">
        <ele>1436.000</ele>
        <time>2018-11-21T18:47:45Z</time>
        <name>WPT.269</name>
      </trkpt>
      <trkpt lat="32.147905700" lon="-109.448766620">
        <ele>1436.000</ele>
        <time>2018-11-21T18:47:48Z</time>
        <name>WPT.270</name>
      </trkpt>
      <trkpt lat="32.147877800" lon="-109.448739570">
        <ele>1437.000</ele>
        <time>2018-11-21T18:47:51Z</time>
        <name>WPT.271</name>
      </trkpt>
      <trkpt lat="32.147849540" lon="-109.448705900">
        <ele>1438.000</ele>
        <time>2018-11-21T18:47:55Z</time>
        <name>WPT.272</name>
      </trkpt>
      <trkpt lat="32.147822410" lon="-109.448662690">
        <ele>1437.000</ele>
        <time>2018-11-21T18:47:59Z</time>
        <name>WPT.273</name>
      </trkpt>
      <trkpt lat="32.147789660" lon="-109.448640950">
        <ele>1435.000</ele>
        <time>2018-11-21T18:48:02Z</time>
        <name>WPT.274</name>
      </trkpt>
      <trkpt lat="32.147755460" lon="-109.448605840">
        <ele>1435.000</ele>
        <time>2018-11-21T18:48:06Z</time>
        <name>WPT.275</name>
      </trkpt>
      <trkpt lat="32.147733630" lon="-109.448563900">
        <ele>1434.000</ele>
        <time>2018-11-21T18:48:10Z</time>
        <name>WPT.276</name>
      </trkpt>
      <trkpt lat="32.147706700" lon="-109.448529430">
        <ele>1435.000</ele>
        <time>2018-11-21T18:48:13Z</time>
        <name>WPT.277</name>
      </trkpt>
      <trkpt lat="32.147682040" lon="-109.448495700">
        <ele>1436.000</ele>
        <time>2018-11-21T18:48:16Z</time>
        <name>WPT.278</name>
      </trkpt>
      <trkpt lat="32.147650850" lon="-109.448463910">
        <ele>1436.000</ele>
        <time>2018-11-21T18:48:20Z</time>
        <name>WPT.279</name>
      </trkpt>
      <trkpt lat="32.147625530" lon="-109.448427520">
        <ele>1436.000</ele>
        <time>2018-11-21T18:48:23Z</time>
        <name>WPT.280</name>
      </trkpt>
      <trkpt lat="32.147590540" lon="-109.448402570">
        <ele>1435.000</ele>
        <time>2018-11-21T18:48:27Z</time>
        <name>WPT.281</name>
      </trkpt>
      <trkpt lat="32.147546660" lon="-109.448380500">
        <ele>1435.000</ele>
        <time>2018-11-21T18:48:31Z</time>
        <name>WPT.282</name>
      </trkpt>
      <trkpt lat="32.147506260" lon="-109.448370100">
        <ele>1436.000</ele>
        <time>2018-11-21T18:48:35Z</time>
        <name>WPT.283</name>
      </trkpt>
      <trkpt lat="32.147467160" lon="-109.448361670">
        <ele>1436.000</ele>
        <time>2018-11-21T18:48:38Z</time>
        <name>WPT.284</name>
      </trkpt>
      <trkpt lat="32.147424580" lon="-109.448358760">
        <ele>1436.000</ele>
        <time>2018-11-21T18:48:42Z</time>
        <name>WPT.285</name>
      </trkpt>
      <trkpt lat="32.147389190" lon="-109.448350140">
        <ele>1436.000</ele>
        <time>2018-11-21T18:48:45Z</time>
        <name>WPT.286</name>
      </trkpt>
      <trkpt lat="32.147351010" lon="-109.448349610">
        <ele>1436.000</ele>
        <time>2018-11-21T18:48:51Z</time>
        <name>WPT.287</name>
      </trkpt>
      <trkpt lat="32.147314290" lon="-109.448321820">
        <ele>1437.000</ele>
        <time>2018-11-21T18:49:13Z</time>
        <name>WPT.288</name>
      </trkpt>
      <trkpt lat="32.147273240" lon="-109.448322670">
        <ele>1438.000</ele>
        <time>2018-11-21T18:49:17Z</time>
        <name>WPT.289</name>
      </trkpt>
      <trkpt lat="32.147231300" lon="-109.448320430">
        <ele>1438.000</ele>
        <time>2018-11-21T18:49:21Z</time>
        <name>WPT.290</name>
      </trkpt>
      <trkpt lat="32.147186640" lon="-109.448313350">
        <ele>1439.000</ele>
        <time>2018-11-21T18:49:25Z</time>
        <name>WPT.291</name>
      </trkpt>
      <trkpt lat="32.147148380" lon="-109.448315880">
        <ele>1439.000</ele>
        <time>2018-11-21T18:49:28Z</time>
        <name>WPT.292</name>
      </trkpt>
      <trkpt lat="32.147112040" lon="-109.448306650">
        <ele>1440.000</ele>
        <time>2018-11-21T18:49:31Z</time>
        <name>WPT.293</name>
      </trkpt>
      <trkpt lat="32.147072150" lon="-109.448310590">
        <ele>1441.000</ele>
        <time>2018-11-21T18:49:35Z</time>
        <name>WPT.294</name>
      </trkpt>
      <trkpt lat="32.147028220" lon="-109.448315800">
        <ele>1441.000</ele>
        <time>2018-11-21T18:49:40Z</time>
        <name>WPT.295</name>
      </trkpt>
      <trkpt lat="32.146997710" lon="-109.448339750">
        <ele>1442.000</ele>
        <time>2018-11-21T18:49:45Z</time>
        <name>WPT.296</name>
      </trkpt>
      <trkpt lat="32.146959590" lon="-109.448365250">
        <ele>1442.000</ele>
        <time>2018-11-21T18:49:50Z</time>
        <name>WPT.297</name>
      </trkpt>
      <trkpt lat="32.146918120" lon="-109.448373520">
        <ele>1442.000</ele>
        <time>2018-11-21T18:49:55Z</time>
        <name>WPT.298</name>
      </trkpt>
      <trkpt lat="32.146881460" lon="-109.448377820">
        <ele>1443.000</ele>
        <time>2018-11-21T18:50:01Z</time>
        <name>WPT.299</name>
      </trkpt>
      <trkpt lat="32.146841240" lon="-109.448384970">
        <ele>1444.000</ele>
        <time>2018-11-21T18:51:21Z</time>
        <name>WPT.300</name>
      </trkpt>
      <trkpt lat="32.146806000" lon="-109.448366760">
        <ele>1445.000</ele>
        <time>2018-11-21T18:51:28Z</time>
        <name>WPT.301</name>
      </trkpt>
      <trkpt lat="32.146802470" lon="-109.448318530">
        <ele>1445.000</ele>
        <time>2018-11-21T18:52:01Z</time>
        <name>WPT.302</name>
      </trkpt>
      <trkpt lat="32.146839400" lon="-109.448308030">
        <ele>1442.000</ele>
        <time>2018-11-21T18:53:00Z</time>
        <name>WPT.303</name>
      </trkpt>
      <trkpt lat="32.146885950" lon="-109.448316410">
        <ele>1443.000</ele>
        <time>2018-11-21T18:53:05Z</time>
        <name>WPT.304</name>
      </trkpt>
      <trkpt lat="32.146920100" lon="-109.448330640">
        <ele>1442.000</ele>
        <time>2018-11-21T18:53:09Z</time>
        <name>WPT.305</name>
      </trkpt>
      <trkpt lat="32.146963790" lon="-109.448339100">
        <ele>1442.000</ele>
        <time>2018-11-21T18:53:13Z</time>
        <name>WPT.306</name>
      </trkpt>
      <trkpt lat="32.147001490" lon="-109.448339880">
        <ele>1442.000</ele>
        <time>2018-11-21T18:53:17Z</time>
        <name>WPT.307</name>
      </trkpt>
      <trkpt lat="32.147029340" lon="-109.448305080">
        <ele>1441.000</ele>
        <time>2018-11-21T18:53:21Z</time>
        <name>WPT.308</name>
      </trkpt>
      <trkpt lat="32.147030410" lon="-109.448261530">
        <ele>1440.000</ele>
        <time>2018-11-21T18:53:25Z</time>
        <name>WPT.309</name>
      </trkpt>
      <trkpt lat="32.147033140" lon="-109.448218790">
        <ele>1440.000</ele>
        <time>2018-11-21T18:53:28Z</time>
        <name>WPT.310</name>
      </trkpt>
      <trkpt lat="32.147033340" lon="-109.448167630">
        <ele>1439.000</ele>
        <time>2018-11-21T18:53:32Z</time>
        <name>WPT.311</name>
      </trkpt>
      <trkpt lat="32.147036210" lon="-109.448117760">
        <ele>1439.000</ele>
        <time>2018-11-21T18:53:36Z</time>
        <name>WPT.312</name>
      </trkpt>
      <trkpt lat="32.147009150" lon="-109.448083400">
        <ele>1437.000</ele>
        <time>2018-11-21T18:53:40Z</time>
        <name>WPT.313</name>
      </trkpt>
      <trkpt lat="32.146973110" lon="-109.448076550">
        <ele>1437.000</ele>
        <time>2018-11-21T18:53:43Z</time>
        <name>WPT.314</name>
      </trkpt>
      <trkpt lat="32.146931910" lon="-109.448073250">
        <ele>1436.000</ele>
        <time>2018-11-21T18:53:47Z</time>
        <name>WPT.315</name>
      </trkpt>
      <trkpt lat="32.146895640" lon="-109.448055190">
        <ele>1437.000</ele>
        <time>2018-11-21T18:53:51Z</time>
        <name>WPT.316</name>
      </trkpt>
      <trkpt lat="32.146873230" lon="-109.448014350">
        <ele>1438.000</ele>
        <time>2018-11-21T18:53:55Z</time>
        <name>WPT.317</name>
      </trkpt>
      <trkpt lat="32.146857920" lon="-109.447968740">
        <ele>1439.000</ele>
        <time>2018-11-21T18:53:59Z</time>
        <name>WPT.318</name>
      </trkpt>
      <trkpt lat="32.146841730" lon="-109.447925340">
        <ele>1440.000</ele>
        <time>2018-11-21T18:54:02Z</time>
        <name>WPT.319</name>
      </trkpt>
      <trkpt lat="32.146845430" lon="-109.447877120">
        <ele>1438.000</ele>
        <time>2018-11-21T18:54:06Z</time>
        <name>WPT.320</name>
      </trkpt>
      <trkpt lat="32.146842330" lon="-109.447825530">
        <ele>1438.000</ele>
        <time>2018-11-21T18:54:10Z</time>
        <name>WPT.321</name>
      </trkpt>
      <trkpt lat="32.146835940" lon="-109.447783500">
        <ele>1437.000</ele>
        <time>2018-11-21T18:54:14Z</time>
        <name>WPT.322</name>
      </trkpt>
      <trkpt lat="32.146844300" lon="-109.447727770">
        <ele>1438.000</ele>
        <time>2018-11-21T18:54:18Z</time>
        <name>WPT.323</name>
      </trkpt>
      <trkpt lat="32.146855430" lon="-109.447680270">
        <ele>1439.000</ele>
        <time>2018-11-21T18:54:22Z</time>
        <name>WPT.324</name>
      </trkpt>
      <trkpt lat="32.146872910" lon="-109.447636850">
        <ele>1440.000</ele>
        <time>2018-11-21T18:54:26Z</time>
        <name>WPT.325</name>
      </trkpt>
      <trkpt lat="32.146896560" lon="-109.447604800">
        <ele>1439.000</ele>
        <time>2018-11-21T18:54:29Z</time>
        <name>WPT.326</name>
      </trkpt>
      <trkpt lat="32.146934270" lon="-109.447570780">
        <ele>1439.000</ele>
        <time>2018-11-21T18:54:33Z</time>
        <name>WPT.327</name>
      </trkpt>
      <trkpt lat="32.146964420" lon="-109.447539330">
        <ele>1439.000</ele>
        <time>2018-11-21T18:54:37Z</time>
        <name>WPT.328</name>
      </trkpt>
      <trkpt lat="32.146997570" lon="-109.447508620">
        <ele>1439.000</ele>
        <time>2018-11-21T18:54:41Z</time>
        <name>WPT.329</name>
      </trkpt>
      <trkpt lat="32.147001920" lon="-109.447464340">
        <ele>1440.000</ele>
        <time>2018-11-21T18:54:46Z</time>
        <name>WPT.330</name>
      </trkpt>
      <trkpt lat="32.146976920" lon="-109.447423820">
        <ele>1440.000</ele>
        <time>2018-11-21T18:54:50Z</time>
        <name>WPT.331</name>
      </trkpt>
      <trkpt lat="32.146945700" lon="-109.447388440">
        <ele>1439.000</ele>
        <time>2018-11-21T18:54:55Z</time>
        <name>WPT.332</name>
      </trkpt>
      <trkpt lat="32.146928850" lon="-109.447339690">
        <ele>1438.000</ele>
        <time>2018-11-21T18:54:59Z</time>
        <name>WPT.333</name>
      </trkpt>
      <trkpt lat="32.146914390" lon="-109.447295290">
        <ele>1439.000</ele>
        <time>2018-11-21T18:55:03Z</time>
        <name>WPT.334</name>
      </trkpt>
      <trkpt lat="32.146919870" lon="-109.447249310">
        <ele>1439.000</ele>
        <time>2018-11-21T18:55:07Z</time>
        <name>WPT.335</name>
      </trkpt>
      <trkpt lat="32.146932980" lon="-109.447200390">
        <ele>1438.000</ele>
        <time>2018-11-21T18:55:11Z</time>
        <name>WPT.336</name>
      </trkpt>
      <trkpt lat="32.146944770" lon="-109.447152200">
        <ele>1438.000</ele>
        <time>2018-11-21T18:55:15Z</time>
        <name>WPT.337</name>
      </trkpt>
      <trkpt lat="32.146957930" lon="-109.447112360">
        <ele>1438.000</ele>
        <time>2018-11-21T18:55:18Z</time>
        <name>WPT.338</name>
      </trkpt>
      <trkpt lat="32.146970370" lon="-109.447064810">
        <ele>1438.000</ele>
        <time>2018-11-21T18:55:22Z</time>
        <name>WPT.339</name>
      </trkpt>
      <trkpt lat="32.146991700" lon="-109.447008490">
        <ele>1438.000</ele>
        <time>2018-11-21T18:55:25Z</time>
        <name>WPT.340</name>
      </trkpt>
      <trkpt lat="32.147006930" lon="-109.446965140">
        <ele>1438.000</ele>
        <time>2018-11-21T18:55:29Z</time>
        <name>WPT.341</name>
      </trkpt>
      <trkpt lat="32.147024080" lon="-109.446916790">
        <ele>1438.000</ele>
        <time>2018-11-21T18:55:34Z</time>
        <name>WPT.342</name>
      </trkpt>
      <trkpt lat="32.147039150" lon="-109.446874380">
        <ele>1437.000</ele>
        <time>2018-11-21T18:55:38Z</time>
        <name>WPT.343</name>
      </trkpt>
      <trkpt lat="32.147053260" lon="-109.446824230">
        <ele>1435.000</ele>
        <time>2018-11-21T18:55:42Z</time>
        <name>WPT.344</name>
      </trkpt>
      <trkpt lat="32.147067510" lon="-109.446783200">
        <ele>1437.000</ele>
        <time>2018-11-21T18:55:46Z</time>
        <name>WPT.345</name>
      </trkpt>
      <trkpt lat="32.147077900" lon="-109.446734960">
        <ele>1437.000</ele>
        <time>2018-11-21T18:55:50Z</time>
        <name>WPT.346</name>
      </trkpt>
      <trkpt lat="32.147089240" lon="-109.446691770">
        <ele>1438.000</ele>
        <time>2018-11-21T18:55:54Z</time>
        <name>WPT.347</name>
      </trkpt>
      <trkpt lat="32.147107390" lon="-109.446649950">
        <ele>1437.000</ele>
        <time>2018-11-21T18:55:58Z</time>
        <name>WPT.348</name>
      </trkpt>
      <trkpt lat="32.147131410" lon="-109.446605970">
        <ele>1437.000</ele>
        <time>2018-11-21T18:56:03Z</time>
        <name>WPT.349</name>
      </trkpt>
      <trkpt lat="32.147154000" lon="-109.446564470">
        <ele>1438.000</ele>
        <time>2018-11-21T18:56:07Z</time>
        <name>WPT.350</name>
      </trkpt>
      <trkpt lat="32.147175670" lon="-109.446518150">
        <ele>1437.000</ele>
        <time>2018-11-21T18:56:12Z</time>
        <name>WPT.351</name>
      </trkpt>
      <trkpt lat="32.147173630" lon="-109.446474660">
        <ele>1437.000</ele>
        <time>2018-11-21T18:56:17Z</time>
        <name>WPT.352</name>
      </trkpt>
      <trkpt lat="32.147153780" lon="-109.446429800">
        <ele>1435.000</ele>
        <time>2018-11-21T18:56:48Z</time>
        <name>WPT.353</name>
      </trkpt>
      <trkpt lat="32.147156000" lon="-109.446383710">
        <ele>1435.000</ele>
        <time>2018-11-21T18:56:52Z</time>
        <name>WPT.354</name>
      </trkpt>
      <trkpt lat="32.147154040" lon="-109.446337450">
        <ele>1436.000</ele>
        <time>2018-11-21T18:56:56Z</time>
        <name>WPT.355</name>
      </trkpt>
      <trkpt lat="32.147135030" lon="-109.446290220">
        <ele>1436.000</ele>
        <time>2018-11-21T18:57:00Z</time>
        <name>WPT.356</name>
      </trkpt>
      <trkpt lat="32.147118830" lon="-109.446251720">
        <ele>1436.000</ele>
        <time>2018-11-21T18:57:03Z</time>
        <name>WPT.357</name>
      </trkpt>
      <trkpt lat="32.147092630" lon="-109.446207350">
        <ele>1436.000</ele>
        <time>2018-11-21T18:57:07Z</time>
        <name>WPT.358</name>
      </trkpt>
      <trkpt lat="32.147070430" lon="-109.446163370">
        <ele>1436.000</ele>
        <time>2018-11-21T18:57:11Z</time>
        <name>WPT.359</name>
      </trkpt>
      <trkpt lat="32.147048130" lon="-109.446114670">
        <ele>1437.000</ele>
        <time>2018-11-21T18:57:15Z</time>
        <name>WPT.360</name>
      </trkpt>
      <trkpt lat="32.147023510" lon="-109.446074620">
        <ele>1437.000</ele>
        <time>2018-11-21T18:57:18Z</time>
        <name>WPT.361</name>
      </trkpt>
      <trkpt lat="32.147005300" lon="-109.446030860">
        <ele>1437.000</ele>
        <time>2018-11-21T18:57:22Z</time>
        <name>WPT.362</name>
      </trkpt>
      <trkpt lat="32.146994160" lon="-109.445978180">
        <ele>1438.000</ele>
        <time>2018-11-21T18:57:27Z</time>
        <name>WPT.363</name>
      </trkpt>
      <trkpt lat="32.147006090" lon="-109.445933070">
        <ele>1439.000</ele>
        <time>2018-11-21T18:57:32Z</time>
        <name>WPT.364</name>
      </trkpt>
      <trkpt lat="32.147002140" lon="-109.445880740">
        <ele>1439.000</ele>
        <time>2018-11-21T18:58:30Z</time>
        <name>WPT.365</name>
      </trkpt>
      <trkpt lat="32.146987910" lon="-109.445831140">
        <ele>1439.000</ele>
        <time>2018-11-21T18:58:35Z</time>
        <name>WPT.366</name>
      </trkpt>
      <trkpt lat="32.146964710" lon="-109.445790820">
        <ele>1441.000</ele>
        <time>2018-11-21T18:58:40Z</time>
        <name>WPT.367</name>
      </trkpt>
      <trkpt lat="32.146954600" lon="-109.445749630">
        <ele>1441.000</ele>
        <time>2018-11-21T18:58:43Z</time>
        <name>WPT.368</name>
      </trkpt>
      <trkpt lat="32.146939480" lon="-109.445709920">
        <ele>1441.000</ele>
        <time>2018-11-21T18:58:46Z</time>
        <name>WPT.369</name>
      </trkpt>
      <trkpt lat="32.146912300" lon="-109.445666030">
        <ele>1441.000</ele>
        <time>2018-11-21T18:58:50Z</time>
        <name>WPT.370</name>
      </trkpt>
      <trkpt lat="32.146904590" lon="-109.445622750">
        <ele>1441.000</ele>
        <time>2018-11-21T18:58:53Z</time>
        <name>WPT.371</name>
      </trkpt>
      <trkpt lat="32.146897480" lon="-109.445569130">
        <ele>1442.000</ele>
        <time>2018-11-21T18:58:57Z</time>
        <name>WPT.372</name>
      </trkpt>
      <trkpt lat="32.146890600" lon="-109.445522270">
        <ele>1443.000</ele>
        <time>2018-11-21T18:59:06Z</time>
        <name>WPT.373</name>
      </trkpt>
      <trkpt lat="32.146869630" lon="-109.445479160">
        <ele>1443.000</ele>
        <time>2018-11-21T18:59:10Z</time>
        <name>WPT.374</name>
      </trkpt>
      <trkpt lat="32.146849670" lon="-109.445441520">
        <ele>1443.000</ele>
        <time>2018-11-21T18:59:13Z</time>
        <name>WPT.375</name>
      </trkpt>
      <trkpt lat="32.146823040" lon="-109.445405980">
        <ele>1444.000</ele>
        <time>2018-11-21T18:59:17Z</time>
        <name>WPT.376</name>
      </trkpt>
      <trkpt lat="32.146800030" lon="-109.445371720">
        <ele>1444.000</ele>
        <time>2018-11-21T18:59:20Z</time>
        <name>WPT.377</name>
      </trkpt>
      <trkpt lat="32.146777040" lon="-109.445329530">
        <ele>1445.000</ele>
        <time>2018-11-21T18:59:24Z</time>
        <name>WPT.378</name>
      </trkpt>
      <trkpt lat="32.146756350" lon="-109.445292650">
        <ele>1444.000</ele>
        <time>2018-11-21T18:59:27Z</time>
        <name>WPT.379</name>
      </trkpt>
      <trkpt lat="32.146737420" lon="-109.445254460">
        <ele>1444.000</ele>
        <time>2018-11-21T18:59:30Z</time>
        <name>WPT.380</name>
      </trkpt>
      <trkpt lat="32.146726050" lon="-109.445212530">
        <ele>1444.000</ele>
        <time>2018-11-21T18:59:33Z</time>
        <name>WPT.381</name>
      </trkpt>
      <trkpt lat="32.146710970" lon="-109.445172420">
        <ele>1444.000</ele>
        <time>2018-11-21T18:59:36Z</time>
        <name>WPT.382</name>
      </trkpt>
      <trkpt lat="32.146700020" lon="-109.445119150">
        <ele>1444.000</ele>
        <time>2018-11-21T18:59:40Z</time>
        <name>WPT.383</name>
      </trkpt>
      <trkpt lat="32.146674440" lon="-109.445085170">
        <ele>1444.000</ele>
        <time>2018-11-21T18:59:43Z</time>
        <name>WPT.384</name>
      </trkpt>
      <trkpt lat="32.146647180" lon="-109.445056840">
        <ele>1444.000</ele>
        <time>2018-11-21T18:59:46Z</time>
        <name>WPT.385</name>
      </trkpt>
      <trkpt lat="32.146613060" lon="-109.445017430">
        <ele>1445.000</ele>
        <time>2018-11-21T18:59:50Z</time>
        <name>WPT.386</name>
      </trkpt>
      <trkpt lat="32.146603410" lon="-109.444971300">
        <ele>1444.000</ele>
        <time>2018-11-21T18:59:54Z</time>
        <name>WPT.387</name>
      </trkpt>
      <trkpt lat="32.146598350" lon="-109.444927900">
        <ele>1445.000</ele>
        <time>2018-11-21T18:59:58Z</time>
        <name>WPT.388</name>
      </trkpt>
      <trkpt lat="32.146580430" lon="-109.444887850">
        <ele>1446.000</ele>
        <time>2018-11-21T19:00:02Z</time>
        <name>WPT.389</name>
      </trkpt>
      <trkpt lat="32.146554930" lon="-109.444841520">
        <ele>1447.000</ele>
        <time>2018-11-21T19:00:06Z</time>
        <name>WPT.390</name>
      </trkpt>
      <trkpt lat="32.146526930" lon="-109.444813440">
        <ele>1448.000</ele>
        <time>2018-11-21T19:00:09Z</time>
        <name>WPT.391</name>
      </trkpt>
      <trkpt lat="32.146495670" lon="-109.444767190">
        <ele>1448.000</ele>
        <time>2018-11-21T19:00:13Z</time>
        <name>WPT.392</name>
      </trkpt>
      <trkpt lat="32.146476790" lon="-109.444719730">
        <ele>1447.000</ele>
        <time>2018-11-21T19:00:18Z</time>
        <name>WPT.393</name>
      </trkpt>
      <trkpt lat="32.146465920" lon="-109.444675120">
        <ele>1446.000</ele>
        <time>2018-11-21T19:00:31Z</time>
        <name>WPT.394</name>
      </trkpt>
      <trkpt lat="32.146455660" lon="-109.444630930">
        <ele>1445.000</ele>
        <time>2018-11-21T19:00:36Z</time>
        <name>WPT.395</name>
      </trkpt>
      <trkpt lat="32.146445400" lon="-109.444584390">
        <ele>1447.000</ele>
        <time>2018-11-21T19:00:41Z</time>
        <name>WPT.396</name>
      </trkpt>
      <trkpt lat="32.146432100" lon="-109.444539300">
        <ele>1447.000</ele>
        <time>2018-11-21T19:00:45Z</time>
        <name>WPT.397</name>
      </trkpt>
      <trkpt lat="32.146404460" lon="-109.444501820">
        <ele>1447.000</ele>
        <time>2018-11-21T19:00:49Z</time>
        <name>WPT.398</name>
      </trkpt>
      <trkpt lat="32.146364030" lon="-109.444477420">
        <ele>1446.000</ele>
        <time>2018-11-21T19:00:53Z</time>
        <name>WPT.399</name>
      </trkpt>
      <trkpt lat="32.146341690" lon="-109.444440040">
        <ele>1447.000</ele>
        <time>2018-11-21T19:00:56Z</time>
        <name>WPT.400</name>
      </trkpt>
      <trkpt lat="32.146315700" lon="-109.444402640">
        <ele>1447.000</ele>
        <time>2018-11-21T19:01:00Z</time>
        <name>WPT.401</name>
      </trkpt>
      <trkpt lat="32.146326760" lon="-109.444353850">
        <ele>1445.000</ele>
        <time>2018-11-21T19:01:04Z</time>
        <name>WPT.402</name>
      </trkpt>
      <trkpt lat="32.146322260" lon="-109.444311610">
        <ele>1445.000</ele>
        <time>2018-11-21T19:02:47Z</time>
        <name>WPT.403</name>
      </trkpt>
      <trkpt lat="32.146288900" lon="-109.444286270">
        <ele>1444.000</ele>
        <time>2018-11-21T19:02:54Z</time>
        <name>WPT.404</name>
      </trkpt>
      <trkpt lat="32.146253240" lon="-109.444273960">
        <ele>1446.000</ele>
        <time>2018-11-21T19:02:59Z</time>
        <name>WPT.405</name>
      </trkpt>
      <trkpt lat="32.146243590" lon="-109.444226960">
        <ele>1446.000</ele>
        <time>2018-11-21T19:03:03Z</time>
        <name>WPT.406</name>
      </trkpt>
      <trkpt lat="32.146235670" lon="-109.444177230">
        <ele>1446.000</ele>
        <time>2018-11-21T19:03:07Z</time>
        <name>WPT.407</name>
      </trkpt>
      <trkpt lat="32.146227090" lon="-109.444134420">
        <ele>1446.000</ele>
        <time>2018-11-21T19:03:10Z</time>
        <name>WPT.408</name>
      </trkpt>
      <trkpt lat="32.146222450" lon="-109.444079720">
        <ele>1445.000</ele>
        <time>2018-11-21T19:03:14Z</time>
        <name>WPT.409</name>
      </trkpt>
      <trkpt lat="32.146204010" lon="-109.444034590">
        <ele>1449.000</ele>
        <time>2018-11-21T19:03:21Z</time>
        <name>WPT.410</name>
      </trkpt>
      <trkpt lat="32.146196970" lon="-109.443979100">
        <ele>1449.000</ele>
        <time>2018-11-21T19:03:25Z</time>
        <name>WPT.411</name>
      </trkpt>
      <trkpt lat="32.146201140" lon="-109.443933650">
        <ele>1448.000</ele>
        <time>2018-11-21T19:03:28Z</time>
        <name>WPT.412</name>
      </trkpt>
      <trkpt lat="32.146191620" lon="-109.443890100">
        <ele>1448.000</ele>
        <time>2018-11-21T19:03:34Z</time>
        <name>WPT.413</name>
      </trkpt>
      <trkpt lat="32.146197750" lon="-109.443840440">
        <ele>1445.000</ele>
        <time>2018-11-21T19:03:38Z</time>
        <name>WPT.414</name>
      </trkpt>
      <trkpt lat="32.146188870" lon="-109.443796930">
        <ele>1446.000</ele>
        <time>2018-11-21T19:03:41Z</time>
        <name>WPT.415</name>
      </trkpt>
      <trkpt lat="32.146171180" lon="-109.443757980">
        <ele>1446.000</ele>
        <time>2018-11-21T19:03:44Z</time>
        <name>WPT.416</name>
      </trkpt>
      <trkpt lat="32.146150560" lon="-109.443718630">
        <ele>1446.000</ele>
        <time>2018-11-21T19:03:47Z</time>
        <name>WPT.417</name>
      </trkpt>
      <trkpt lat="32.146140280" lon="-109.443676680">
        <ele>1444.000</ele>
        <time>2018-11-21T19:03:50Z</time>
        <name>WPT.418</name>
      </trkpt>
      <trkpt lat="32.146136950" lon="-109.443630830">
        <ele>1442.000</ele>
        <time>2018-11-21T19:03:53Z</time>
        <name>WPT.419</name>
      </trkpt>
      <trkpt lat="32.146126680" lon="-109.443583740">
        <ele>1441.000</ele>
        <time>2018-11-21T19:03:57Z</time>
        <name>WPT.420</name>
      </trkpt>
      <trkpt lat="32.146126460" lon="-109.443531930">
        <ele>1442.000</ele>
        <time>2018-11-21T19:04:01Z</time>
        <name>WPT.421</name>
      </trkpt>
      <trkpt lat="32.146119760" lon="-109.443481580">
        <ele>1443.000</ele>
        <time>2018-11-21T19:04:06Z</time>
        <name>WPT.422</name>
      </trkpt>
      <trkpt lat="32.146087900" lon="-109.443457810">
        <ele>1448.000</ele>
        <time>2018-11-21T19:05:02Z</time>
        <name>WPT.423</name>
      </trkpt>
      <trkpt lat="32.146065090" lon="-109.443417950">
        <ele>1449.000</ele>
        <time>2018-11-21T19:05:07Z</time>
        <name>WPT.424</name>
      </trkpt>
      <trkpt lat="32.146069200" lon="-109.443373050">
        <ele>1453.000</ele>
        <time>2018-11-21T19:05:14Z</time>
        <name>WPT.425</name>
      </trkpt>
      <trkpt lat="32.146032470" lon="-109.443361110">
        <ele>1451.000</ele>
        <time>2018-11-21T19:05:34Z</time>
        <name>WPT.426</name>
      </trkpt>
      <trkpt lat="32.145994530" lon="-109.443338490">
        <ele>1451.000</ele>
        <time>2018-11-21T19:06:39Z</time>
        <name>WPT.427</name>
      </trkpt>
      <trkpt lat="32.145981470" lon="-109.443293680">
        <ele>1451.000</ele>
        <time>2018-11-21T19:06:43Z</time>
        <name>WPT.428</name>
      </trkpt>
      <trkpt lat="32.145966120" lon="-109.443236910">
        <ele>1450.000</ele>
        <time>2018-11-21T19:06:47Z</time>
        <name>WPT.429</name>
      </trkpt>
      <trkpt lat="32.145949580" lon="-109.443186200">
        <ele>1452.000</ele>
        <time>2018-11-21T19:06:51Z</time>
        <name>WPT.430</name>
      </trkpt>
      <trkpt lat="32.145930800" lon="-109.443147340">
        <ele>1452.000</ele>
        <time>2018-11-21T19:06:54Z</time>
        <name>WPT.431</name>
      </trkpt>
      <trkpt lat="32.145888750" lon="-109.443121340">
        <ele>1451.000</ele>
        <time>2018-11-21T19:06:58Z</time>
        <name>WPT.432</name>
      </trkpt>
      <trkpt lat="32.145858380" lon="-109.443074880">
        <ele>1452.000</ele>
        <time>2018-11-21T19:07:02Z</time>
        <name>WPT.433</name>
      </trkpt>
      <trkpt lat="32.145835920" lon="-109.443025820">
        <ele>1454.000</ele>
        <time>2018-11-21T19:07:06Z</time>
        <name>WPT.434</name>
      </trkpt>
      <trkpt lat="32.145812430" lon="-109.442980160">
        <ele>1453.000</ele>
        <time>2018-11-21T19:07:10Z</time>
        <name>WPT.435</name>
      </trkpt>
      <trkpt lat="32.145785180" lon="-109.442941470">
        <ele>1453.000</ele>
        <time>2018-11-21T19:07:14Z</time>
        <name>WPT.436</name>
      </trkpt>
      <trkpt lat="32.145769640" lon="-109.442888280">
        <ele>1453.000</ele>
        <time>2018-11-21T19:07:18Z</time>
        <name>WPT.437</name>
      </trkpt>
      <trkpt lat="32.145750440" lon="-109.442851270">
        <ele>1452.000</ele>
        <time>2018-11-21T19:07:21Z</time>
        <name>WPT.438</name>
      </trkpt>
      <trkpt lat="32.145725610" lon="-109.442806540">
        <ele>1452.000</ele>
        <time>2018-11-21T19:07:25Z</time>
        <name>WPT.439</name>
      </trkpt>
      <trkpt lat="32.145700730" lon="-109.442757450">
        <ele>1454.000</ele>
        <time>2018-11-21T19:07:29Z</time>
        <name>WPT.440</name>
      </trkpt>
      <trkpt lat="32.145679990" lon="-109.442722410">
        <ele>1455.000</ele>
        <time>2018-11-21T19:07:32Z</time>
        <name>WPT.441</name>
      </trkpt>
      <trkpt lat="32.145666610" lon="-109.442674380">
        <ele>1454.000</ele>
        <time>2018-11-21T19:07:36Z</time>
        <name>WPT.442</name>
      </trkpt>
      <trkpt lat="32.145641580" lon="-109.442638600">
        <ele>1455.000</ele>
        <time>2018-11-21T19:07:40Z</time>
        <name>WPT.443</name>
      </trkpt>
      <trkpt lat="32.145626960" lon="-109.442587720">
        <ele>1453.000</ele>
        <time>2018-11-21T19:07:45Z</time>
        <name>WPT.444</name>
      </trkpt>
      <trkpt lat="32.145620920" lon="-109.442534220">
        <ele>1454.000</ele>
        <time>2018-11-21T19:07:49Z</time>
        <name>WPT.445</name>
      </trkpt>
      <trkpt lat="32.145618760" lon="-109.442488130">
        <ele>1454.000</ele>
        <time>2018-11-21T19:07:54Z</time>
        <name>WPT.446</name>
      </trkpt>
      <trkpt lat="32.145612820" lon="-109.442436210">
        <ele>1453.000</ele>
        <time>2018-11-21T19:07:59Z</time>
        <name>WPT.447</name>
      </trkpt>
      <trkpt lat="32.145612200" lon="-109.442387000">
        <ele>1454.000</ele>
        <time>2018-11-21T19:08:04Z</time>
        <name>WPT.448</name>
      </trkpt>
      <trkpt lat="32.145607360" lon="-109.442337960">
        <ele>1454.000</ele>
        <time>2018-11-21T19:08:08Z</time>
        <name>WPT.449</name>
      </trkpt>
      <trkpt lat="32.145613180" lon="-109.442288620">
        <ele>1454.000</ele>
        <time>2018-11-21T19:08:12Z</time>
        <name>WPT.450</name>
      </trkpt>
      <trkpt lat="32.145623810" lon="-109.442234520">
        <ele>1456.000</ele>
        <time>2018-11-21T19:08:17Z</time>
        <name>WPT.451</name>
      </trkpt>
      <trkpt lat="32.145623780" lon="-109.442191070">
        <ele>1456.000</ele>
        <time>2018-11-21T19:08:21Z</time>
        <name>WPT.452</name>
      </trkpt>
      <trkpt lat="32.145630210" lon="-109.442145660">
        <ele>1457.000</ele>
        <time>2018-11-21T19:08:26Z</time>
        <name>WPT.453</name>
      </trkpt>
      <trkpt lat="32.145610150" lon="-109.442099550">
        <ele>1456.000</ele>
        <time>2018-11-21T19:08:30Z</time>
        <name>WPT.454</name>
      </trkpt>
      <trkpt lat="32.145590410" lon="-109.442061800">
        <ele>1456.000</ele>
        <time>2018-11-21T19:08:33Z</time>
        <name>WPT.455</name>
      </trkpt>
      <trkpt lat="32.145562430" lon="-109.442019090">
        <ele>1456.000</ele>
        <time>2018-11-21T19:08:37Z</time>
        <name>WPT.456</name>
      </trkpt>
      <trkpt lat="32.145540820" lon="-109.441981610">
        <ele>1457.000</ele>
        <time>2018-11-21T19:08:40Z</time>
        <name>WPT.457</name>
      </trkpt>
      <trkpt lat="32.145532310" lon="-109.441939890">
        <ele>1458.000</ele>
        <time>2018-11-21T19:08:44Z</time>
        <name>WPT.458</name>
      </trkpt>
      <trkpt lat="32.145523840" lon="-109.441893610">
        <ele>1460.000</ele>
        <time>2018-11-21T19:08:56Z</time>
        <name>WPT.459</name>
      </trkpt>
      <trkpt lat="32.145513070" lon="-109.441842860">
        <ele>1461.000</ele>
        <time>2018-11-21T19:09:01Z</time>
        <name>WPT.460</name>
      </trkpt>
      <trkpt lat="32.145516790" lon="-109.441800340">
        <ele>1460.000</ele>
        <time>2018-11-21T19:09:05Z</time>
        <name>WPT.461</name>
      </trkpt>
      <trkpt lat="32.145518940" lon="-109.441751390">
        <ele>1460.000</ele>
        <time>2018-11-21T19:09:10Z</time>
        <name>WPT.462</name>
      </trkpt>
      <trkpt lat="32.145510360" lon="-109.441705860">
        <ele>1460.000</ele>
        <time>2018-11-21T19:09:33Z</time>
        <name>WPT.463</name>
      </trkpt>
      <trkpt lat="32.145504420" lon="-109.441659200">
        <ele>1458.000</ele>
        <time>2018-11-21T19:09:37Z</time>
        <name>WPT.464</name>
      </trkpt>
      <trkpt lat="32.145510030" lon="-109.441613460">
        <ele>1460.000</ele>
        <time>2018-11-21T19:09:42Z</time>
        <name>WPT.465</name>
      </trkpt>
      <trkpt lat="32.145522970" lon="-109.441570920">
        <ele>1460.000</ele>
        <time>2018-11-21T19:09:46Z</time>
        <name>WPT.466</name>
      </trkpt>
      <trkpt lat="32.145537070" lon="-109.441530440">
        <ele>1461.000</ele>
        <time>2018-11-21T19:09:50Z</time>
        <name>WPT.467</name>
      </trkpt>
      <trkpt lat="32.145572780" lon="-109.441499680">
        <ele>1461.000</ele>
        <time>2018-11-21T19:09:54Z</time>
        <name>WPT.468</name>
      </trkpt>
      <trkpt lat="32.145586700" lon="-109.441449140">
        <ele>1460.000</ele>
        <time>2018-11-21T19:09:59Z</time>
        <name>WPT.469</name>
      </trkpt>
      <trkpt lat="32.145604330" lon="-109.441408740">
        <ele>1463.000</ele>
        <time>2018-11-21T19:10:04Z</time>
        <name>WPT.470</name>
      </trkpt>
      <trkpt lat="32.145615060" lon="-109.441357070">
        <ele>1464.000</ele>
        <time>2018-11-21T19:10:09Z</time>
        <name>WPT.471</name>
      </trkpt>
      <trkpt lat="32.145631770" lon="-109.441302250">
        <ele>1464.000</ele>
        <time>2018-11-21T19:10:14Z</time>
        <name>WPT.472</name>
      </trkpt>
      <trkpt lat="32.145627780" lon="-109.441254500">
        <ele>1462.000</ele>
        <time>2018-11-21T19:10:18Z</time>
        <name>WPT.473</name>
      </trkpt>
      <trkpt lat="32.145650310" lon="-109.441211600">
        <ele>1464.000</ele>
        <time>2018-11-21T19:10:23Z</time>
        <name>WPT.474</name>
      </trkpt>
      <trkpt lat="32.145652310" lon="-109.441163900">
        <ele>1464.000</ele>
        <time>2018-11-21T19:10:27Z</time>
        <name>WPT.475</name>
      </trkpt>
      <trkpt lat="32.145664220" lon="-109.441115270">
        <ele>1466.000</ele>
        <time>2018-11-21T19:10:31Z</time>
        <name>WPT.476</name>
      </trkpt>
      <trkpt lat="32.145649340" lon="-109.441072070">
        <ele>1465.000</ele>
        <time>2018-11-21T19:10:34Z</time>
        <name>WPT.477</name>
      </trkpt>
      <trkpt lat="32.145650920" lon="-109.441026400">
        <ele>1469.000</ele>
        <time>2018-11-21T19:10:38Z</time>
        <name>WPT.478</name>
      </trkpt>
      <trkpt lat="32.145648270" lon="-109.440977790">
        <ele>1467.000</ele>
        <time>2018-11-21T19:10:42Z</time>
        <name>WPT.479</name>
      </trkpt>
      <trkpt lat="32.145640980" lon="-109.440926030">
        <ele>1467.000</ele>
        <time>2018-11-21T19:10:47Z</time>
        <name>WPT.480</name>
      </trkpt>
      <trkpt lat="32.145651550" lon="-109.440883130">
        <ele>1466.000</ele>
        <time>2018-11-21T19:10:57Z</time>
        <name>WPT.481</name>
      </trkpt>
      <trkpt lat="32.145652340" lon="-109.440832060">
        <ele>1464.000</ele>
        <time>2018-11-21T19:11:35Z</time>
        <name>WPT.482</name>
      </trkpt>
      <trkpt lat="32.145646710" lon="-109.440784990">
        <ele>1465.000</ele>
        <time>2018-11-21T19:12:02Z</time>
        <name>WPT.483</name>
      </trkpt>
      <trkpt lat="32.145619050" lon="-109.440751820">
        <ele>1463.000</ele>
        <time>2018-11-21T19:12:05Z</time>
        <name>WPT.484</name>
      </trkpt>
      <trkpt lat="32.145604010" lon="-109.440709590">
        <ele>1462.000</ele>
        <time>2018-11-21T19:12:09Z</time>
        <name>WPT.485</name>
      </trkpt>
      <trkpt lat="32.145599850" lon="-109.440662880">
        <ele>1463.000</ele>
        <time>2018-11-21T19:12:17Z</time>
        <name>WPT.486</name>
      </trkpt>
      <trkpt lat="32.145610640" lon="-109.440619770">
        <ele>1465.000</ele>
        <time>2018-11-21T19:12:29Z</time>
        <name>WPT.487</name>
      </trkpt>
      <trkpt lat="32.145614190" lon="-109.440565410">
        <ele>1462.000</ele>
        <time>2018-11-21T19:12:33Z</time>
        <name>WPT.488</name>
      </trkpt>
      <trkpt lat="32.145612370" lon="-109.440514630">
        <ele>1464.000</ele>
        <time>2018-11-21T19:12:38Z</time>
        <name>WPT.489</name>
      </trkpt>
      <trkpt lat="32.145603740" lon="-109.440464030">
        <ele>1466.000</ele>
        <time>2018-11-21T19:12:43Z</time>
        <name>WPT.490</name>
      </trkpt>
      <trkpt lat="32.145584800" lon="-109.440417210">
        <ele>1467.000</ele>
        <time>2018-11-21T19:12:47Z</time>
        <name>WPT.491</name>
      </trkpt>
      <trkpt lat="32.145565500" lon="-109.440372650">
        <ele>1467.000</ele>
        <time>2018-11-21T19:12:51Z</time>
        <name>WPT.492</name>
      </trkpt>
      <trkpt lat="32.145550480" lon="-109.440329100">
        <ele>1467.000</ele>
        <time>2018-11-21T19:12:55Z</time>
        <name>WPT.493</name>
      </trkpt>
      <trkpt lat="32.145531170" lon="-109.440292880">
        <ele>1467.000</ele>
        <time>2018-11-21T19:12:59Z</time>
        <name>WPT.494</name>
      </trkpt>
      <trkpt lat="32.145526030" lon="-109.440241220">
        <ele>1469.000</ele>
        <time>2018-11-21T19:13:03Z</time>
        <name>WPT.495</name>
      </trkpt>
      <trkpt lat="32.145511550" lon="-109.440195510">
        <ele>1472.000</ele>
        <time>2018-11-21T19:13:07Z</time>
        <name>WPT.496</name>
      </trkpt>
      <trkpt lat="32.145493240" lon="-109.440158220">
        <ele>1473.000</ele>
        <time>2018-11-21T19:13:11Z</time>
        <name>WPT.497</name>
      </trkpt>
      <trkpt lat="32.145473060" lon="-109.440121990">
        <ele>1473.000</ele>
        <time>2018-11-21T19:13:15Z</time>
        <name>WPT.498</name>
      </trkpt>
      <trkpt lat="32.145450170" lon="-109.440080420">
        <ele>1474.000</ele>
        <time>2018-11-21T19:13:19Z</time>
        <name>WPT.499</name>
      </trkpt>
      <trkpt lat="32.145423650" lon="-109.440051310">
        <ele>1474.000</ele>
        <time>2018-11-21T19:13:22Z</time>
        <name>WPT.500</name>
      </trkpt>
      <trkpt lat="32.145399000" lon="-109.440012750">
        <ele>1476.000</ele>
        <time>2018-11-21T19:13:26Z</time>
        <name>WPT.501</name>
      </trkpt>
      <trkpt lat="32.145377560" lon="-109.439978230">
        <ele>1477.000</ele>
        <time>2018-11-21T19:13:29Z</time>
        <name>WPT.502</name>
      </trkpt>
      <trkpt lat="32.145356060" lon="-109.439940970">
        <ele>1477.000</ele>
        <time>2018-11-21T19:13:32Z</time>
        <name>WPT.503</name>
      </trkpt>
      <trkpt lat="32.145335450" lon="-109.439897820">
        <ele>1478.000</ele>
        <time>2018-11-21T19:13:37Z</time>
        <name>WPT.504</name>
      </trkpt>
      <trkpt lat="32.145321970" lon="-109.439847880">
        <ele>1477.000</ele>
        <time>2018-11-21T19:13:41Z</time>
        <name>WPT.505</name>
      </trkpt>
      <trkpt lat="32.145309590" lon="-109.439801470">
        <ele>1477.000</ele>
        <time>2018-11-21T19:13:46Z</time>
        <name>WPT.506</name>
      </trkpt>
      <trkpt lat="32.145290510" lon="-109.439765230">
        <ele>1478.000</ele>
        <time>2018-11-21T19:13:50Z</time>
        <name>WPT.507</name>
      </trkpt>
      <trkpt lat="32.145267630" lon="-109.439718670">
        <ele>1478.000</ele>
        <time>2018-11-21T19:13:54Z</time>
        <name>WPT.508</name>
      </trkpt>
      <trkpt lat="32.145243160" lon="-109.439682440">
        <ele>1479.000</ele>
        <time>2018-11-21T19:13:58Z</time>
        <name>WPT.509</name>
      </trkpt>
      <trkpt lat="32.145219850" lon="-109.439644370">
        <ele>1480.000</ele>
        <time>2018-11-21T19:14:02Z</time>
        <name>WPT.510</name>
      </trkpt>
      <trkpt lat="32.145196380" lon="-109.439608730">
        <ele>1481.000</ele>
        <time>2018-11-21T19:14:06Z</time>
        <name>WPT.511</name>
      </trkpt>
      <trkpt lat="32.145179410" lon="-109.439570870">
        <ele>1480.000</ele>
        <time>2018-11-21T19:14:10Z</time>
        <name>WPT.512</name>
      </trkpt>
      <trkpt lat="32.145183810" lon="-109.439616520">
        <ele>1479.000</ele>
        <time>2018-11-21T19:14:32Z</time>
        <name>WPT.513</name>
      </trkpt>
      <trkpt lat="32.145163790" lon="-109.439572730">
        <ele>1479.000</ele>
        <time>2018-11-21T19:15:25Z</time>
        <name>WPT.514</name>
      </trkpt>
      <trkpt lat="32.145133690" lon="-109.439530710">
        <ele>1478.000</ele>
        <time>2018-11-21T19:15:29Z</time>
        <name>WPT.515</name>
      </trkpt>
      <trkpt lat="32.145107200" lon="-109.439500310">
        <ele>1478.000</ele>
        <time>2018-11-21T19:15:33Z</time>
        <name>WPT.516</name>
      </trkpt>
      <trkpt lat="32.145070910" lon="-109.439478870">
        <ele>1479.000</ele>
        <time>2018-11-21T19:15:38Z</time>
        <name>WPT.517</name>
      </trkpt>
      <trkpt lat="32.145034520" lon="-109.439465230">
        <ele>1479.000</ele>
        <time>2018-11-21T19:15:43Z</time>
        <name>WPT.518</name>
      </trkpt>
      <trkpt lat="32.145004510" lon="-109.439437610">
        <ele>1480.000</ele>
        <time>2018-11-21T19:15:46Z</time>
        <name>WPT.519</name>
      </trkpt>
      <trkpt lat="32.144975850" lon="-109.439405450">
        <ele>1480.000</ele>
        <time>2018-11-21T19:15:50Z</time>
        <name>WPT.520</name>
      </trkpt>
      <trkpt lat="32.144949910" lon="-109.439370970">
        <ele>1481.000</ele>
        <time>2018-11-21T19:15:54Z</time>
        <name>WPT.521</name>
      </trkpt>
      <trkpt lat="32.144924530" lon="-109.439326280">
        <ele>1480.000</ele>
        <time>2018-11-21T19:15:58Z</time>
        <name>WPT.522</name>
      </trkpt>
      <trkpt lat="32.144905620" lon="-109.439278380">
        <ele>1481.000</ele>
        <time>2018-11-21T19:16:02Z</time>
        <name>WPT.523</name>
      </trkpt>
      <trkpt lat="32.144884890" lon="-109.439238260">
        <ele>1481.000</ele>
        <time>2018-11-21T19:16:05Z</time>
        <name>WPT.524</name>
      </trkpt>
      <trkpt lat="32.144860290" lon="-109.439205930">
        <ele>1481.000</ele>
        <time>2018-11-21T19:16:08Z</time>
        <name>WPT.525</name>
      </trkpt>
      <trkpt lat="32.144826450" lon="-109.439175570">
        <ele>1483.000</ele>
        <time>2018-11-21T19:16:12Z</time>
        <name>WPT.526</name>
      </trkpt>
      <trkpt lat="32.144801700" lon="-109.439132510">
        <ele>1483.000</ele>
        <time>2018-11-21T19:16:16Z</time>
        <name>WPT.527</name>
      </trkpt>
      <trkpt lat="32.144766480" lon="-109.439083280">
        <ele>1485.000</ele>
        <time>2018-11-21T19:16:21Z</time>
        <name>WPT.528</name>
      </trkpt>
      <trkpt lat="32.144734160" lon="-109.439049410">
        <ele>1484.000</ele>
        <time>2018-11-21T19:16:25Z</time>
        <name>WPT.529</name>
      </trkpt>
      <trkpt lat="32.144700660" lon="-109.439019660">
        <ele>1484.000</ele>
        <time>2018-11-21T19:16:29Z</time>
        <name>WPT.530</name>
      </trkpt>
      <trkpt lat="32.144669680" lon="-109.438991610">
        <ele>1484.000</ele>
        <time>2018-11-21T19:16:33Z</time>
        <name>WPT.531</name>
      </trkpt>
      <trkpt lat="32.144653350" lon="-109.438953380">
        <ele>1485.000</ele>
        <time>2018-11-21T19:16:43Z</time>
        <name>WPT.532</name>
      </trkpt>
      <trkpt lat="32.144625160" lon="-109.438910580">
        <ele>1484.000</ele>
        <time>2018-11-21T19:16:47Z</time>
        <name>WPT.533</name>
      </trkpt>
      <trkpt lat="32.144597990" lon="-109.438873540">
        <ele>1485.000</ele>
        <time>2018-11-21T19:16:51Z</time>
        <name>WPT.534</name>
      </trkpt>
      <trkpt lat="32.144582840" lon="-109.438824870">
        <ele>1484.000</ele>
        <time>2018-11-21T19:16:54Z</time>
        <name>WPT.535</name>
      </trkpt>
      <trkpt lat="32.144557580" lon="-109.438776290">
        <ele>1484.000</ele>
        <time>2018-11-21T19:16:58Z</time>
        <name>WPT.536</name>
      </trkpt>
      <trkpt lat="32.144534530" lon="-109.438736080">
        <ele>1486.000</ele>
        <time>2018-11-21T19:17:02Z</time>
        <name>WPT.537</name>
      </trkpt>
      <trkpt lat="32.144526870" lon="-109.438687240">
        <ele>1487.000</ele>
        <time>2018-11-21T19:17:07Z</time>
        <name>WPT.538</name>
      </trkpt>
      <trkpt lat="32.144524730" lon="-109.438638630">
        <ele>1488.000</ele>
        <time>2018-11-21T19:17:11Z</time>
        <name>WPT.539</name>
      </trkpt>
      <trkpt lat="32.144532050" lon="-109.438584570">
        <ele>1488.000</ele>
        <time>2018-11-21T19:17:15Z</time>
        <name>WPT.540</name>
      </trkpt>
      <trkpt lat="32.144542950" lon="-109.438538940">
        <ele>1488.000</ele>
        <time>2018-11-21T19:17:19Z</time>
        <name>WPT.541</name>
      </trkpt>
      <trkpt lat="32.144551750" lon="-109.438486890">
        <ele>1488.000</ele>
        <time>2018-11-21T19:17:23Z</time>
        <name>WPT.542</name>
      </trkpt>
      <trkpt lat="32.144560290" lon="-109.438437200">
        <ele>1488.000</ele>
        <time>2018-11-21T19:17:27Z</time>
        <name>WPT.543</name>
      </trkpt>
      <trkpt lat="32.144583230" lon="-109.438391800">
        <ele>1489.000</ele>
        <time>2018-11-21T19:17:31Z</time>
        <name>WPT.544</name>
      </trkpt>
      <trkpt lat="32.144595110" lon="-109.438351620">
        <ele>1488.000</ele>
        <time>2018-11-21T19:17:44Z</time>
        <name>WPT.545</name>
      </trkpt>
      <trkpt lat="32.144632700" lon="-109.438326020">
        <ele>1487.000</ele>
        <time>2018-11-21T19:18:00Z</time>
        <name>WPT.546</name>
      </trkpt>
      <trkpt lat="32.144669640" lon="-109.438302320">
        <ele>1487.000</ele>
        <time>2018-11-21T19:18:05Z</time>
        <name>WPT.547</name>
      </trkpt>
      <trkpt lat="32.144708130" lon="-109.438272290">
        <ele>1488.000</ele>
        <time>2018-11-21T19:18:09Z</time>
        <name>WPT.548</name>
      </trkpt>
      <trkpt lat="32.144745340" lon="-109.438250700">
        <ele>1488.000</ele>
        <time>2018-11-21T19:18:13Z</time>
        <name>WPT.549</name>
      </trkpt>
      <trkpt lat="32.144781860" lon="-109.438216010">
        <ele>1488.000</ele>
        <time>2018-11-21T19:18:17Z</time>
        <name>WPT.550</name>
      </trkpt>
      <trkpt lat="32.144820470" lon="-109.438187290">
        <ele>1488.000</ele>
        <time>2018-11-21T19:18:21Z</time>
        <name>WPT.551</name>
      </trkpt>
      <trkpt lat="32.144856340" lon="-109.438155320">
        <ele>1488.000</ele>
        <time>2018-11-21T19:18:25Z</time>
        <name>WPT.552</name>
      </trkpt>
      <trkpt lat="32.144892530" lon="-109.438136940">
        <ele>1488.000</ele>
        <time>2018-11-21T19:18:28Z</time>
        <name>WPT.553</name>
      </trkpt>
      <trkpt lat="32.144934360" lon="-109.438112660">
        <ele>1487.000</ele>
        <time>2018-11-21T19:18:32Z</time>
        <name>WPT.554</name>
      </trkpt>
      <trkpt lat="32.144967510" lon="-109.438093720">
        <ele>1487.000</ele>
        <time>2018-11-21T19:18:35Z</time>
        <name>WPT.555</name>
      </trkpt>
      <trkpt lat="32.145013040" lon="-109.438053110">
        <ele>1487.000</ele>
        <time>2018-11-21T19:18:41Z</time>
        <name>WPT.556</name>
      </trkpt>
      <trkpt lat="32.145044570" lon="-109.438026650">
        <ele>1488.000</ele>
        <time>2018-11-21T19:18:51Z</time>
        <name>WPT.557</name>
      </trkpt>
      <trkpt lat="32.145075260" lon="-109.437993190">
        <ele>1488.000</ele>
        <time>2018-11-21T19:18:55Z</time>
        <name>WPT.558</name>
      </trkpt>
      <trkpt lat="32.145105600" lon="-109.437968610">
        <ele>1488.000</ele>
        <time>2018-11-21T19:18:58Z</time>
        <name>WPT.559</name>
      </trkpt>
      <trkpt lat="32.145126930" lon="-109.437932880">
        <ele>1487.000</ele>
        <time>2018-11-21T19:19:01Z</time>
        <name>WPT.560</name>
      </trkpt>
      <trkpt lat="32.145160060" lon="-109.437899670">
        <ele>1488.000</ele>
        <time>2018-11-21T19:19:05Z</time>
        <name>WPT.561</name>
      </trkpt>
      <trkpt lat="32.145192350" lon="-109.437865010">
        <ele>1488.000</ele>
        <time>2018-11-21T19:19:09Z</time>
        <name>WPT.562</name>
      </trkpt>
      <trkpt lat="32.145219510" lon="-109.437814260">
        <ele>1488.000</ele>
        <time>2018-11-21T19:19:13Z</time>
        <name>WPT.563</name>
      </trkpt>
      <trkpt lat="32.145243730" lon="-109.437780750">
        <ele>1487.000</ele>
        <time>2018-11-21T19:19:16Z</time>
        <name>WPT.564</name>
      </trkpt>
      <trkpt lat="32.145268620" lon="-109.437739220">
        <ele>1488.000</ele>
        <time>2018-11-21T19:19:20Z</time>
        <name>WPT.565</name>
      </trkpt>
      <trkpt lat="32.145284170" lon="-109.437691140">
        <ele>1488.000</ele>
        <time>2018-11-21T19:19:24Z</time>
        <name>WPT.566</name>
      </trkpt>
      <trkpt lat="32.145281760" lon="-109.437644740">
        <ele>1488.000</ele>
        <time>2018-11-21T19:19:28Z</time>
        <name>WPT.567</name>
      </trkpt>
      <trkpt lat="32.145307580" lon="-109.437604050">
        <ele>1489.000</ele>
        <time>2018-11-21T19:19:36Z</time>
        <name>WPT.568</name>
      </trkpt>
      <trkpt lat="32.145324530" lon="-109.437551420">
        <ele>1488.000</ele>
        <time>2018-11-21T19:19:40Z</time>
        <name>WPT.569</name>
      </trkpt>
      <trkpt lat="32.145343840" lon="-109.437515020">
        <ele>1489.000</ele>
        <time>2018-11-21T19:19:43Z</time>
        <name>WPT.570</name>
      </trkpt>
      <trkpt lat="32.145366210" lon="-109.437472630">
        <ele>1489.000</ele>
        <time>2018-11-21T19:19:47Z</time>
        <name>WPT.571</name>
      </trkpt>
      <trkpt lat="32.145379580" lon="-109.437425990">
        <ele>1490.000</ele>
        <time>2018-11-21T19:19:51Z</time>
        <name>WPT.572</name>
      </trkpt>
      <trkpt lat="32.145382800" lon="-109.437378180">
        <ele>1491.000</ele>
        <time>2018-11-21T19:19:55Z</time>
        <name>WPT.573</name>
      </trkpt>
      <trkpt lat="32.145390870" lon="-109.437328700">
        <ele>1491.000</ele>
        <time>2018-11-21T19:19:59Z</time>
        <name>WPT.574</name>
      </trkpt>
      <trkpt lat="32.145385610" lon="-109.437278260">
        <ele>1491.000</ele>
        <time>2018-11-21T19:20:03Z</time>
        <name>WPT.575</name>
      </trkpt>
      <trkpt lat="32.145390770" lon="-109.437227530">
        <ele>1491.000</ele>
        <time>2018-11-21T19:20:07Z</time>
        <name>WPT.576</name>
      </trkpt>
      <trkpt lat="32.145386030" lon="-109.437170420">
        <ele>1491.000</ele>
        <time>2018-11-21T19:20:11Z</time>
        <name>WPT.577</name>
      </trkpt>
      <trkpt lat="32.145394330" lon="-109.437117230">
        <ele>1493.000</ele>
        <time>2018-11-21T19:20:15Z</time>
        <name>WPT.578</name>
      </trkpt>
      <trkpt lat="32.145415140" lon="-109.437076590">
        <ele>1492.000</ele>
        <time>2018-11-21T19:20:19Z</time>
        <name>WPT.579</name>
      </trkpt>
      <trkpt lat="32.145439780" lon="-109.437041320">
        <ele>1493.000</ele>
        <time>2018-11-21T19:20:40Z</time>
        <name>WPT.580</name>
      </trkpt>
      <trkpt lat="32.145474140" lon="-109.437013960">
        <ele>1493.000</ele>
        <time>2018-11-21T19:20:45Z</time>
        <name>WPT.581</name>
      </trkpt>
      <trkpt lat="32.145512790" lon="-109.436987430">
        <ele>1493.000</ele>
        <time>2018-11-21T19:20:49Z</time>
        <name>WPT.582</name>
      </trkpt>
      <trkpt lat="32.145526840" lon="-109.436942950">
        <ele>1495.000</ele>
        <time>2018-11-21T19:20:53Z</time>
        <name>WPT.583</name>
      </trkpt>
      <trkpt lat="32.145540240" lon="-109.436896160">
        <ele>1495.000</ele>
        <time>2018-11-21T19:20:57Z</time>
        <name>WPT.584</name>
      </trkpt>
      <trkpt lat="32.145552890" lon="-109.436852050">
        <ele>1496.000</ele>
        <time>2018-11-21T19:21:01Z</time>
        <name>WPT.585</name>
      </trkpt>
      <trkpt lat="32.145562700" lon="-109.436809650">
        <ele>1496.000</ele>
        <time>2018-11-21T19:21:05Z</time>
        <name>WPT.586</name>
      </trkpt>
      <trkpt lat="32.145560440" lon="-109.436764970">
        <ele>1495.000</ele>
        <time>2018-11-21T19:21:09Z</time>
        <name>WPT.587</name>
      </trkpt>
      <trkpt lat="32.145561070" lon="-109.436715830">
        <ele>1495.000</ele>
        <time>2018-11-21T19:21:13Z</time>
        <name>WPT.588</name>
      </trkpt>
      <trkpt lat="32.145564170" lon="-109.436663030">
        <ele>1496.000</ele>
        <time>2018-11-21T19:21:18Z</time>
        <name>WPT.589</name>
      </trkpt>
      <trkpt lat="32.145582770" lon="-109.436617500">
        <ele>1497.000</ele>
        <time>2018-11-21T19:21:22Z</time>
        <name>WPT.590</name>
      </trkpt>
      <trkpt lat="32.145596230" lon="-109.436578060">
        <ele>1497.000</ele>
        <time>2018-11-21T19:21:26Z</time>
        <name>WPT.591</name>
      </trkpt>
      <trkpt lat="32.145617370" lon="-109.436535640">
        <ele>1497.000</ele>
        <time>2018-11-21T19:21:30Z</time>
        <name>WPT.592</name>
      </trkpt>
      <trkpt lat="32.145634760" lon="-109.436494900">
        <ele>1498.000</ele>
        <time>2018-11-21T19:21:34Z</time>
        <name>WPT.593</name>
      </trkpt>
      <trkpt lat="32.145630610" lon="-109.436445700">
        <ele>1498.000</ele>
        <time>2018-11-21T19:21:39Z</time>
        <name>WPT.594</name>
      </trkpt>
      <trkpt lat="32.145628220" lon="-109.436400980">
        <ele>1498.000</ele>
        <time>2018-11-21T19:21:44Z</time>
        <name>WPT.595</name>
      </trkpt>
      <trkpt lat="32.145616660" lon="-109.436352180">
        <ele>1497.000</ele>
        <time>2018-11-21T19:21:49Z</time>
        <name>WPT.596</name>
      </trkpt>
      <trkpt lat="32.145579770" lon="-109.436338900">
        <ele>1497.000</ele>
        <time>2018-11-21T19:23:03Z</time>
        <name>WPT.597</name>
      </trkpt>
      <trkpt lat="32.145541930" lon="-109.436335040">
        <ele>1497.000</ele>
        <time>2018-11-21T19:23:10Z</time>
        <name>WPT.598</name>
      </trkpt>
      <trkpt lat="32.145505160" lon="-109.436334160">
        <ele>1497.000</ele>
        <time>2018-11-21T19:23:14Z</time>
        <name>WPT.599</name>
      </trkpt>
      <trkpt lat="32.145467560" lon="-109.436335190">
        <ele>1498.000</ele>
        <time>2018-11-21T19:23:19Z</time>
        <name>WPT.600</name>
      </trkpt>
      <trkpt lat="32.145424770" lon="-109.436339250">
        <ele>1498.000</ele>
        <time>2018-11-21T19:23:24Z</time>
        <name>WPT.601</name>
      </trkpt>
      <trkpt lat="32.145388440" lon="-109.436348360">
        <ele>1498.000</ele>
        <time>2018-11-21T19:23:28Z</time>
        <name>WPT.602</name>
      </trkpt>
      <trkpt lat="32.145345780" lon="-109.436354820">
        <ele>1498.000</ele>
        <time>2018-11-21T19:23:33Z</time>
        <name>WPT.603</name>
      </trkpt>
      <trkpt lat="32.145306970" lon="-109.436354890">
        <ele>1498.000</ele>
        <time>2018-11-21T19:23:38Z</time>
        <name>WPT.604</name>
      </trkpt>
      <trkpt lat="32.145268600" lon="-109.436360050">
        <ele>1498.000</ele>
        <time>2018-11-21T19:23:43Z</time>
        <name>WPT.605</name>
      </trkpt>
      <trkpt lat="32.145228290" lon="-109.436369730">
        <ele>1498.000</ele>
        <time>2018-11-21T19:23:49Z</time>
        <name>WPT.606</name>
      </trkpt>
      <trkpt lat="32.145183850" lon="-109.436357450">
        <ele>1498.000</ele>
        <time>2018-11-21T19:23:54Z</time>
        <name>WPT.607</name>
      </trkpt>
      <trkpt lat="32.145145310" lon="-109.436340320">
        <ele>1498.000</ele>
        <time>2018-11-21T19:24:00Z</time>
        <name>WPT.608</name>
      </trkpt>
      <trkpt lat="32.145119430" lon="-109.436302050">
        <ele>1498.000</ele>
        <time>2018-11-21T19:24:05Z</time>
        <name>WPT.609</name>
      </trkpt>
      <trkpt lat="32.145093260" lon="-109.436258410">
        <ele>1497.000</ele>
        <time>2018-11-21T19:24:10Z</time>
        <name>WPT.610</name>
      </trkpt>
      <trkpt lat="32.145082130" lon="-109.436214520">
        <ele>1497.000</ele>
        <time>2018-11-21T19:24:15Z</time>
        <name>WPT.611</name>
      </trkpt>
      <trkpt lat="32.145066990" lon="-109.436175070">
        <ele>1498.000</ele>
        <time>2018-11-21T19:24:20Z</time>
        <name>WPT.612</name>
      </trkpt>
      <trkpt lat="32.145060380" lon="-109.436128170">
        <ele>1498.000</ele>
        <time>2018-11-21T19:24:26Z</time>
        <name>WPT.613</name>
      </trkpt>
      <trkpt lat="32.145031920" lon="-109.436100960">
        <ele>1497.000</ele>
        <time>2018-11-21T19:25:23Z</time>
        <name>WPT.614</name>
      </trkpt>
      <trkpt lat="32.145035430" lon="-109.436053040">
        <ele>1497.000</ele>
        <time>2018-11-21T19:25:59Z</time>
        <name>WPT.615</name>
      </trkpt>
      <trkpt lat="32.145034040" lon="-109.436007740">
        <ele>1497.000</ele>
        <time>2018-11-21T19:26:04Z</time>
        <name>WPT.616</name>
      </trkpt>
      <trkpt lat="32.145035650" lon="-109.435960130">
        <ele>1497.000</ele>
        <time>2018-11-21T19:26:09Z</time>
        <name>WPT.617</name>
      </trkpt>
      <trkpt lat="32.145034380" lon="-109.435907740">
        <ele>1497.000</ele>
        <time>2018-11-21T19:26:14Z</time>
        <name>WPT.618</name>
      </trkpt>
      <trkpt lat="32.145033100" lon="-109.435862040">
        <ele>1497.000</ele>
        <time>2018-11-21T19:26:19Z</time>
        <name>WPT.619</name>
      </trkpt>
      <trkpt lat="32.145029950" lon="-109.435817640">
        <ele>1497.000</ele>
        <time>2018-11-21T19:26:23Z</time>
        <name>WPT.620</name>
      </trkpt>
      <trkpt lat="32.145023900" lon="-109.435775750">
        <ele>1497.000</ele>
        <time>2018-11-21T19:26:27Z</time>
        <name>WPT.621</name>
      </trkpt>
      <trkpt lat="32.145018770" lon="-109.435724880">
        <ele>1498.000</ele>
        <time>2018-11-21T19:26:32Z</time>
        <name>WPT.622</name>
      </trkpt>
      <trkpt lat="32.145019420" lon="-109.435681150">
        <ele>1497.000</ele>
        <time>2018-11-21T19:26:36Z</time>
        <name>WPT.623</name>
      </trkpt>
      <trkpt lat="32.145011120" lon="-109.435639290">
        <ele>1497.000</ele>
        <time>2018-11-21T19:26:41Z</time>
        <name>WPT.624</name>
      </trkpt>
      <trkpt lat="32.145020050" lon="-109.435584560">
        <ele>1497.000</ele>
        <time>2018-11-21T19:26:46Z</time>
        <name>WPT.625</name>
      </trkpt>
      <trkpt lat="32.145019970" lon="-109.435538370">
        <ele>1497.000</ele>
        <time>2018-11-21T19:26:50Z</time>
        <name>WPT.626</name>
      </trkpt>
      <trkpt lat="32.145029360" lon="-109.435495680">
        <ele>1496.000</ele>
        <time>2018-11-21T19:26:54Z</time>
        <name>WPT.627</name>
      </trkpt>
      <trkpt lat="32.145047990" lon="-109.435459240">
        <ele>1495.000</ele>
        <time>2018-11-21T19:26:58Z</time>
        <name>WPT.628</name>
      </trkpt>
      <trkpt lat="32.145073490" lon="-109.435421200">
        <ele>1495.000</ele>
        <time>2018-11-21T19:27:04Z</time>
        <name>WPT.629</name>
      </trkpt>
      <trkpt lat="32.145092060" lon="-109.435376870">
        <ele>1497.000</ele>
        <time>2018-11-21T19:27:09Z</time>
        <name>WPT.630</name>
      </trkpt>
      <trkpt lat="32.145090040" lon="-109.435334150">
        <ele>1497.000</ele>
        <time>2018-11-21T19:27:13Z</time>
        <name>WPT.631</name>
      </trkpt>
      <trkpt lat="32.145093110" lon="-109.435285850">
        <ele>1497.000</ele>
        <time>2018-11-21T19:27:18Z</time>
        <name>WPT.632</name>
      </trkpt>
      <trkpt lat="32.145074440" lon="-109.435326370">
        <ele>1496.000</ele>
        <time>2018-11-21T19:27:36Z</time>
        <name>WPT.633</name>
      </trkpt>
      <trkpt lat="32.145056110" lon="-109.435371420">
        <ele>1496.000</ele>
        <time>2018-11-21T19:27:42Z</time>
        <name>WPT.634</name>
      </trkpt>
      <trkpt lat="32.145032870" lon="-109.435412170">
        <ele>1495.000</ele>
        <time>2018-11-21T19:27:46Z</time>
        <name>WPT.635</name>
      </trkpt>
      <trkpt lat="32.144996760" lon="-109.435436710">
        <ele>1496.000</ele>
        <time>2018-11-21T19:27:51Z</time>
        <name>WPT.636</name>
      </trkpt>
      <trkpt lat="32.144960300" lon="-109.435446450">
        <ele>1496.000</ele>
        <time>2018-11-21T19:27:55Z</time>
        <name>WPT.637</name>
      </trkpt>
      <trkpt lat="32.144926020" lon="-109.435432310">
        <ele>1496.000</ele>
        <time>2018-11-21T19:28:00Z</time>
        <name>WPT.638</name>
      </trkpt>
      <trkpt lat="32.144904750" lon="-109.435394850">
        <ele>1496.000</ele>
        <time>2018-11-21T19:28:04Z</time>
        <name>WPT.639</name>
      </trkpt>
      <trkpt lat="32.144876980" lon="-109.435362750">
        <ele>1497.000</ele>
        <time>2018-11-21T19:28:08Z</time>
        <name>WPT.640</name>
      </trkpt>
      <trkpt lat="32.144837750" lon="-109.435346630">
        <ele>1497.000</ele>
        <time>2018-11-21T19:28:12Z</time>
        <name>WPT.641</name>
      </trkpt>
      <trkpt lat="32.144799290" lon="-109.435341780">
        <ele>1497.000</ele>
        <time>2018-11-21T19:28:16Z</time>
        <name>WPT.642</name>
      </trkpt>
      <trkpt lat="32.144756950" lon="-109.435348080">
        <ele>1497.000</ele>
        <time>2018-11-21T19:28:20Z</time>
        <name>WPT.643</name>
      </trkpt>
      <trkpt lat="32.144720660" lon="-109.435346220">
        <ele>1498.000</ele>
        <time>2018-11-21T19:28:26Z</time>
        <name>WPT.644</name>
      </trkpt>
      <trkpt lat="32.144681760" lon="-109.435365910">
        <ele>1499.000</ele>
        <time>2018-11-21T19:29:04Z</time>
        <name>WPT.645</name>
      </trkpt>
      <trkpt lat="32.144646280" lon="-109.435373680">
        <ele>1500.000</ele>
        <time>2018-11-21T19:29:07Z</time>
        <name>WPT.646</name>
      </trkpt>
      <trkpt lat="32.144606780" lon="-109.435377200">
        <ele>1500.000</ele>
        <time>2018-11-21T19:29:11Z</time>
        <name>WPT.647</name>
      </trkpt>
      <trkpt lat="32.144566840" lon="-109.435389370">
        <ele>1500.000</ele>
        <time>2018-11-21T19:29:16Z</time>
        <name>WPT.648</name>
      </trkpt>
      <trkpt lat="32.144530180" lon="-109.435385320">
        <ele>1500.000</ele>
        <time>2018-11-21T19:29:20Z</time>
        <name>WPT.649</name>
      </trkpt>
      <trkpt lat="32.144488640" lon="-109.435399890">
        <ele>1500.000</ele>
        <time>2018-11-21T19:29:29Z</time>
        <name>WPT.650</name>
      </trkpt>
      <trkpt lat="32.144521430" lon="-109.435419990">
        <ele>1501.000</ele>
        <time>2018-11-21T19:30:33Z</time>
        <name>WPT.651</name>
      </trkpt>
      <trkpt lat="32.144560670" lon="-109.435408660">
        <ele>1500.000</ele>
        <time>2018-11-21T19:30:38Z</time>
        <name>WPT.652</name>
      </trkpt>
      <trkpt lat="32.144607800" lon="-109.435407000">
        <ele>1500.000</ele>
        <time>2018-11-21T19:30:43Z</time>
        <name>WPT.653</name>
      </trkpt>
      <trkpt lat="32.144647140" lon="-109.435403740">
        <ele>1500.000</ele>
        <time>2018-11-21T19:30:49Z</time>
        <name>WPT.654</name>
      </trkpt>
      <trkpt lat="32.144688880" lon="-109.435387160">
        <ele>1499.000</ele>
        <time>2018-11-21T19:30:54Z</time>
        <name>WPT.655</name>
      </trkpt>
      <trkpt lat="32.144733150" lon="-109.435375940">
        <ele>1499.000</ele>
        <time>2018-11-21T19:30:59Z</time>
        <name>WPT.656</name>
      </trkpt>
      <trkpt lat="32.144775510" lon="-109.435374550">
        <ele>1499.000</ele>
        <time>2018-11-21T19:31:03Z</time>
        <name>WPT.657</name>
      </trkpt>
      <trkpt lat="32.144813440" lon="-109.435368690">
        <ele>1500.000</ele>
        <time>2018-11-21T19:31:07Z</time>
        <name>WPT.658</name>
      </trkpt>
      <trkpt lat="32.144850190" lon="-109.435368720">
        <ele>1499.000</ele>
        <time>2018-11-21T19:31:11Z</time>
        <name>WPT.659</name>
      </trkpt>
      <trkpt lat="32.144883680" lon="-109.435387620">
        <ele>1499.000</ele>
        <time>2018-11-21T19:31:16Z</time>
        <name>WPT.660</name>
      </trkpt>
      <trkpt lat="32.144898200" lon="-109.435427530">
        <ele>1498.000</ele>
        <time>2018-11-21T19:31:20Z</time>
        <name>WPT.661</name>
      </trkpt>
      <trkpt lat="32.144923210" lon="-109.435463510">
        <ele>1498.000</ele>
        <time>2018-11-21T19:31:26Z</time>
        <name>WPT.662</name>
      </trkpt>
      <trkpt lat="32.144967500" lon="-109.435473450">
        <ele>1497.000</ele>
        <time>2018-11-21T19:31:30Z</time>
        <name>WPT.663</name>
      </trkpt>
      <trkpt lat="32.144990390" lon="-109.435509720">
        <ele>1497.000</ele>
        <time>2018-11-21T19:31:35Z</time>
        <name>WPT.664</name>
      </trkpt>
      <trkpt lat="32.144977730" lon="-109.435556290">
        <ele>1497.000</ele>
        <time>2018-11-21T19:31:40Z</time>
        <name>WPT.665</name>
      </trkpt>
      <trkpt lat="32.144980320" lon="-109.435610160">
        <ele>1495.000</ele>
        <time>2018-11-21T19:31:45Z</time>
        <name>WPT.666</name>
      </trkpt>
      <trkpt lat="32.144984690" lon="-109.435654530">
        <ele>1495.000</ele>
        <time>2018-11-21T19:31:49Z</time>
        <name>WPT.667</name>
      </trkpt>
      <trkpt lat="32.144981410" lon="-109.435702620">
        <ele>1494.000</ele>
        <time>2018-11-21T19:31:53Z</time>
        <name>WPT.668</name>
      </trkpt>
      <trkpt lat="32.144987620" lon="-109.435747010">
        <ele>1494.000</ele>
        <time>2018-11-21T19:31:57Z</time>
        <name>WPT.669</name>
      </trkpt>
      <trkpt lat="32.144991100" lon="-109.435799260">
        <ele>1494.000</ele>
        <time>2018-11-21T19:32:01Z</time>
        <name>WPT.670</name>
      </trkpt>
      <trkpt lat="32.145005180" lon="-109.435840160">
        <ele>1492.000</ele>
        <time>2018-11-21T19:32:05Z</time>
        <name>WPT.671</name>
      </trkpt>
      <trkpt lat="32.145010630" lon="-109.435891080">
        <ele>1491.000</ele>
        <time>2018-11-21T19:32:10Z</time>
        <name>WPT.672</name>
      </trkpt>
      <trkpt lat="32.145017340" lon="-109.435935550">
        <ele>1492.000</ele>
        <time>2018-11-21T19:32:14Z</time>
        <name>WPT.673</name>
      </trkpt>
      <trkpt lat="32.145027390" lon="-109.435979940">
        <ele>1491.000</ele>
        <time>2018-11-21T19:32:18Z</time>
        <name>WPT.674</name>
      </trkpt>
      <trkpt lat="32.145034610" lon="-109.436022780">
        <ele>1492.000</ele>
        <time>2018-11-21T19:32:22Z</time>
        <name>WPT.675</name>
      </trkpt>
      <trkpt lat="32.145034740" lon="-109.436065960">
        <ele>1493.000</ele>
        <time>2018-11-21T19:32:25Z</time>
        <name>WPT.676</name>
      </trkpt>
      <trkpt lat="32.145043430" lon="-109.436112740">
        <ele>1492.000</ele>
        <time>2018-11-21T19:32:29Z</time>
        <name>WPT.677</name>
      </trkpt>
      <trkpt lat="32.145052490" lon="-109.436160850">
        <ele>1492.000</ele>
        <time>2018-11-21T19:32:33Z</time>
        <name>WPT.678</name>
      </trkpt>
      <trkpt lat="32.145068160" lon="-109.436199930">
        <ele>1492.000</ele>
        <time>2018-11-21T19:32:37Z</time>
        <name>WPT.679</name>
      </trkpt>
      <trkpt lat="32.145088230" lon="-109.436238860">
        <ele>1493.000</ele>
        <time>2018-11-21T19:32:41Z</time>
        <name>WPT.680</name>
      </trkpt>
      <trkpt lat="32.145107220" lon="-109.436282060">
        <ele>1492.000</ele>
        <time>2018-11-21T19:32:45Z</time>
        <name>WPT.681</name>
      </trkpt>
      <trkpt lat="32.145138090" lon="-109.436319140">
        <ele>1492.000</ele>
        <time>2018-11-21T19:32:49Z</time>
        <name>WPT.682</name>
      </trkpt>
      <trkpt lat="32.145168690" lon="-109.436348530">
        <ele>1492.000</ele>
        <time>2018-11-21T19:32:53Z</time>
        <name>WPT.683</name>
      </trkpt>
      <trkpt lat="32.145206170" lon="-109.436359870">
        <ele>1492.000</ele>
        <time>2018-11-21T19:32:57Z</time>
        <name>WPT.684</name>
      </trkpt>
      <trkpt lat="32.145252960" lon="-109.436363150">
        <ele>1494.000</ele>
        <time>2018-11-21T19:33:02Z</time>
        <name>WPT.685</name>
      </trkpt>
      <trkpt lat="32.145291430" lon="-109.436354550">
        <ele>1495.000</ele>
        <time>2018-11-21T19:33:06Z</time>
        <name>WPT.686</name>
      </trkpt>
      <trkpt lat="32.145336490" lon="-109.436341330">
        <ele>1496.000</ele>
        <time>2018-11-21T19:33:10Z</time>
        <name>WPT.687</name>
      </trkpt>
      <trkpt lat="32.145383300" lon="-109.436332050">
        <ele>1495.000</ele>
        <time>2018-11-21T19:33:14Z</time>
        <name>WPT.688</name>
      </trkpt>
      <trkpt lat="32.145422460" lon="-109.436333500">
        <ele>1495.000</ele>
        <time>2018-11-21T19:33:18Z</time>
        <name>WPT.689</name>
      </trkpt>
      <trkpt lat="32.145465670" lon="-109.436333940">
        <ele>1495.000</ele>
        <time>2018-11-21T19:33:22Z</time>
        <name>WPT.690</name>
      </trkpt>
      <trkpt lat="32.145506700" lon="-109.436327980">
        <ele>1494.000</ele>
        <time>2018-11-21T19:33:26Z</time>
        <name>WPT.691</name>
      </trkpt>
      <trkpt lat="32.145551240" lon="-109.436328300">
        <ele>1494.000</ele>
        <time>2018-11-21T19:33:30Z</time>
        <name>WPT.692</name>
      </trkpt>
      <trkpt lat="32.145590860" lon="-109.436324790">
        <ele>1495.000</ele>
        <time>2018-11-21T19:33:34Z</time>
        <name>WPT.693</name>
      </trkpt>
      <trkpt lat="32.145632630" lon="-109.436322280">
        <ele>1495.000</ele>
        <time>2018-11-21T19:33:38Z</time>
        <name>WPT.694</name>
      </trkpt>
      <trkpt lat="32.145674750" lon="-109.436314150">
        <ele>1495.000</ele>
        <time>2018-11-21T19:33:42Z</time>
        <name>WPT.695</name>
      </trkpt>
      <trkpt lat="32.145715840" lon="-109.436315490">
        <ele>1496.000</ele>
        <time>2018-11-21T19:33:46Z</time>
        <name>WPT.696</name>
      </trkpt>
      <trkpt lat="32.145739920" lon="-109.436362300">
        <ele>1496.000</ele>
        <time>2018-11-21T19:33:51Z</time>
        <name>WPT.697</name>
      </trkpt>
      <trkpt lat="32.145742850" lon="-109.436408300">
        <ele>1495.000</ele>
        <time>2018-11-21T19:33:57Z</time>
        <name>WPT.698</name>
      </trkpt>
      <trkpt lat="32.145744860" lon="-109.436451950">
        <ele>1495.000</ele>
        <time>2018-11-21T19:34:07Z</time>
        <name>WPT.699</name>
      </trkpt>
      <trkpt lat="32.145743220" lon="-109.436500350">
        <ele>1502.000</ele>
        <time>2018-11-21T19:53:17Z</time>
        <name>WPT.700</name>
      </trkpt>
      <trkpt lat="32.145778980" lon="-109.436517940">
        <ele>1499.000</ele>
        <time>2018-11-21T20:02:35Z</time>
        <name>WPT.701</name>
      </trkpt>
      <trkpt lat="32.145786680" lon="-109.436476400">
        <ele>1499.000</ele>
        <time>2018-11-21T20:02:40Z</time>
        <name>WPT.702</name>
      </trkpt>
      <trkpt lat="32.145751740" lon="-109.436452970">
        <ele>1500.000</ele>
        <time>2018-11-21T20:03:27Z</time>
        <name>WPT.703</name>
      </trkpt>
      <trkpt lat="32.145717160" lon="-109.436440760">
        <ele>1501.000</ele>
        <time>2018-11-21T20:06:27Z</time>
        <name>WPT.704</name>
      </trkpt>
      <trkpt lat="32.145748280" lon="-109.436467380">
        <ele>1499.000</ele>
        <time>2018-11-21T20:07:09Z</time>
        <name>WPT.705</name>
      </trkpt>
      <trkpt lat="32.145753880" lon="-109.436419240">
        <ele>1496.000</ele>
        <time>2018-11-21T20:08:12Z</time>
        <name>WPT.706</name>
      </trkpt>
      <trkpt lat="32.145716770" lon="-109.436424700">
        <ele>1496.000</ele>
        <time>2018-11-21T20:08:16Z</time>
        <name>WPT.707</name>
      </trkpt>
      <trkpt lat="32.145680530" lon="-109.436447890">
        <ele>1495.000</ele>
        <time>2018-11-21T20:08:20Z</time>
        <name>WPT.708</name>
      </trkpt>
      <trkpt lat="32.145651200" lon="-109.436473210">
        <ele>1494.000</ele>
        <time>2018-11-21T20:08:24Z</time>
        <name>WPT.709</name>
      </trkpt>
      <trkpt lat="32.145618330" lon="-109.436509010">
        <ele>1494.000</ele>
        <time>2018-11-21T20:08:28Z</time>
        <name>WPT.710</name>
      </trkpt>
      <trkpt lat="32.145594540" lon="-109.436550780">
        <ele>1494.000</ele>
        <time>2018-11-21T20:08:32Z</time>
        <name>WPT.711</name>
      </trkpt>
      <trkpt lat="32.145578200" lon="-109.436589240">
        <ele>1494.000</ele>
        <time>2018-11-21T20:08:36Z</time>
        <name>WPT.712</name>
      </trkpt>
      <trkpt lat="32.145561470" lon="-109.436629770">
        <ele>1494.000</ele>
        <time>2018-11-21T20:08:40Z</time>
        <name>WPT.713</name>
      </trkpt>
      <trkpt lat="32.145542420" lon="-109.436679700">
        <ele>1494.000</ele>
        <time>2018-11-21T20:08:44Z</time>
        <name>WPT.714</name>
      </trkpt>
      <trkpt lat="32.145555810" lon="-109.436720380">
        <ele>1494.000</ele>
        <time>2018-11-21T20:08:47Z</time>
        <name>WPT.715</name>
      </trkpt>
      <trkpt lat="32.145558420" lon="-109.436765850">
        <ele>1494.000</ele>
        <time>2018-11-21T20:08:51Z</time>
        <name>WPT.716</name>
      </trkpt>
      <trkpt lat="32.145564630" lon="-109.436811250">
        <ele>1493.000</ele>
        <time>2018-11-21T20:08:55Z</time>
        <name>WPT.717</name>
      </trkpt>
      <trkpt lat="32.145554530" lon="-109.436863220">
        <ele>1492.000</ele>
        <time>2018-11-21T20:08:59Z</time>
        <name>WPT.718</name>
      </trkpt>
      <trkpt lat="32.145541950" lon="-109.436914250">
        <ele>1491.000</ele>
        <time>2018-11-21T20:09:03Z</time>
        <name>WPT.719</name>
      </trkpt>
      <trkpt lat="32.145530480" lon="-109.436961560">
        <ele>1490.000</ele>
        <time>2018-11-21T20:09:07Z</time>
        <name>WPT.720</name>
      </trkpt>
      <trkpt lat="32.145507080" lon="-109.437000900">
        <ele>1490.000</ele>
        <time>2018-11-21T20:09:11Z</time>
        <name>WPT.721</name>
      </trkpt>
      <trkpt lat="32.145470850" lon="-109.437024210">
        <ele>1490.000</ele>
        <time>2018-11-21T20:09:15Z</time>
        <name>WPT.722</name>
      </trkpt>
      <trkpt lat="32.145435800" lon="-109.437040260">
        <ele>1489.000</ele>
        <time>2018-11-21T20:09:19Z</time>
        <name>WPT.723</name>
      </trkpt>
      <trkpt lat="32.145409960" lon="-109.437080350">
        <ele>1489.000</ele>
        <time>2018-11-21T20:09:23Z</time>
        <name>WPT.724</name>
      </trkpt>
      <trkpt lat="32.145391850" lon="-109.437124900">
        <ele>1489.000</ele>
        <time>2018-11-21T20:09:27Z</time>
        <name>WPT.725</name>
      </trkpt>
      <trkpt lat="32.145389010" lon="-109.437170620">
        <ele>1489.000</ele>
        <time>2018-11-21T20:09:30Z</time>
        <name>WPT.726</name>
      </trkpt>
      <trkpt lat="32.145377500" lon="-109.437221050">
        <ele>1488.000</ele>
        <time>2018-11-21T20:09:35Z</time>
        <name>WPT.727</name>
      </trkpt>
      <trkpt lat="32.145375880" lon="-109.437267980">
        <ele>1488.000</ele>
        <time>2018-11-21T20:09:39Z</time>
        <name>WPT.728</name>
      </trkpt>
      <trkpt lat="32.145377730" lon="-109.437311710">
        <ele>1488.000</ele>
        <time>2018-11-21T20:09:42Z</time>
        <name>WPT.729</name>
      </trkpt>
      <trkpt lat="32.145379390" lon="-109.437364140">
        <ele>1489.000</ele>
        <time>2018-11-21T20:09:46Z</time>
        <name>WPT.730</name>
      </trkpt>
      <trkpt lat="32.145366000" lon="-109.437410900">
        <ele>1488.000</ele>
        <time>2018-11-21T20:09:50Z</time>
        <name>WPT.731</name>
      </trkpt>
      <trkpt lat="32.145354360" lon="-109.437451070">
        <ele>1487.000</ele>
        <time>2018-11-21T20:09:53Z</time>
        <name>WPT.732</name>
      </trkpt>
      <trkpt lat="32.145336270" lon="-109.437498780">
        <ele>1488.000</ele>
        <time>2018-11-21T20:09:57Z</time>
        <name>WPT.733</name>
      </trkpt>
      <trkpt lat="32.145320410" lon="-109.437538050">
        <ele>1488.000</ele>
        <time>2018-11-21T20:10:01Z</time>
        <name>WPT.734</name>
      </trkpt>
      <trkpt lat="32.145305940" lon="-109.437580110">
        <ele>1487.000</ele>
        <time>2018-11-21T20:10:04Z</time>
        <name>WPT.735</name>
      </trkpt>
      <trkpt lat="32.145288900" lon="-109.437625640">
        <ele>1487.000</ele>
        <time>2018-11-21T20:10:08Z</time>
        <name>WPT.736</name>
      </trkpt>
      <trkpt lat="32.145277380" lon="-109.437677910">
        <ele>1487.000</ele>
        <time>2018-11-21T20:10:12Z</time>
        <name>WPT.737</name>
      </trkpt>
      <trkpt lat="32.145257110" lon="-109.437724450">
        <ele>1488.000</ele>
        <time>2018-11-21T20:10:16Z</time>
        <name>WPT.738</name>
      </trkpt>
      <trkpt lat="32.145234280" lon="-109.437760630">
        <ele>1488.000</ele>
        <time>2018-11-21T20:10:19Z</time>
        <name>WPT.739</name>
      </trkpt>
      <trkpt lat="32.145206800" lon="-109.437803230">
        <ele>1488.000</ele>
        <time>2018-11-21T20:10:23Z</time>
        <name>WPT.740</name>
      </trkpt>
      <trkpt lat="32.145178450" lon="-109.437849400">
        <ele>1488.000</ele>
        <time>2018-11-21T20:10:27Z</time>
        <name>WPT.741</name>
      </trkpt>
      <trkpt lat="32.145160960" lon="-109.437900220">
        <ele>1488.000</ele>
        <time>2018-11-21T20:10:31Z</time>
        <name>WPT.742</name>
      </trkpt>
      <trkpt lat="32.145135970" lon="-109.437931310">
        <ele>1488.000</ele>
        <time>2018-11-21T20:10:34Z</time>
        <name>WPT.743</name>
      </trkpt>
      <trkpt lat="32.145105900" lon="-109.437956840">
        <ele>1489.000</ele>
        <time>2018-11-21T20:10:37Z</time>
        <name>WPT.744</name>
      </trkpt>
      <trkpt lat="32.145063930" lon="-109.437987110">
        <ele>1489.000</ele>
        <time>2018-11-21T20:10:41Z</time>
        <name>WPT.745</name>
      </trkpt>
      <trkpt lat="32.145027570" lon="-109.438016870">
        <ele>1489.000</ele>
        <time>2018-11-21T20:10:45Z</time>
        <name>WPT.746</name>
      </trkpt>
      <trkpt lat="32.145002660" lon="-109.438047830">
        <ele>1489.000</ele>
        <time>2018-11-21T20:10:49Z</time>
        <name>WPT.747</name>
      </trkpt>
      <trkpt lat="32.144964600" lon="-109.438062910">
        <ele>1489.000</ele>
        <time>2018-11-21T20:10:53Z</time>
        <name>WPT.748</name>
      </trkpt>
      <trkpt lat="32.144936640" lon="-109.438092550">
        <ele>1487.000</ele>
        <time>2018-11-21T20:11:20Z</time>
        <name>WPT.749</name>
      </trkpt>
      <trkpt lat="32.144902230" lon="-109.438115700">
        <ele>1488.000</ele>
        <time>2018-11-21T20:11:24Z</time>
        <name>WPT.750</name>
      </trkpt>
      <trkpt lat="32.144864080" lon="-109.438143190">
        <ele>1488.000</ele>
        <time>2018-11-21T20:11:28Z</time>
        <name>WPT.751</name>
      </trkpt>
      <trkpt lat="32.144820870" lon="-109.438166370">
        <ele>1488.000</ele>
        <time>2018-11-21T20:11:32Z</time>
        <name>WPT.752</name>
      </trkpt>
      <trkpt lat="32.144786960" lon="-109.438190290">
        <ele>1487.000</ele>
        <time>2018-11-21T20:11:36Z</time>
        <name>WPT.753</name>
      </trkpt>
      <trkpt lat="32.144753920" lon="-109.438217250">
        <ele>1487.000</ele>
        <time>2018-11-21T20:11:40Z</time>
        <name>WPT.754</name>
      </trkpt>
      <trkpt lat="32.144712010" lon="-109.438224740">
        <ele>1488.000</ele>
        <time>2018-11-21T20:12:03Z</time>
        <name>WPT.755</name>
      </trkpt>
      <trkpt lat="32.144677840" lon="-109.438248290">
        <ele>1488.000</ele>
        <time>2018-11-21T20:12:06Z</time>
        <name>WPT.756</name>
      </trkpt>
      <trkpt lat="32.144642180" lon="-109.438283890">
        <ele>1488.000</ele>
        <time>2018-11-21T20:12:11Z</time>
        <name>WPT.757</name>
      </trkpt>
      <trkpt lat="32.144611200" lon="-109.438306910">
        <ele>1489.000</ele>
        <time>2018-11-21T20:12:14Z</time>
        <name>WPT.758</name>
      </trkpt>
      <trkpt lat="32.144573160" lon="-109.438335430">
        <ele>1488.000</ele>
        <time>2018-11-21T20:12:18Z</time>
        <name>WPT.759</name>
      </trkpt>
      <trkpt lat="32.144545470" lon="-109.438364910">
        <ele>1488.000</ele>
        <time>2018-11-21T20:12:22Z</time>
        <name>WPT.760</name>
      </trkpt>
      <trkpt lat="32.144523500" lon="-109.438404640">
        <ele>1488.000</ele>
        <time>2018-11-21T20:12:26Z</time>
        <name>WPT.761</name>
      </trkpt>
      <trkpt lat="32.144512220" lon="-109.438450880">
        <ele>1488.000</ele>
        <time>2018-11-21T20:12:30Z</time>
        <name>WPT.762</name>
      </trkpt>
      <trkpt lat="32.144507270" lon="-109.438504170">
        <ele>1488.000</ele>
        <time>2018-11-21T20:12:47Z</time>
        <name>WPT.763</name>
      </trkpt>
      <trkpt lat="32.144496270" lon="-109.438559090">
        <ele>1488.000</ele>
        <time>2018-11-21T20:12:51Z</time>
        <name>WPT.764</name>
      </trkpt>
      <trkpt lat="32.144493370" lon="-109.438613540">
        <ele>1487.000</ele>
        <time>2018-11-21T20:12:55Z</time>
        <name>WPT.765</name>
      </trkpt>
      <trkpt lat="32.144503610" lon="-109.438657160">
        <ele>1486.000</ele>
        <time>2018-11-21T20:12:59Z</time>
        <name>WPT.766</name>
      </trkpt>
      <trkpt lat="32.144524380" lon="-109.438701610">
        <ele>1485.000</ele>
        <time>2018-11-21T20:13:03Z</time>
        <name>WPT.767</name>
      </trkpt>
      <trkpt lat="32.144540570" lon="-109.438744810">
        <ele>1485.000</ele>
        <time>2018-11-21T20:13:07Z</time>
        <name>WPT.768</name>
      </trkpt>
      <trkpt lat="32.144563550" lon="-109.438791630">
        <ele>1485.000</ele>
        <time>2018-11-21T20:13:11Z</time>
        <name>WPT.769</name>
      </trkpt>
      <trkpt lat="32.144588570" lon="-109.438836280">
        <ele>1486.000</ele>
        <time>2018-11-21T20:13:15Z</time>
        <name>WPT.770</name>
      </trkpt>
      <trkpt lat="32.144614200" lon="-109.438870800">
        <ele>1486.000</ele>
        <time>2018-11-21T20:13:18Z</time>
        <name>WPT.771</name>
      </trkpt>
      <trkpt lat="32.144644350" lon="-109.438915150">
        <ele>1486.000</ele>
        <time>2018-11-21T20:13:22Z</time>
        <name>WPT.772</name>
      </trkpt>
      <trkpt lat="32.144666560" lon="-109.438958530">
        <ele>1486.000</ele>
        <time>2018-11-21T20:13:26Z</time>
        <name>WPT.773</name>
      </trkpt>
      <trkpt lat="32.144694210" lon="-109.438990110">
        <ele>1487.000</ele>
        <time>2018-11-21T20:13:29Z</time>
        <name>WPT.774</name>
      </trkpt>
      <trkpt lat="32.144717490" lon="-109.439025850">
        <ele>1487.000</ele>
        <time>2018-11-21T20:13:32Z</time>
        <name>WPT.775</name>
      </trkpt>
      <trkpt lat="32.144747970" lon="-109.439066500">
        <ele>1486.000</ele>
        <time>2018-11-21T20:13:36Z</time>
        <name>WPT.776</name>
      </trkpt>
      <trkpt lat="32.144771950" lon="-109.439101340">
        <ele>1487.000</ele>
        <time>2018-11-21T20:13:39Z</time>
        <name>WPT.777</name>
      </trkpt>
      <trkpt lat="32.144801120" lon="-109.439138220">
        <ele>1486.000</ele>
        <time>2018-11-21T20:13:43Z</time>
        <name>WPT.778</name>
      </trkpt>
      <trkpt lat="32.144825910" lon="-109.439180100">
        <ele>1486.000</ele>
        <time>2018-11-21T20:13:47Z</time>
        <name>WPT.779</name>
      </trkpt>
      <trkpt lat="32.144855930" lon="-109.439206510">
        <ele>1485.000</ele>
        <time>2018-11-21T20:13:51Z</time>
        <name>WPT.780</name>
      </trkpt>
      <trkpt lat="32.144882750" lon="-109.439244550">
        <ele>1484.000</ele>
        <time>2018-11-21T20:13:55Z</time>
        <name>WPT.781</name>
      </trkpt>
      <trkpt lat="32.144906040" lon="-109.439287900">
        <ele>1482.000</ele>
        <time>2018-11-21T20:14:00Z</time>
        <name>WPT.782</name>
      </trkpt>
      <trkpt lat="32.144924980" lon="-109.439326340">
        <ele>1482.000</ele>
        <time>2018-11-21T20:14:03Z</time>
        <name>WPT.783</name>
      </trkpt>
      <trkpt lat="32.144951130" lon="-109.439365400">
        <ele>1483.000</ele>
        <time>2018-11-21T20:14:07Z</time>
        <name>WPT.784</name>
      </trkpt>
      <trkpt lat="32.144986290" lon="-109.439393690">
        <ele>1480.000</ele>
        <time>2018-11-21T20:14:11Z</time>
        <name>WPT.785</name>
      </trkpt>
      <trkpt lat="32.145022740" lon="-109.439418500">
        <ele>1479.000</ele>
        <time>2018-11-21T20:14:15Z</time>
        <name>WPT.786</name>
      </trkpt>
      <trkpt lat="32.145044460" lon="-109.439454490">
        <ele>1480.000</ele>
        <time>2018-11-21T20:14:25Z</time>
        <name>WPT.787</name>
      </trkpt>
      <trkpt lat="32.145076240" lon="-109.439487900">
        <ele>1480.000</ele>
        <time>2018-11-21T20:14:34Z</time>
        <name>WPT.788</name>
      </trkpt>
      <trkpt lat="32.145112230" lon="-109.439527000">
        <ele>1480.000</ele>
        <time>2018-11-21T20:14:39Z</time>
        <name>WPT.789</name>
      </trkpt>
      <trkpt lat="32.145146990" lon="-109.439543400">
        <ele>1479.000</ele>
        <time>2018-11-21T20:14:43Z</time>
        <name>WPT.790</name>
      </trkpt>
      <trkpt lat="32.145173590" lon="-109.439585340">
        <ele>1480.000</ele>
        <time>2018-11-21T20:14:47Z</time>
        <name>WPT.791</name>
      </trkpt>
      <trkpt lat="32.145194470" lon="-109.439625300">
        <ele>1479.000</ele>
        <time>2018-11-21T20:14:51Z</time>
        <name>WPT.792</name>
      </trkpt>
      <trkpt lat="32.145213850" lon="-109.439679040">
        <ele>1480.000</ele>
        <time>2018-11-21T20:14:55Z</time>
        <name>WPT.793</name>
      </trkpt>
      <trkpt lat="32.145230690" lon="-109.439726470">
        <ele>1481.000</ele>
        <time>2018-11-21T20:14:59Z</time>
        <name>WPT.794</name>
      </trkpt>
      <trkpt lat="32.145257600" lon="-109.439762490">
        <ele>1481.000</ele>
        <time>2018-11-21T20:15:03Z</time>
        <name>WPT.795</name>
      </trkpt>
      <trkpt lat="32.145280290" lon="-109.439802940">
        <ele>1479.000</ele>
        <time>2018-11-21T20:15:07Z</time>
        <name>WPT.796</name>
      </trkpt>
      <trkpt lat="32.145292980" lon="-109.439845410">
        <ele>1480.000</ele>
        <time>2018-11-21T20:15:11Z</time>
        <name>WPT.797</name>
      </trkpt>
      <trkpt lat="32.145305200" lon="-109.439893320">
        <ele>1479.000</ele>
        <time>2018-11-21T20:15:15Z</time>
        <name>WPT.798</name>
      </trkpt>
      <trkpt lat="32.145319110" lon="-109.439937300">
        <ele>1479.000</ele>
        <time>2018-11-21T20:15:20Z</time>
        <name>WPT.799</name>
      </trkpt>
      <trkpt lat="32.145334560" lon="-109.439975690">
        <ele>1478.000</ele>
        <time>2018-11-21T20:15:24Z</time>
        <name>WPT.800</name>
      </trkpt>
      <trkpt lat="32.145354300" lon="-109.440013820">
        <ele>1476.000</ele>
        <time>2018-11-21T20:15:29Z</time>
        <name>WPT.801</name>
      </trkpt>
      <trkpt lat="32.145384130" lon="-109.440045750">
        <ele>1476.000</ele>
        <time>2018-11-21T20:15:33Z</time>
        <name>WPT.802</name>
      </trkpt>
      <trkpt lat="32.145406000" lon="-109.440084490">
        <ele>1476.000</ele>
        <time>2018-11-21T20:15:37Z</time>
        <name>WPT.803</name>
      </trkpt>
      <trkpt lat="32.145434080" lon="-109.440121260">
        <ele>1477.000</ele>
        <time>2018-11-21T20:15:41Z</time>
        <name>WPT.804</name>
      </trkpt>
      <trkpt lat="32.145455840" lon="-109.440160990">
        <ele>1476.000</ele>
        <time>2018-11-21T20:15:46Z</time>
        <name>WPT.805</name>
      </trkpt>
      <trkpt lat="32.145472630" lon="-109.440204310">
        <ele>1475.000</ele>
        <time>2018-11-21T20:15:50Z</time>
        <name>WPT.806</name>
      </trkpt>
      <trkpt lat="32.145485460" lon="-109.440248040">
        <ele>1473.000</ele>
        <time>2018-11-21T20:15:54Z</time>
        <name>WPT.807</name>
      </trkpt>
      <trkpt lat="32.145499430" lon="-109.440294430">
        <ele>1473.000</ele>
        <time>2018-11-21T20:15:59Z</time>
        <name>WPT.808</name>
      </trkpt>
      <trkpt lat="32.145515960" lon="-109.440343980">
        <ele>1473.000</ele>
        <time>2018-11-21T20:16:04Z</time>
        <name>WPT.809</name>
      </trkpt>
      <trkpt lat="32.145538040" lon="-109.440390650">
        <ele>1470.000</ele>
        <time>2018-11-21T20:16:13Z</time>
        <name>WPT.810</name>
      </trkpt>
      <trkpt lat="32.145552220" lon="-109.440437910">
        <ele>1468.000</ele>
        <time>2018-11-21T20:16:19Z</time>
        <name>WPT.811</name>
      </trkpt>
      <trkpt lat="32.145558860" lon="-109.440480230">
        <ele>1468.000</ele>
        <time>2018-11-21T20:16:24Z</time>
        <name>WPT.812</name>
      </trkpt>
      <trkpt lat="32.145575040" lon="-109.440524040">
        <ele>1470.000</ele>
        <time>2018-11-21T20:16:30Z</time>
        <name>WPT.813</name>
      </trkpt>
      <trkpt lat="32.145553060" lon="-109.440558020">
        <ele>1470.000</ele>
        <time>2018-11-21T20:16:37Z</time>
        <name>WPT.814</name>
      </trkpt>
      <trkpt lat="32.145553700" lon="-109.440603450">
        <ele>1469.000</ele>
        <time>2018-11-21T20:16:46Z</time>
        <name>WPT.815</name>
      </trkpt>
      <trkpt lat="32.145558040" lon="-109.440657000">
        <ele>1468.000</ele>
        <time>2018-11-21T20:16:57Z</time>
        <name>WPT.816</name>
      </trkpt>
      <trkpt lat="32.145585500" lon="-109.440701490">
        <ele>1465.000</ele>
        <time>2018-11-21T20:17:03Z</time>
        <name>WPT.817</name>
      </trkpt>
      <trkpt lat="32.145590800" lon="-109.440754870">
        <ele>1464.000</ele>
        <time>2018-11-21T20:17:09Z</time>
        <name>WPT.818</name>
      </trkpt>
      <trkpt lat="32.145581100" lon="-109.440805530">
        <ele>1463.000</ele>
        <time>2018-11-21T20:17:13Z</time>
        <name>WPT.819</name>
      </trkpt>
      <trkpt lat="32.145572080" lon="-109.440866700">
        <ele>1465.000</ele>
        <time>2018-11-21T20:17:18Z</time>
        <name>WPT.820</name>
      </trkpt>
      <trkpt lat="32.145587100" lon="-109.440909440">
        <ele>1462.000</ele>
        <time>2018-11-21T20:17:26Z</time>
        <name>WPT.821</name>
      </trkpt>
      <trkpt lat="32.145590690" lon="-109.440958490">
        <ele>1463.000</ele>
        <time>2018-11-21T20:17:30Z</time>
        <name>WPT.822</name>
      </trkpt>
      <trkpt lat="32.145602570" lon="-109.441011790">
        <ele>1462.000</ele>
        <time>2018-11-21T20:17:33Z</time>
        <name>WPT.823</name>
      </trkpt>
      <trkpt lat="32.145603430" lon="-109.441055030">
        <ele>1464.000</ele>
        <time>2018-11-21T20:17:37Z</time>
        <name>WPT.824</name>
      </trkpt>
      <trkpt lat="32.145604610" lon="-109.441102150">
        <ele>1464.000</ele>
        <time>2018-11-21T20:17:41Z</time>
        <name>WPT.825</name>
      </trkpt>
      <trkpt lat="32.145587010" lon="-109.441143200">
        <ele>1464.000</ele>
        <time>2018-11-21T20:17:45Z</time>
        <name>WPT.826</name>
      </trkpt>
      <trkpt lat="32.145566140" lon="-109.441186810">
        <ele>1467.000</ele>
        <time>2018-11-21T20:17:50Z</time>
        <name>WPT.827</name>
      </trkpt>
      <trkpt lat="32.145558340" lon="-109.441230940">
        <ele>1466.000</ele>
        <time>2018-11-21T20:17:54Z</time>
        <name>WPT.828</name>
      </trkpt>
      <trkpt lat="32.145550350" lon="-109.441282060">
        <ele>1466.000</ele>
        <time>2018-11-21T20:17:58Z</time>
        <name>WPT.829</name>
      </trkpt>
      <trkpt lat="32.145536790" lon="-109.441323090">
        <ele>1466.000</ele>
        <time>2018-11-21T20:18:02Z</time>
        <name>WPT.830</name>
      </trkpt>
      <trkpt lat="32.145540230" lon="-109.441367490">
        <ele>1466.000</ele>
        <time>2018-11-21T20:18:05Z</time>
        <name>WPT.831</name>
      </trkpt>
      <trkpt lat="32.145532740" lon="-109.441410400">
        <ele>1465.000</ele>
        <time>2018-11-21T20:18:08Z</time>
        <name>WPT.832</name>
      </trkpt>
      <trkpt lat="32.145513990" lon="-109.441452250">
        <ele>1464.000</ele>
        <time>2018-11-21T20:18:12Z</time>
        <name>WPT.833</name>
      </trkpt>
      <trkpt lat="32.145510700" lon="-109.441505960">
        <ele>1461.000</ele>
        <time>2018-11-21T20:18:17Z</time>
        <name>WPT.834</name>
      </trkpt>
      <trkpt lat="32.145492960" lon="-109.441550780">
        <ele>1463.000</ele>
        <time>2018-11-21T20:18:21Z</time>
        <name>WPT.835</name>
      </trkpt>
      <trkpt lat="32.145484810" lon="-109.441602360">
        <ele>1461.000</ele>
        <time>2018-11-21T20:18:26Z</time>
        <name>WPT.836</name>
      </trkpt>
      <trkpt lat="32.145478760" lon="-109.441646720">
        <ele>1462.000</ele>
        <time>2018-11-21T20:18:30Z</time>
        <name>WPT.837</name>
      </trkpt>
      <trkpt lat="32.145472950" lon="-109.441697550">
        <ele>1463.000</ele>
        <time>2018-11-21T20:18:34Z</time>
        <name>WPT.838</name>
      </trkpt>
      <trkpt lat="32.145468750" lon="-109.441741180">
        <ele>1463.000</ele>
        <time>2018-11-21T20:18:38Z</time>
        <name>WPT.839</name>
      </trkpt>
      <trkpt lat="32.145457720" lon="-109.441783360">
        <ele>1465.000</ele>
        <time>2018-11-21T20:18:46Z</time>
        <name>WPT.840</name>
      </trkpt>
      <trkpt lat="32.145465310" lon="-109.441827380">
        <ele>1463.000</ele>
        <time>2018-11-21T20:18:50Z</time>
        <name>WPT.841</name>
      </trkpt>
      <trkpt lat="32.145481470" lon="-109.441878390">
        <ele>1459.000</ele>
        <time>2018-11-21T20:18:53Z</time>
        <name>WPT.842</name>
      </trkpt>
      <trkpt lat="32.145504020" lon="-109.441914770">
        <ele>1459.000</ele>
        <time>2018-11-21T20:18:57Z</time>
        <name>WPT.843</name>
      </trkpt>
      <trkpt lat="32.145515630" lon="-109.441956740">
        <ele>1456.000</ele>
        <time>2018-11-21T20:19:02Z</time>
        <name>WPT.844</name>
      </trkpt>
      <trkpt lat="32.145540490" lon="-109.441992520">
        <ele>1459.000</ele>
        <time>2018-11-21T20:19:05Z</time>
        <name>WPT.845</name>
      </trkpt>
      <trkpt lat="32.145563950" lon="-109.442028070">
        <ele>1458.000</ele>
        <time>2018-11-21T20:19:09Z</time>
        <name>WPT.846</name>
      </trkpt>
      <trkpt lat="32.145581380" lon="-109.442067870">
        <ele>1458.000</ele>
        <time>2018-11-21T20:19:13Z</time>
        <name>WPT.847</name>
      </trkpt>
      <trkpt lat="32.145594420" lon="-109.442113220">
        <ele>1458.000</ele>
        <time>2018-11-21T20:19:19Z</time>
        <name>WPT.848</name>
      </trkpt>
      <trkpt lat="32.145578360" lon="-109.442162320">
        <ele>1458.000</ele>
        <time>2018-11-21T20:19:23Z</time>
        <name>WPT.849</name>
      </trkpt>
      <trkpt lat="32.145566410" lon="-109.442203590">
        <ele>1457.000</ele>
        <time>2018-11-21T20:19:26Z</time>
        <name>WPT.850</name>
      </trkpt>
      <trkpt lat="32.145560500" lon="-109.442256410">
        <ele>1456.000</ele>
        <time>2018-11-21T20:19:30Z</time>
        <name>WPT.851</name>
      </trkpt>
      <trkpt lat="32.145556570" lon="-109.442299380">
        <ele>1456.000</ele>
        <time>2018-11-21T20:19:33Z</time>
        <name>WPT.852</name>
      </trkpt>
      <trkpt lat="32.145562300" lon="-109.442348500">
        <ele>1454.000</ele>
        <time>2018-11-21T20:19:37Z</time>
        <name>WPT.853</name>
      </trkpt>
      <trkpt lat="32.145560220" lon="-109.442400650">
        <ele>1453.000</ele>
        <time>2018-11-21T20:19:41Z</time>
        <name>WPT.854</name>
      </trkpt>
      <trkpt lat="32.145563850" lon="-109.442443610">
        <ele>1452.000</ele>
        <time>2018-11-21T20:19:45Z</time>
        <name>WPT.855</name>
      </trkpt>
      <trkpt lat="32.145568130" lon="-109.442488770">
        <ele>1451.000</ele>
        <time>2018-11-21T20:19:52Z</time>
        <name>WPT.856</name>
      </trkpt>
      <trkpt lat="32.145569110" lon="-109.442531570">
        <ele>1450.000</ele>
        <time>2018-11-21T20:19:56Z</time>
        <name>WPT.857</name>
      </trkpt>
      <trkpt lat="32.145575550" lon="-109.442578380">
        <ele>1450.000</ele>
        <time>2018-11-21T20:20:00Z</time>
        <name>WPT.858</name>
      </trkpt>
      <trkpt lat="32.145601430" lon="-109.442617620">
        <ele>1448.000</ele>
        <time>2018-11-21T20:20:04Z</time>
        <name>WPT.859</name>
      </trkpt>
      <trkpt lat="32.145624320" lon="-109.442653180">
        <ele>1450.000</ele>
        <time>2018-11-21T20:20:07Z</time>
        <name>WPT.860</name>
      </trkpt>
      <trkpt lat="32.145650190" lon="-109.442688850">
        <ele>1450.000</ele>
        <time>2018-11-21T20:20:11Z</time>
        <name>WPT.861</name>
      </trkpt>
      <trkpt lat="32.145672030" lon="-109.442730250">
        <ele>1449.000</ele>
        <time>2018-11-21T20:20:16Z</time>
        <name>WPT.862</name>
      </trkpt>
      <trkpt lat="32.145690500" lon="-109.442773640">
        <ele>1449.000</ele>
        <time>2018-11-21T20:20:19Z</time>
        <name>WPT.863</name>
      </trkpt>
      <trkpt lat="32.145717740" lon="-109.442818840">
        <ele>1451.000</ele>
        <time>2018-11-21T20:20:23Z</time>
        <name>WPT.864</name>
      </trkpt>
      <trkpt lat="32.145736620" lon="-109.442868530">
        <ele>1451.000</ele>
        <time>2018-11-21T20:20:27Z</time>
        <name>WPT.865</name>
      </trkpt>
      <trkpt lat="32.145763280" lon="-109.442910830">
        <ele>1451.000</ele>
        <time>2018-11-21T20:20:31Z</time>
        <name>WPT.866</name>
      </trkpt>
      <trkpt lat="32.145786370" lon="-109.442959960">
        <ele>1452.000</ele>
        <time>2018-11-21T20:20:35Z</time>
        <name>WPT.867</name>
      </trkpt>
      <trkpt lat="32.145812400" lon="-109.442999450">
        <ele>1452.000</ele>
        <time>2018-11-21T20:20:39Z</time>
        <name>WPT.868</name>
      </trkpt>
      <trkpt lat="32.145835940" lon="-109.443041640">
        <ele>1453.000</ele>
        <time>2018-11-21T20:20:43Z</time>
        <name>WPT.869</name>
      </trkpt>
      <trkpt lat="32.145857350" lon="-109.443081170">
        <ele>1453.000</ele>
        <time>2018-11-21T20:20:46Z</time>
        <name>WPT.870</name>
      </trkpt>
      <trkpt lat="32.145883770" lon="-109.443127840">
        <ele>1453.000</ele>
        <time>2018-11-21T20:20:50Z</time>
        <name>WPT.871</name>
      </trkpt>
      <trkpt lat="32.145908740" lon="-109.443170540">
        <ele>1453.000</ele>
        <time>2018-11-21T20:20:54Z</time>
        <name>WPT.872</name>
      </trkpt>
      <trkpt lat="32.145927360" lon="-109.443218720">
        <ele>1453.000</ele>
        <time>2018-11-21T20:20:58Z</time>
        <name>WPT.873</name>
      </trkpt>
      <trkpt lat="32.145939240" lon="-109.443268290">
        <ele>1452.000</ele>
        <time>2018-11-21T20:21:02Z</time>
        <name>WPT.874</name>
      </trkpt>
      <trkpt lat="32.145957040" lon="-109.443318080">
        <ele>1452.000</ele>
        <time>2018-11-21T20:21:06Z</time>
        <name>WPT.875</name>
      </trkpt>
      <trkpt lat="32.145978550" lon="-109.443353360">
        <ele>1453.000</ele>
        <time>2018-11-21T20:21:28Z</time>
        <name>WPT.876</name>
      </trkpt>
      <trkpt lat="32.146005240" lon="-109.443387020">
        <ele>1453.000</ele>
        <time>2018-11-21T20:21:32Z</time>
        <name>WPT.877</name>
      </trkpt>
      <trkpt lat="32.146029470" lon="-109.443423150">
        <ele>1453.000</ele>
        <time>2018-11-21T20:21:35Z</time>
        <name>WPT.878</name>
      </trkpt>
      <trkpt lat="32.146055390" lon="-109.443464760">
        <ele>1453.000</ele>
        <time>2018-11-21T20:21:39Z</time>
        <name>WPT.879</name>
      </trkpt>
      <trkpt lat="32.146059410" lon="-109.443515960">
        <ele>1452.000</ele>
        <time>2018-11-21T20:21:44Z</time>
        <name>WPT.880</name>
      </trkpt>
      <trkpt lat="32.146059710" lon="-109.443567460">
        <ele>1452.000</ele>
        <time>2018-11-21T20:21:48Z</time>
        <name>WPT.881</name>
      </trkpt>
      <trkpt lat="32.146069670" lon="-109.443618830">
        <ele>1451.000</ele>
        <time>2018-11-21T20:21:52Z</time>
        <name>WPT.882</name>
      </trkpt>
      <trkpt lat="32.146087310" lon="-109.443675070">
        <ele>1450.000</ele>
        <time>2018-11-21T20:21:56Z</time>
        <name>WPT.883</name>
      </trkpt>
      <trkpt lat="32.146104510" lon="-109.443718460">
        <ele>1450.000</ele>
        <time>2018-11-21T20:21:59Z</time>
        <name>WPT.884</name>
      </trkpt>
      <trkpt lat="32.146126790" lon="-109.443763160">
        <ele>1450.000</ele>
        <time>2018-11-21T20:22:03Z</time>
        <name>WPT.885</name>
      </trkpt>
      <trkpt lat="32.146138970" lon="-109.443817670">
        <ele>1449.000</ele>
        <time>2018-11-21T20:22:07Z</time>
        <name>WPT.886</name>
      </trkpt>
      <trkpt lat="32.146145210" lon="-109.443863920">
        <ele>1449.000</ele>
        <time>2018-11-21T20:22:10Z</time>
        <name>WPT.887</name>
      </trkpt>
      <trkpt lat="32.146150540" lon="-109.443909670">
        <ele>1449.000</ele>
        <time>2018-11-21T20:22:13Z</time>
        <name>WPT.888</name>
      </trkpt>
      <trkpt lat="32.146164670" lon="-109.443960310">
        <ele>1447.000</ele>
        <time>2018-11-21T20:22:17Z</time>
        <name>WPT.889</name>
      </trkpt>
      <trkpt lat="32.146167020" lon="-109.444012890">
        <ele>1446.000</ele>
        <time>2018-11-21T20:22:21Z</time>
        <name>WPT.890</name>
      </trkpt>
      <trkpt lat="32.146179780" lon="-109.444069180">
        <ele>1447.000</ele>
        <time>2018-11-21T20:22:25Z</time>
        <name>WPT.891</name>
      </trkpt>
      <trkpt lat="32.146192130" lon="-109.444109520">
        <ele>1446.000</ele>
        <time>2018-11-21T20:22:28Z</time>
        <name>WPT.892</name>
      </trkpt>
      <trkpt lat="32.146198380" lon="-109.444152800">
        <ele>1447.000</ele>
        <time>2018-11-21T20:22:31Z</time>
        <name>WPT.893</name>
      </trkpt>
      <trkpt lat="32.146210110" lon="-109.444195120">
        <ele>1446.000</ele>
        <time>2018-11-21T20:22:34Z</time>
        <name>WPT.894</name>
      </trkpt>
      <trkpt lat="32.146229930" lon="-109.444245380">
        <ele>1446.000</ele>
        <time>2018-11-21T20:22:38Z</time>
        <name>WPT.895</name>
      </trkpt>
      <trkpt lat="32.146253040" lon="-109.444296470">
        <ele>1446.000</ele>
        <time>2018-11-21T20:22:42Z</time>
        <name>WPT.896</name>
      </trkpt>
      <trkpt lat="32.146272250" lon="-109.444340650">
        <ele>1446.000</ele>
        <time>2018-11-21T20:22:46Z</time>
        <name>WPT.897</name>
      </trkpt>
      <trkpt lat="32.146286060" lon="-109.444393950">
        <ele>1446.000</ele>
        <time>2018-11-21T20:22:51Z</time>
        <name>WPT.898</name>
      </trkpt>
      <trkpt lat="32.146300190" lon="-109.444435290">
        <ele>1447.000</ele>
        <time>2018-11-21T20:22:54Z</time>
        <name>WPT.899</name>
      </trkpt>
      <trkpt lat="32.146327030" lon="-109.444465130">
        <ele>1447.000</ele>
        <time>2018-11-21T20:22:57Z</time>
        <name>WPT.900</name>
      </trkpt>
      <trkpt lat="32.146356330" lon="-109.444497580">
        <ele>1447.000</ele>
        <time>2018-11-21T20:23:00Z</time>
        <name>WPT.901</name>
      </trkpt>
      <trkpt lat="32.146383570" lon="-109.444532090">
        <ele>1445.000</ele>
        <time>2018-11-21T20:23:04Z</time>
        <name>WPT.902</name>
      </trkpt>
      <trkpt lat="32.146408250" lon="-109.444567820">
        <ele>1445.000</ele>
        <time>2018-11-21T20:23:08Z</time>
        <name>WPT.903</name>
      </trkpt>
      <trkpt lat="32.146417200" lon="-109.444617830">
        <ele>1444.000</ele>
        <time>2018-11-21T20:23:23Z</time>
        <name>WPT.904</name>
      </trkpt>
      <trkpt lat="32.146433230" lon="-109.444667390">
        <ele>1444.000</ele>
        <time>2018-11-21T20:23:26Z</time>
        <name>WPT.905</name>
      </trkpt>
      <trkpt lat="32.146450120" lon="-109.444710140">
        <ele>1445.000</ele>
        <time>2018-11-21T20:23:29Z</time>
        <name>WPT.906</name>
      </trkpt>
      <trkpt lat="32.146462210" lon="-109.444753870">
        <ele>1445.000</ele>
        <time>2018-11-21T20:23:32Z</time>
        <name>WPT.907</name>
      </trkpt>
      <trkpt lat="32.146488660" lon="-109.444801690">
        <ele>1445.000</ele>
        <time>2018-11-21T20:23:36Z</time>
        <name>WPT.908</name>
      </trkpt>
      <trkpt lat="32.146517010" lon="-109.444839560">
        <ele>1443.000</ele>
        <time>2018-11-21T20:23:40Z</time>
        <name>WPT.909</name>
      </trkpt>
      <trkpt lat="32.146543690" lon="-109.444874720">
        <ele>1443.000</ele>
        <time>2018-11-21T20:23:43Z</time>
        <name>WPT.910</name>
      </trkpt>
      <trkpt lat="32.146558990" lon="-109.444924130">
        <ele>1444.000</ele>
        <time>2018-11-21T20:23:48Z</time>
        <name>WPT.911</name>
      </trkpt>
      <trkpt lat="32.146579400" lon="-109.444972440">
        <ele>1446.000</ele>
        <time>2018-11-21T20:24:06Z</time>
        <name>WPT.912</name>
      </trkpt>
      <trkpt lat="32.146597280" lon="-109.445027840">
        <ele>1446.000</ele>
        <time>2018-11-21T20:24:10Z</time>
        <name>WPT.913</name>
      </trkpt>
      <trkpt lat="32.146627750" lon="-109.445068310">
        <ele>1444.000</ele>
        <time>2018-11-21T20:24:14Z</time>
        <name>WPT.914</name>
      </trkpt>
      <trkpt lat="32.146658390" lon="-109.445102730">
        <ele>1443.000</ele>
        <time>2018-11-21T20:24:18Z</time>
        <name>WPT.915</name>
      </trkpt>
      <trkpt lat="32.146679660" lon="-109.445146350">
        <ele>1444.000</ele>
        <time>2018-11-21T20:24:21Z</time>
        <name>WPT.916</name>
      </trkpt>
      <trkpt lat="32.146688390" lon="-109.445188420">
        <ele>1444.000</ele>
        <time>2018-11-21T20:24:24Z</time>
        <name>WPT.917</name>
      </trkpt>
      <trkpt lat="32.146705830" lon="-109.445241220">
        <ele>1445.000</ele>
        <time>2018-11-21T20:24:27Z</time>
        <name>WPT.918</name>
      </trkpt>
      <trkpt lat="32.146724720" lon="-109.445283070">
        <ele>1445.000</ele>
        <time>2018-11-21T20:24:30Z</time>
        <name>WPT.919</name>
      </trkpt>
      <trkpt lat="32.146750050" lon="-109.445321450">
        <ele>1444.000</ele>
        <time>2018-11-21T20:24:33Z</time>
        <name>WPT.920</name>
      </trkpt>
      <trkpt lat="32.146770180" lon="-109.445365120">
        <ele>1444.000</ele>
        <time>2018-11-21T20:24:36Z</time>
        <name>WPT.921</name>
      </trkpt>
      <trkpt lat="32.146792590" lon="-109.445402450">
        <ele>1444.000</ele>
        <time>2018-11-21T20:24:39Z</time>
        <name>WPT.922</name>
      </trkpt>
      <trkpt lat="32.146822670" lon="-109.445446610">
        <ele>1443.000</ele>
        <time>2018-11-21T20:24:43Z</time>
        <name>WPT.923</name>
      </trkpt>
      <trkpt lat="32.146843140" lon="-109.445483980">
        <ele>1443.000</ele>
        <time>2018-11-21T20:24:46Z</time>
        <name>WPT.924</name>
      </trkpt>
      <trkpt lat="32.146865490" lon="-109.445531450">
        <ele>1443.000</ele>
        <time>2018-11-21T20:24:50Z</time>
        <name>WPT.925</name>
      </trkpt>
      <trkpt lat="32.146873200" lon="-109.445585310">
        <ele>1442.000</ele>
        <time>2018-11-21T20:24:54Z</time>
        <name>WPT.926</name>
      </trkpt>
      <trkpt lat="32.146879880" lon="-109.445632400">
        <ele>1442.000</ele>
        <time>2018-11-21T20:24:57Z</time>
        <name>WPT.927</name>
      </trkpt>
      <trkpt lat="32.146899610" lon="-109.445671780">
        <ele>1442.000</ele>
        <time>2018-11-21T20:25:00Z</time>
        <name>WPT.928</name>
      </trkpt>
      <trkpt lat="32.146913990" lon="-109.445712270">
        <ele>1442.000</ele>
        <time>2018-11-21T20:25:03Z</time>
        <name>WPT.929</name>
      </trkpt>
      <trkpt lat="32.146925740" lon="-109.445753140">
        <ele>1441.000</ele>
        <time>2018-11-21T20:25:06Z</time>
        <name>WPT.930</name>
      </trkpt>
      <trkpt lat="32.146932400" lon="-109.445796570">
        <ele>1441.000</ele>
        <time>2018-11-21T20:25:09Z</time>
        <name>WPT.931</name>
      </trkpt>
      <trkpt lat="32.146943620" lon="-109.445840980">
        <ele>1441.000</ele>
        <time>2018-11-21T20:25:12Z</time>
        <name>WPT.932</name>
      </trkpt>
      <trkpt lat="32.146955800" lon="-109.445881040">
        <ele>1441.000</ele>
        <time>2018-11-21T20:25:15Z</time>
        <name>WPT.933</name>
      </trkpt>
      <trkpt lat="32.146971150" lon="-109.445921430">
        <ele>1441.000</ele>
        <time>2018-11-21T20:25:18Z</time>
        <name>WPT.934</name>
      </trkpt>
      <trkpt lat="32.146959830" lon="-109.445974110">
        <ele>1441.000</ele>
        <time>2018-11-21T20:25:22Z</time>
        <name>WPT.935</name>
      </trkpt>
      <trkpt lat="32.146974070" lon="-109.446028390">
        <ele>1442.000</ele>
        <time>2018-11-21T20:25:26Z</time>
        <name>WPT.936</name>
      </trkpt>
      <trkpt lat="32.146987870" lon="-109.446084710">
        <ele>1443.000</ele>
        <time>2018-11-21T20:25:30Z</time>
        <name>WPT.937</name>
      </trkpt>
      <trkpt lat="32.147008560" lon="-109.446124630">
        <ele>1443.000</ele>
        <time>2018-11-21T20:25:33Z</time>
        <name>WPT.938</name>
      </trkpt>
      <trkpt lat="32.147032590" lon="-109.446163440">
        <ele>1441.000</ele>
        <time>2018-11-21T20:25:37Z</time>
        <name>WPT.939</name>
      </trkpt>
      <trkpt lat="32.147054970" lon="-109.446211510">
        <ele>1441.000</ele>
        <time>2018-11-21T20:25:41Z</time>
        <name>WPT.940</name>
      </trkpt>
      <trkpt lat="32.147084850" lon="-109.446256170">
        <ele>1441.000</ele>
        <time>2018-11-21T20:25:45Z</time>
        <name>WPT.941</name>
      </trkpt>
      <trkpt lat="32.147107960" lon="-109.446301460">
        <ele>1441.000</ele>
        <time>2018-11-21T20:25:49Z</time>
        <name>WPT.942</name>
      </trkpt>
      <trkpt lat="32.147122240" lon="-109.446344240">
        <ele>1440.000</ele>
        <time>2018-11-21T20:25:53Z</time>
        <name>WPT.943</name>
      </trkpt>
      <trkpt lat="32.147135070" lon="-109.446389940">
        <ele>1440.000</ele>
        <time>2018-11-21T20:25:57Z</time>
        <name>WPT.944</name>
      </trkpt>
      <trkpt lat="32.147139830" lon="-109.446437890">
        <ele>1440.000</ele>
        <time>2018-11-21T20:26:01Z</time>
        <name>WPT.945</name>
      </trkpt>
      <trkpt lat="32.147137320" lon="-109.446490040">
        <ele>1440.000</ele>
        <time>2018-11-21T20:26:05Z</time>
        <name>WPT.946</name>
      </trkpt>
      <trkpt lat="32.147122010" lon="-109.446538510">
        <ele>1440.000</ele>
        <time>2018-11-21T20:26:10Z</time>
        <name>WPT.947</name>
      </trkpt>
      <trkpt lat="32.147097140" lon="-109.446583590">
        <ele>1439.000</ele>
        <time>2018-11-21T20:26:15Z</time>
        <name>WPT.948</name>
      </trkpt>
      <trkpt lat="32.147071600" lon="-109.446625020">
        <ele>1439.000</ele>
        <time>2018-11-21T20:26:19Z</time>
        <name>WPT.949</name>
      </trkpt>
      <trkpt lat="32.147058650" lon="-109.446676950">
        <ele>1439.000</ele>
        <time>2018-11-21T20:26:23Z</time>
        <name>WPT.950</name>
      </trkpt>
      <trkpt lat="32.147048650" lon="-109.446720480">
        <ele>1438.000</ele>
        <time>2018-11-21T20:26:27Z</time>
        <name>WPT.951</name>
      </trkpt>
      <trkpt lat="32.147037110" lon="-109.446767700">
        <ele>1439.000</ele>
        <time>2018-11-21T20:26:30Z</time>
        <name>WPT.952</name>
      </trkpt>
      <trkpt lat="32.147020460" lon="-109.446815440">
        <ele>1439.000</ele>
        <time>2018-11-21T20:26:34Z</time>
        <name>WPT.953</name>
      </trkpt>
      <trkpt lat="32.147002780" lon="-109.446856110">
        <ele>1438.000</ele>
        <time>2018-11-21T20:26:37Z</time>
        <name>WPT.954</name>
      </trkpt>
      <trkpt lat="32.146988660" lon="-109.446910230">
        <ele>1438.000</ele>
        <time>2018-11-21T20:26:41Z</time>
        <name>WPT.955</name>
      </trkpt>
      <trkpt lat="32.146959040" lon="-109.446956360">
        <ele>1438.000</ele>
        <time>2018-11-21T20:26:45Z</time>
        <name>WPT.956</name>
      </trkpt>
      <trkpt lat="32.146936580" lon="-109.446994710">
        <ele>1437.000</ele>
        <time>2018-11-21T20:26:48Z</time>
        <name>WPT.957</name>
      </trkpt>
      <trkpt lat="32.146916720" lon="-109.447039160">
        <ele>1437.000</ele>
        <time>2018-11-21T20:26:52Z</time>
        <name>WPT.958</name>
      </trkpt>
      <trkpt lat="32.146911050" lon="-109.447086540">
        <ele>1436.000</ele>
        <time>2018-11-21T20:26:55Z</time>
        <name>WPT.959</name>
      </trkpt>
      <trkpt lat="32.146899070" lon="-109.447126670">
        <ele>1436.000</ele>
        <time>2018-11-21T20:26:58Z</time>
        <name>WPT.960</name>
      </trkpt>
      <trkpt lat="32.146881590" lon="-109.447168320">
        <ele>1437.000</ele>
        <time>2018-11-21T20:27:01Z</time>
        <name>WPT.961</name>
      </trkpt>
      <trkpt lat="32.146869300" lon="-109.447219900">
        <ele>1436.000</ele>
        <time>2018-11-21T20:27:05Z</time>
        <name>WPT.962</name>
      </trkpt>
      <trkpt lat="32.146877550" lon="-109.447265550">
        <ele>1436.000</ele>
        <time>2018-11-21T20:27:08Z</time>
        <name>WPT.963</name>
      </trkpt>
      <trkpt lat="32.146893820" lon="-109.447314610">
        <ele>1436.000</ele>
        <time>2018-11-21T20:27:12Z</time>
        <name>WPT.964</name>
      </trkpt>
      <trkpt lat="32.146906250" lon="-109.447363780">
        <ele>1436.000</ele>
        <time>2018-11-21T20:27:16Z</time>
        <name>WPT.965</name>
      </trkpt>
      <trkpt lat="32.146922400" lon="-109.447416070">
        <ele>1437.000</ele>
        <time>2018-11-21T20:27:20Z</time>
        <name>WPT.966</name>
      </trkpt>
      <trkpt lat="32.146951530" lon="-109.447450810">
        <ele>1437.000</ele>
        <time>2018-11-21T20:27:24Z</time>
        <name>WPT.967</name>
      </trkpt>
      <trkpt lat="32.146964590" lon="-109.447493200">
        <ele>1438.000</ele>
        <time>2018-11-21T20:27:29Z</time>
        <name>WPT.968</name>
      </trkpt>
      <trkpt lat="32.146929940" lon="-109.447522390">
        <ele>1438.000</ele>
        <time>2018-11-21T20:27:33Z</time>
        <name>WPT.969</name>
      </trkpt>
      <trkpt lat="32.146900210" lon="-109.447553420">
        <ele>1439.000</ele>
        <time>2018-11-21T20:27:37Z</time>
        <name>WPT.970</name>
      </trkpt>
      <trkpt lat="32.146858600" lon="-109.447584530">
        <ele>1439.000</ele>
        <time>2018-11-21T20:27:42Z</time>
        <name>WPT.971</name>
      </trkpt>
      <trkpt lat="32.146826570" lon="-109.447617560">
        <ele>1439.000</ele>
        <time>2018-11-21T20:27:46Z</time>
        <name>WPT.972</name>
      </trkpt>
      <trkpt lat="32.146818080" lon="-109.447660550">
        <ele>1438.000</ele>
        <time>2018-11-21T20:27:50Z</time>
        <name>WPT.973</name>
      </trkpt>
      <trkpt lat="32.146809290" lon="-109.447708810">
        <ele>1437.000</ele>
        <time>2018-11-21T20:28:06Z</time>
        <name>WPT.974</name>
      </trkpt>
      <trkpt lat="32.146805980" lon="-109.447756690">
        <ele>1437.000</ele>
        <time>2018-11-21T20:28:10Z</time>
        <name>WPT.975</name>
      </trkpt>
      <trkpt lat="32.146805930" lon="-109.447801580">
        <ele>1437.000</ele>
        <time>2018-11-21T20:28:13Z</time>
        <name>WPT.976</name>
      </trkpt>
      <trkpt lat="32.146814120" lon="-109.447848690">
        <ele>1438.000</ele>
        <time>2018-11-21T20:28:17Z</time>
        <name>WPT.977</name>
      </trkpt>
      <trkpt lat="32.146819770" lon="-109.447897880">
        <ele>1438.000</ele>
        <time>2018-11-21T20:28:21Z</time>
        <name>WPT.978</name>
      </trkpt>
      <trkpt lat="32.146826560" lon="-109.447947640">
        <ele>1438.000</ele>
        <time>2018-11-21T20:28:25Z</time>
        <name>WPT.979</name>
      </trkpt>
      <trkpt lat="32.146848780" lon="-109.447994130">
        <ele>1438.000</ele>
        <time>2018-11-21T20:28:29Z</time>
        <name>WPT.980</name>
      </trkpt>
      <trkpt lat="32.146877140" lon="-109.448029490">
        <ele>1437.000</ele>
        <time>2018-11-21T20:28:33Z</time>
        <name>WPT.981</name>
      </trkpt>
      <trkpt lat="32.146915060" lon="-109.448064530">
        <ele>1435.000</ele>
        <time>2018-11-21T20:28:38Z</time>
        <name>WPT.982</name>
      </trkpt>
      <trkpt lat="32.146957770" lon="-109.448081050">
        <ele>1434.000</ele>
        <time>2018-11-21T20:28:42Z</time>
        <name>WPT.983</name>
      </trkpt>
      <trkpt lat="32.147004350" lon="-109.448082190">
        <ele>1435.000</ele>
        <time>2018-11-21T20:28:46Z</time>
        <name>WPT.984</name>
      </trkpt>
      <trkpt lat="32.147011090" lon="-109.448127390">
        <ele>1434.000</ele>
        <time>2018-11-21T20:28:50Z</time>
        <name>WPT.985</name>
      </trkpt>
      <trkpt lat="32.147011770" lon="-109.448178930">
        <ele>1436.000</ele>
        <time>2018-11-21T20:28:55Z</time>
        <name>WPT.986</name>
      </trkpt>
      <trkpt lat="32.147013590" lon="-109.448234610">
        <ele>1437.000</ele>
        <time>2018-11-21T20:28:59Z</time>
        <name>WPT.987</name>
      </trkpt>
      <trkpt lat="32.147026000" lon="-109.448278900">
        <ele>1437.000</ele>
        <time>2018-11-21T20:29:02Z</time>
        <name>WPT.988</name>
      </trkpt>
      <trkpt lat="32.147054430" lon="-109.448317960">
        <ele>1436.000</ele>
        <time>2018-11-21T20:29:06Z</time>
        <name>WPT.989</name>
      </trkpt>
      <trkpt lat="32.147092970" lon="-109.448331730">
        <ele>1434.000</ele>
        <time>2018-11-21T20:29:09Z</time>
        <name>WPT.990</name>
      </trkpt>
      <trkpt lat="32.147135800" lon="-109.448355440">
        <ele>1437.000</ele>
        <time>2018-11-21T20:29:13Z</time>
        <name>WPT.991</name>
      </trkpt>
      <trkpt lat="32.147180240" lon="-109.448348120">
        <ele>1437.000</ele>
        <time>2018-11-21T20:29:16Z</time>
        <name>WPT.992</name>
      </trkpt>
      <trkpt lat="32.147223190" lon="-109.448355390">
        <ele>1436.000</ele>
        <time>2018-11-21T20:29:20Z</time>
        <name>WPT.993</name>
      </trkpt>
      <trkpt lat="32.147263390" lon="-109.448374140">
        <ele>1437.000</ele>
        <time>2018-11-21T20:29:23Z</time>
        <name>WPT.994</name>
      </trkpt>
      <trkpt lat="32.147302080" lon="-109.448360100">
        <ele>1435.000</ele>
        <time>2018-11-21T20:29:27Z</time>
        <name>WPT.995</name>
      </trkpt>
      <trkpt lat="32.147339910" lon="-109.448365140">
        <ele>1436.000</ele>
        <time>2018-11-21T20:29:30Z</time>
        <name>WPT.996</name>
      </trkpt>
      <trkpt lat="32.147364650" lon="-109.448403220">
        <ele>1439.000</ele>
        <time>2018-11-21T20:29:33Z</time>
        <name>WPT.997</name>
      </trkpt>
      <trkpt lat="32.147402540" lon="-109.448410180">
        <ele>1439.000</ele>
        <time>2018-11-21T20:29:36Z</time>
        <name>WPT.998</name>
      </trkpt>
      <trkpt lat="32.147451320" lon="-109.448417380">
        <ele>1439.000</ele>
        <time>2018-11-21T20:29:40Z</time>
        <name>WPT.999</name>
      </trkpt>
      <trkpt lat="32.147493010" lon="-109.448423910">
        <ele>1440.000</ele>
        <time>2018-11-21T20:29:43Z</time>
        <name>WPT.1000</name>
      </trkpt>
      <trkpt lat="32.147529350" lon="-109.448426750">
        <ele>1440.000</ele>
        <time>2018-11-21T20:29:46Z</time>
        <name>WPT.1001</name>
      </trkpt>
      <trkpt lat="32.147572670" lon="-109.448427090">
        <ele>1436.000</ele>
        <time>2018-11-21T20:29:51Z</time>
        <name>WPT.1002</name>
      </trkpt>
      <trkpt lat="32.147608080" lon="-109.448463300">
        <ele>1434.000</ele>
        <time>2018-11-21T20:29:55Z</time>
        <name>WPT.1003</name>
      </trkpt>
      <trkpt lat="32.147641380" lon="-109.448496620">
        <ele>1434.000</ele>
        <time>2018-11-21T20:29:58Z</time>
        <name>WPT.1004</name>
      </trkpt>
      <trkpt lat="32.147673600" lon="-109.448515920">
        <ele>1432.000</ele>
        <time>2018-11-21T20:30:01Z</time>
        <name>WPT.1005</name>
      </trkpt>
      <trkpt lat="32.147690380" lon="-109.448556690">
        <ele>1431.000</ele>
        <time>2018-11-21T20:30:04Z</time>
        <name>WPT.1006</name>
      </trkpt>
      <trkpt lat="32.147722370" lon="-109.448588850">
        <ele>1431.000</ele>
        <time>2018-11-21T20:30:07Z</time>
        <name>WPT.1007</name>
      </trkpt>
      <trkpt lat="32.147753390" lon="-109.448626170">
        <ele>1431.000</ele>
        <time>2018-11-21T20:30:10Z</time>
        <name>WPT.1008</name>
      </trkpt>
      <trkpt lat="32.147792460" lon="-109.448653390">
        <ele>1431.000</ele>
        <time>2018-11-21T20:30:14Z</time>
        <name>WPT.1009</name>
      </trkpt>
      <trkpt lat="32.147816810" lon="-109.448688540">
        <ele>1433.000</ele>
        <time>2018-11-21T20:30:17Z</time>
        <name>WPT.1010</name>
      </trkpt>
      <trkpt lat="32.147846340" lon="-109.448726510">
        <ele>1432.000</ele>
        <time>2018-11-21T20:30:21Z</time>
        <name>WPT.1011</name>
      </trkpt>
      <trkpt lat="32.147880700" lon="-109.448760530">
        <ele>1431.000</ele>
        <time>2018-11-21T20:30:25Z</time>
        <name>WPT.1012</name>
      </trkpt>
      <trkpt lat="32.147913160" lon="-109.448787620">
        <ele>1430.000</ele>
        <time>2018-11-21T20:30:29Z</time>
        <name>WPT.1013</name>
      </trkpt>
      <trkpt lat="32.147932810" lon="-109.448827420">
        <ele>1429.000</ele>
        <time>2018-11-21T20:30:33Z</time>
        <name>WPT.1014</name>
      </trkpt>
      <trkpt lat="32.147939140" lon="-109.448875590">
        <ele>1430.000</ele>
        <time>2018-11-21T20:30:37Z</time>
        <name>WPT.1015</name>
      </trkpt>
      <trkpt lat="32.147961920" lon="-109.448923670">
        <ele>1429.000</ele>
        <time>2018-11-21T20:30:41Z</time>
        <name>WPT.1016</name>
      </trkpt>
      <trkpt lat="32.147982180" lon="-109.448967420">
        <ele>1429.000</ele>
        <time>2018-11-21T20:30:45Z</time>
        <name>WPT.1017</name>
      </trkpt>
      <trkpt lat="32.148010020" lon="-109.449000210">
        <ele>1430.000</ele>
        <time>2018-11-21T20:30:49Z</time>
        <name>WPT.1018</name>
      </trkpt>
      <trkpt lat="32.148033430" lon="-109.449041890">
        <ele>1430.000</ele>
        <time>2018-11-21T20:30:56Z</time>
        <name>WPT.1019</name>
      </trkpt>
      <trkpt lat="32.148064410" lon="-109.449073400">
        <ele>1429.000</ele>
        <time>2018-11-21T20:31:00Z</time>
        <name>WPT.1020</name>
      </trkpt>
      <trkpt lat="32.148107230" lon="-109.449099010">
        <ele>1429.000</ele>
        <time>2018-11-21T20:31:04Z</time>
        <name>WPT.1021</name>
      </trkpt>
      <trkpt lat="32.148144570" lon="-109.449116480">
        <ele>1431.000</ele>
        <time>2018-11-21T20:31:07Z</time>
        <name>WPT.1022</name>
      </trkpt>
      <trkpt lat="32.148181030" lon="-109.449142770">
        <ele>1431.000</ele>
        <time>2018-11-21T20:31:11Z</time>
        <name>WPT.1023</name>
      </trkpt>
      <trkpt lat="32.148215730" lon="-109.449176990">
        <ele>1432.000</ele>
        <time>2018-11-21T20:31:15Z</time>
        <name>WPT.1024</name>
      </trkpt>
      <trkpt lat="32.148255670" lon="-109.449193920">
        <ele>1432.000</ele>
        <time>2018-11-21T20:31:19Z</time>
        <name>WPT.1025</name>
      </trkpt>
      <trkpt lat="32.148286310" lon="-109.449223690">
        <ele>1433.000</ele>
        <time>2018-11-21T20:31:23Z</time>
        <name>WPT.1026</name>
      </trkpt>
      <trkpt lat="32.148311330" lon="-109.449256950">
        <ele>1432.000</ele>
        <time>2018-11-21T20:31:26Z</time>
        <name>WPT.1027</name>
      </trkpt>
      <trkpt lat="32.148342130" lon="-109.449285220">
        <ele>1434.000</ele>
        <time>2018-11-21T20:31:51Z</time>
        <name>WPT.1028</name>
      </trkpt>
      <trkpt lat="32.148358900" lon="-109.449323800">
        <ele>1435.000</ele>
        <time>2018-11-21T20:31:59Z</time>
        <name>WPT.1029</name>
      </trkpt>
      <trkpt lat="32.148387970" lon="-109.449365530">
        <ele>1435.000</ele>
        <time>2018-11-21T20:32:19Z</time>
        <name>WPT.1030</name>
      </trkpt>
      <trkpt lat="32.148412140" lon="-109.449404450">
        <ele>1435.000</ele>
        <time>2018-11-21T20:32:22Z</time>
        <name>WPT.1031</name>
      </trkpt>
      <trkpt lat="32.148440110" lon="-109.449433020">
        <ele>1434.000</ele>
        <time>2018-11-21T20:32:25Z</time>
        <name>WPT.1032</name>
      </trkpt>
      <trkpt lat="32.148417680" lon="-109.449398570">
        <ele>1435.000</ele>
        <time>2018-11-21T20:32:49Z</time>
        <name>WPT.1033</name>
      </trkpt>
      <trkpt lat="32.148443400" lon="-109.449436770">
        <ele>1436.000</ele>
        <time>2018-11-21T20:33:44Z</time>
        <name>WPT.1034</name>
      </trkpt>
      <trkpt lat="32.148479220" lon="-109.449470820">
        <ele>1436.000</ele>
        <time>2018-11-21T20:33:48Z</time>
        <name>WPT.1035</name>
      </trkpt>
      <trkpt lat="32.148513590" lon="-109.449499890">
        <ele>1437.000</ele>
        <time>2018-11-21T20:33:52Z</time>
        <name>WPT.1036</name>
      </trkpt>
      <trkpt lat="32.148546080" lon="-109.449521070">
        <ele>1437.000</ele>
        <time>2018-11-21T20:33:56Z</time>
        <name>WPT.1037</name>
      </trkpt>
      <trkpt lat="32.148580300" lon="-109.449537800">
        <ele>1437.000</ele>
        <time>2018-11-21T20:33:59Z</time>
        <name>WPT.1038</name>
      </trkpt>
      <trkpt lat="32.148618030" lon="-109.449558280">
        <ele>1437.000</ele>
        <time>2018-11-21T20:34:03Z</time>
        <name>WPT.1039</name>
      </trkpt>
      <trkpt lat="32.148661960" lon="-109.449566760">
        <ele>1437.000</ele>
        <time>2018-11-21T20:34:07Z</time>
        <name>WPT.1040</name>
      </trkpt>
      <trkpt lat="32.148698530" lon="-109.449573990">
        <ele>1436.000</ele>
        <time>2018-11-21T20:34:10Z</time>
        <name>WPT.1041</name>
      </trkpt>
      <trkpt lat="32.148735760" lon="-109.449584970">
        <ele>1435.000</ele>
        <time>2018-11-21T20:34:13Z</time>
        <name>WPT.1042</name>
      </trkpt>
      <trkpt lat="32.148780040" lon="-109.449588190">
        <ele>1435.000</ele>
        <time>2018-11-21T20:34:17Z</time>
        <name>WPT.1043</name>
      </trkpt>
      <trkpt lat="32.148818050" lon="-109.449597540">
        <ele>1435.000</ele>
        <time>2018-11-21T20:34:20Z</time>
        <name>WPT.1044</name>
      </trkpt>
      <trkpt lat="32.148856470" lon="-109.449578020">
        <ele>1436.000</ele>
        <time>2018-11-21T20:34:24Z</time>
        <name>WPT.1045</name>
      </trkpt>
      <trkpt lat="32.148894590" lon="-109.449548270">
        <ele>1435.000</ele>
        <time>2018-11-21T20:34:29Z</time>
        <name>WPT.1046</name>
      </trkpt>
      <trkpt lat="32.148928760" lon="-109.449524530">
        <ele>1435.000</ele>
        <time>2018-11-21T20:34:33Z</time>
        <name>WPT.1047</name>
      </trkpt>
      <trkpt lat="32.148959450" lon="-109.449497980">
        <ele>1434.000</ele>
        <time>2018-11-21T20:34:47Z</time>
        <name>WPT.1048</name>
      </trkpt>
      <trkpt lat="32.148989890" lon="-109.449474360">
        <ele>1433.000</ele>
        <time>2018-11-21T20:34:51Z</time>
        <name>WPT.1049</name>
      </trkpt>
      <trkpt lat="32.149032720" lon="-109.449453500">
        <ele>1433.000</ele>
        <time>2018-11-21T20:34:55Z</time>
        <name>WPT.1050</name>
      </trkpt>
      <trkpt lat="32.149078010" lon="-109.449439580">
        <ele>1432.000</ele>
        <time>2018-11-21T20:34:59Z</time>
        <name>WPT.1051</name>
      </trkpt>
      <trkpt lat="32.149115030" lon="-109.449443980">
        <ele>1432.000</ele>
        <time>2018-11-21T20:35:02Z</time>
        <name>WPT.1052</name>
      </trkpt>
      <trkpt lat="32.149151640" lon="-109.449451290">
        <ele>1432.000</ele>
        <time>2018-11-21T20:35:05Z</time>
        <name>WPT.1053</name>
      </trkpt>
      <trkpt lat="32.149185340" lon="-109.449471470">
        <ele>1432.000</ele>
        <time>2018-11-21T20:35:08Z</time>
        <name>WPT.1054</name>
      </trkpt>
      <trkpt lat="32.149222910" lon="-109.449488170">
        <ele>1431.000</ele>
        <time>2018-11-21T20:35:14Z</time>
        <name>WPT.1055</name>
      </trkpt>
      <trkpt lat="32.149250010" lon="-109.449532210">
        <ele>1430.000</ele>
        <time>2018-11-21T20:35:25Z</time>
        <name>WPT.1056</name>
      </trkpt>
      <trkpt lat="32.149282630" lon="-109.449573530">
        <ele>1431.000</ele>
        <time>2018-11-21T20:35:29Z</time>
        <name>WPT.1057</name>
      </trkpt>
      <trkpt lat="32.149318990" lon="-109.449603150">
        <ele>1430.000</ele>
        <time>2018-11-21T20:35:33Z</time>
        <name>WPT.1058</name>
      </trkpt>
      <trkpt lat="32.149354650" lon="-109.449634970">
        <ele>1432.000</ele>
        <time>2018-11-21T20:35:43Z</time>
        <name>WPT.1059</name>
      </trkpt>
      <trkpt lat="32.149389440" lon="-109.449658170">
        <ele>1433.000</ele>
        <time>2018-11-21T20:35:47Z</time>
        <name>WPT.1060</name>
      </trkpt>
      <trkpt lat="32.149424320" lon="-109.449680640">
        <ele>1433.000</ele>
        <time>2018-11-21T20:35:51Z</time>
        <name>WPT.1061</name>
      </trkpt>
      <trkpt lat="32.149456680" lon="-109.449701760">
        <ele>1434.000</ele>
        <time>2018-11-21T20:35:54Z</time>
        <name>WPT.1062</name>
      </trkpt>
      <trkpt lat="32.149498560" lon="-109.449710500">
        <ele>1433.000</ele>
        <time>2018-11-21T20:35:58Z</time>
        <name>WPT.1063</name>
      </trkpt>
      <trkpt lat="32.149537610" lon="-109.449719540">
        <ele>1433.000</ele>
        <time>2018-11-21T20:36:05Z</time>
        <name>WPT.1064</name>
      </trkpt>
      <trkpt lat="32.149576950" lon="-109.449738500">
        <ele>1434.000</ele>
        <time>2018-11-21T20:36:09Z</time>
        <name>WPT.1065</name>
      </trkpt>
      <trkpt lat="32.149618630" lon="-109.449757100">
        <ele>1433.000</ele>
        <time>2018-11-21T20:36:13Z</time>
        <name>WPT.1066</name>
      </trkpt>
      <trkpt lat="32.149656690" lon="-109.449772570">
        <ele>1434.000</ele>
        <time>2018-11-21T20:36:16Z</time>
        <name>WPT.1067</name>
      </trkpt>
      <trkpt lat="32.149691990" lon="-109.449781900">
        <ele>1432.000</ele>
        <time>2018-11-21T20:36:19Z</time>
        <name>WPT.1068</name>
      </trkpt>
      <trkpt lat="32.149741330" lon="-109.449792180">
        <ele>1432.000</ele>
        <time>2018-11-21T20:36:23Z</time>
        <name>WPT.1069</name>
      </trkpt>
      <trkpt lat="32.149787110" lon="-109.449779770">
        <ele>1431.000</ele>
        <time>2018-11-21T20:36:27Z</time>
        <name>WPT.1070</name>
      </trkpt>
      <trkpt lat="32.149831410" lon="-109.449760980">
        <ele>1431.000</ele>
        <time>2018-11-21T20:36:32Z</time>
        <name>WPT.1071</name>
      </trkpt>
      <trkpt lat="32.149878870" lon="-109.449740550">
        <ele>1430.000</ele>
        <time>2018-11-21T20:36:36Z</time>
        <name>WPT.1072</name>
      </trkpt>
      <trkpt lat="32.149921080" lon="-109.449725710">
        <ele>1429.000</ele>
        <time>2018-11-21T20:36:40Z</time>
        <name>WPT.1073</name>
      </trkpt>
      <trkpt lat="32.149965070" lon="-109.449735640">
        <ele>1429.000</ele>
        <time>2018-11-21T20:36:44Z</time>
        <name>WPT.1074</name>
      </trkpt>
      <trkpt lat="32.150002280" lon="-109.449741530">
        <ele>1429.000</ele>
        <time>2018-11-21T20:36:47Z</time>
        <name>WPT.1075</name>
      </trkpt>
      <trkpt lat="32.150045250" lon="-109.449750210">
        <ele>1429.000</ele>
        <time>2018-11-21T20:36:51Z</time>
        <name>WPT.1076</name>
      </trkpt>
      <trkpt lat="32.150082840" lon="-109.449757990">
        <ele>1429.000</ele>
        <time>2018-11-21T20:36:57Z</time>
        <name>WPT.1077</name>
      </trkpt>
      <trkpt lat="32.150125560" lon="-109.449759400">
        <ele>1427.000</ele>
        <time>2018-11-21T20:37:01Z</time>
        <name>WPT.1078</name>
      </trkpt>
      <trkpt lat="32.150165860" lon="-109.449763050">
        <ele>1427.000</ele>
        <time>2018-11-21T20:37:05Z</time>
        <name>WPT.1079</name>
      </trkpt>
      <trkpt lat="32.150202300" lon="-109.449771310">
        <ele>1427.000</ele>
        <time>2018-11-21T20:37:08Z</time>
        <name>WPT.1080</name>
      </trkpt>
      <trkpt lat="32.150247710" lon="-109.449778360">
        <ele>1426.000</ele>
        <time>2018-11-21T20:37:12Z</time>
        <name>WPT.1081</name>
      </trkpt>
      <trkpt lat="32.150285880" lon="-109.449778780">
        <ele>1426.000</ele>
        <time>2018-11-21T20:37:15Z</time>
        <name>WPT.1082</name>
      </trkpt>
      <trkpt lat="32.150332100" lon="-109.449776280">
        <ele>1426.000</ele>
        <time>2018-11-21T20:37:19Z</time>
        <name>WPT.1083</name>
      </trkpt>
      <trkpt lat="32.150368770" lon="-109.449768070">
        <ele>1425.000</ele>
        <time>2018-11-21T20:37:22Z</time>
        <name>WPT.1084</name>
      </trkpt>
      <trkpt lat="32.150415950" lon="-109.449773220">
        <ele>1425.000</ele>
        <time>2018-11-21T20:37:26Z</time>
        <name>WPT.1085</name>
      </trkpt>
      <trkpt lat="32.150463870" lon="-109.449765500">
        <ele>1425.000</ele>
        <time>2018-11-21T20:37:30Z</time>
        <name>WPT.1086</name>
      </trkpt>
      <trkpt lat="32.150511610" lon="-109.449759220">
        <ele>1425.000</ele>
        <time>2018-11-21T20:37:46Z</time>
        <name>WPT.1087</name>
      </trkpt>
      <trkpt lat="32.150557600" lon="-109.449742300">
        <ele>1425.000</ele>
        <time>2018-11-21T20:37:50Z</time>
        <name>WPT.1088</name>
      </trkpt>
      <trkpt lat="32.150598240" lon="-109.449737840">
        <ele>1424.000</ele>
        <time>2018-11-21T20:37:54Z</time>
        <name>WPT.1089</name>
      </trkpt>
      <trkpt lat="32.150641810" lon="-109.449751150">
        <ele>1425.000</ele>
        <time>2018-11-21T20:37:58Z</time>
        <name>WPT.1090</name>
      </trkpt>
      <trkpt lat="32.150683060" lon="-109.449758010">
        <ele>1425.000</ele>
        <time>2018-11-21T20:38:01Z</time>
        <name>WPT.1091</name>
      </trkpt>
      <trkpt lat="32.150724440" lon="-109.449766460">
        <ele>1425.000</ele>
        <time>2018-11-21T20:38:05Z</time>
        <name>WPT.1092</name>
      </trkpt>
      <trkpt lat="32.150769100" lon="-109.449770140">
        <ele>1425.000</ele>
        <time>2018-11-21T20:38:09Z</time>
        <name>WPT.1093</name>
      </trkpt>
      <trkpt lat="32.150807500" lon="-109.449758580">
        <ele>1424.000</ele>
        <time>2018-11-21T20:38:12Z</time>
        <name>WPT.1094</name>
      </trkpt>
      <trkpt lat="32.150857220" lon="-109.449756510">
        <ele>1423.000</ele>
        <time>2018-11-21T20:38:16Z</time>
        <name>WPT.1095</name>
      </trkpt>
      <trkpt lat="32.150895350" lon="-109.449775530">
        <ele>1425.000</ele>
        <time>2018-11-21T20:38:19Z</time>
        <name>WPT.1096</name>
      </trkpt>
      <trkpt lat="32.150940310" lon="-109.449789990">
        <ele>1426.000</ele>
        <time>2018-11-21T20:38:23Z</time>
        <name>WPT.1097</name>
      </trkpt>
      <trkpt lat="32.150980810" lon="-109.449799090">
        <ele>1426.000</ele>
        <time>2018-11-21T20:38:26Z</time>
        <name>WPT.1098</name>
      </trkpt>
      <trkpt lat="32.151017590" lon="-109.449813770">
        <ele>1426.000</ele>
        <time>2018-11-21T20:38:29Z</time>
        <name>WPT.1099</name>
      </trkpt>
      <trkpt lat="32.151056170" lon="-109.449818810">
        <ele>1427.000</ele>
        <time>2018-11-21T20:38:33Z</time>
        <name>WPT.1100</name>
      </trkpt>
      <trkpt lat="32.151105210" lon="-109.449818530">
        <ele>1426.000</ele>
        <time>2018-11-21T20:38:37Z</time>
        <name>WPT.1101</name>
      </trkpt>
      <trkpt lat="32.151141950" lon="-109.449819060">
        <ele>1427.000</ele>
        <time>2018-11-21T20:38:40Z</time>
        <name>WPT.1102</name>
      </trkpt>
      <trkpt lat="32.151177250" lon="-109.449806100">
        <ele>1427.000</ele>
        <time>2018-11-21T20:38:43Z</time>
        <name>WPT.1103</name>
      </trkpt>
      <trkpt lat="32.151223910" lon="-109.449793720">
        <ele>1426.000</ele>
        <time>2018-11-21T20:38:48Z</time>
        <name>WPT.1104</name>
      </trkpt>
      <trkpt lat="32.151262240" lon="-109.449803070">
        <ele>1426.000</ele>
        <time>2018-11-21T20:38:52Z</time>
        <name>WPT.1105</name>
      </trkpt>
      <trkpt lat="32.151292340" lon="-109.449827270">
        <ele>1425.000</ele>
        <time>2018-11-21T20:38:56Z</time>
        <name>WPT.1106</name>
      </trkpt>
      <trkpt lat="32.151311970" lon="-109.449871950">
        <ele>1426.000</ele>
        <time>2018-11-21T20:38:59Z</time>
        <name>WPT.1107</name>
      </trkpt>
      <trkpt lat="32.151321260" lon="-109.449914980">
        <ele>1426.000</ele>
        <time>2018-11-21T20:39:04Z</time>
        <name>WPT.1108</name>
      </trkpt>
      <trkpt lat="32.151343310" lon="-109.449954660">
        <ele>1426.000</ele>
        <time>2018-11-21T20:39:37Z</time>
        <name>WPT.1109</name>
      </trkpt>
      <trkpt lat="32.151364230" lon="-109.449998720">
        <ele>1426.000</ele>
        <time>2018-11-21T20:39:40Z</time>
        <name>WPT.1110</name>
      </trkpt>
      <trkpt lat="32.151385580" lon="-109.450033920">
        <ele>1426.000</ele>
        <time>2018-11-21T20:39:43Z</time>
        <name>WPT.1111</name>
      </trkpt>
      <trkpt lat="32.151413150" lon="-109.450072920">
        <ele>1425.000</ele>
        <time>2018-11-21T20:39:47Z</time>
        <name>WPT.1112</name>
      </trkpt>
      <trkpt lat="32.151439120" lon="-109.450107880">
        <ele>1424.000</ele>
        <time>2018-11-21T20:39:50Z</time>
        <name>WPT.1113</name>
      </trkpt>
      <trkpt lat="32.151468390" lon="-109.450148130">
        <ele>1423.000</ele>
        <time>2018-11-21T20:39:54Z</time>
        <name>WPT.1114</name>
      </trkpt>
      <trkpt lat="32.151500680" lon="-109.450176200">
        <ele>1421.000</ele>
        <time>2018-11-21T20:40:02Z</time>
        <name>WPT.1115</name>
      </trkpt>
      <trkpt lat="32.151520070" lon="-109.450214200">
        <ele>1421.000</ele>
        <time>2018-11-21T20:40:05Z</time>
        <name>WPT.1116</name>
      </trkpt>
      <trkpt lat="32.151552380" lon="-109.450239940">
        <ele>1423.000</ele>
        <time>2018-11-21T20:40:08Z</time>
        <name>WPT.1117</name>
      </trkpt>
      <trkpt lat="32.151589340" lon="-109.450277100">
        <ele>1422.000</ele>
        <time>2018-11-21T20:40:12Z</time>
        <name>WPT.1118</name>
      </trkpt>
      <trkpt lat="32.151621700" lon="-109.450296980">
        <ele>1420.000</ele>
        <time>2018-11-21T20:40:15Z</time>
        <name>WPT.1119</name>
      </trkpt>
      <trkpt lat="32.151651210" lon="-109.450328550">
        <ele>1420.000</ele>
        <time>2018-11-21T20:40:18Z</time>
        <name>WPT.1120</name>
      </trkpt>
      <trkpt lat="32.151683480" lon="-109.450365230">
        <ele>1420.000</ele>
        <time>2018-11-21T20:40:21Z</time>
        <name>WPT.1121</name>
      </trkpt>
      <trkpt lat="32.151714260" lon="-109.450395020">
        <ele>1420.000</ele>
        <time>2018-11-21T20:40:24Z</time>
        <name>WPT.1122</name>
      </trkpt>
      <trkpt lat="32.151751350" lon="-109.450427340">
        <ele>1420.000</ele>
        <time>2018-11-21T20:40:28Z</time>
        <name>WPT.1123</name>
      </trkpt>
      <trkpt lat="32.151785990" lon="-109.450459910">
        <ele>1420.000</ele>
        <time>2018-11-21T20:40:32Z</time>
        <name>WPT.1124</name>
      </trkpt>
      <trkpt lat="32.151818980" lon="-109.450478370">
        <ele>1418.000</ele>
        <time>2018-11-21T20:40:36Z</time>
        <name>WPT.1125</name>
      </trkpt>
      <trkpt lat="32.151862180" lon="-109.450499790">
        <ele>1418.000</ele>
        <time>2018-11-21T20:40:40Z</time>
        <name>WPT.1126</name>
      </trkpt>
      <trkpt lat="32.151896660" lon="-109.450517340">
        <ele>1419.000</ele>
        <time>2018-11-21T20:40:43Z</time>
        <name>WPT.1127</name>
      </trkpt>
      <trkpt lat="32.151938270" lon="-109.450527270">
        <ele>1419.000</ele>
        <time>2018-11-21T20:40:47Z</time>
        <name>WPT.1128</name>
      </trkpt>
      <trkpt lat="32.151976350" lon="-109.450549390">
        <ele>1419.000</ele>
        <time>2018-11-21T20:40:51Z</time>
        <name>WPT.1129</name>
      </trkpt>
      <trkpt lat="32.152011320" lon="-109.450587470">
        <ele>1419.000</ele>
        <time>2018-11-21T20:40:55Z</time>
        <name>WPT.1130</name>
      </trkpt>
      <trkpt lat="32.152045910" lon="-109.450615150">
        <ele>1419.000</ele>
        <time>2018-11-21T20:40:58Z</time>
        <name>WPT.1131</name>
      </trkpt>
      <trkpt lat="32.152079350" lon="-109.450631620">
        <ele>1420.000</ele>
        <time>2018-11-21T20:41:01Z</time>
        <name>WPT.1132</name>
      </trkpt>
      <trkpt lat="32.152117570" lon="-109.450646950">
        <ele>1420.000</ele>
        <time>2018-11-21T20:41:04Z</time>
        <name>WPT.1133</name>
      </trkpt>
      <trkpt lat="32.152159640" lon="-109.450670630">
        <ele>1420.000</ele>
        <time>2018-11-21T20:41:08Z</time>
        <name>WPT.1134</name>
      </trkpt>
      <trkpt lat="32.152204130" lon="-109.450688140">
        <ele>1419.000</ele>
        <time>2018-11-21T20:41:12Z</time>
        <name>WPT.1135</name>
      </trkpt>
      <trkpt lat="32.152241880" lon="-109.450706060">
        <ele>1419.000</ele>
        <time>2018-11-21T20:41:15Z</time>
        <name>WPT.1136</name>
      </trkpt>
      <trkpt lat="32.152280720" lon="-109.450727120">
        <ele>1419.000</ele>
        <time>2018-11-21T20:41:19Z</time>
        <name>WPT.1137</name>
      </trkpt>
      <trkpt lat="32.152326880" lon="-109.450744420">
        <ele>1419.000</ele>
        <time>2018-11-21T20:41:23Z</time>
        <name>WPT.1138</name>
      </trkpt>
      <trkpt lat="32.152365390" lon="-109.450778950">
        <ele>1420.000</ele>
        <time>2018-11-21T20:41:27Z</time>
        <name>WPT.1139</name>
      </trkpt>
      <trkpt lat="32.152409210" lon="-109.450795780">
        <ele>1419.000</ele>
        <time>2018-11-21T20:41:31Z</time>
        <name>WPT.1140</name>
      </trkpt>
      <trkpt lat="32.152447630" lon="-109.450820720">
        <ele>1419.000</ele>
        <time>2018-11-21T20:41:35Z</time>
        <name>WPT.1141</name>
      </trkpt>
      <trkpt lat="32.152479640" lon="-109.450843060">
        <ele>1419.000</ele>
        <time>2018-11-21T20:41:38Z</time>
        <name>WPT.1142</name>
      </trkpt>
      <trkpt lat="32.152517210" lon="-109.450865740">
        <ele>1419.000</ele>
        <time>2018-11-21T20:41:42Z</time>
        <name>WPT.1143</name>
      </trkpt>
      <trkpt lat="32.152560250" lon="-109.450867890">
        <ele>1418.000</ele>
        <time>2018-11-21T20:42:04Z</time>
        <name>WPT.1144</name>
      </trkpt>
      <trkpt lat="32.152598200" lon="-109.450906140">
        <ele>1418.000</ele>
        <time>2018-11-21T20:42:08Z</time>
        <name>WPT.1145</name>
      </trkpt>
      <trkpt lat="32.152627290" lon="-109.450942980">
        <ele>1417.000</ele>
        <time>2018-11-21T20:42:12Z</time>
        <name>WPT.1146</name>
      </trkpt>
      <trkpt lat="32.152666530" lon="-109.450966850">
        <ele>1416.000</ele>
        <time>2018-11-21T20:42:24Z</time>
        <name>WPT.1147</name>
      </trkpt>
      <trkpt lat="32.152699410" lon="-109.451000410">
        <ele>1415.000</ele>
        <time>2018-11-21T20:42:28Z</time>
        <name>WPT.1148</name>
      </trkpt>
      <trkpt lat="32.152727920" lon="-109.451029090">
        <ele>1414.000</ele>
        <time>2018-11-21T20:42:32Z</time>
        <name>WPT.1149</name>
      </trkpt>
      <trkpt lat="32.152761060" lon="-109.451049380">
        <ele>1415.000</ele>
        <time>2018-11-21T20:42:47Z</time>
        <name>WPT.1150</name>
      </trkpt>
      <trkpt lat="32.152794510" lon="-109.451084680">
        <ele>1414.000</ele>
        <time>2018-11-21T20:42:52Z</time>
        <name>WPT.1151</name>
      </trkpt>
      <trkpt lat="32.152823390" lon="-109.451119000">
        <ele>1413.000</ele>
        <time>2018-11-21T20:42:56Z</time>
        <name>WPT.1152</name>
      </trkpt>
      <trkpt lat="32.152852320" lon="-109.451158140">
        <ele>1414.000</ele>
        <time>2018-11-21T20:43:00Z</time>
        <name>WPT.1153</name>
      </trkpt>
      <trkpt lat="32.152878800" lon="-109.451193150">
        <ele>1414.000</ele>
        <time>2018-11-21T20:43:03Z</time>
        <name>WPT.1154</name>
      </trkpt>
      <trkpt lat="32.152908770" lon="-109.451232050">
        <ele>1414.000</ele>
        <time>2018-11-21T20:43:07Z</time>
        <name>WPT.1155</name>
      </trkpt>
      <trkpt lat="32.152936780" lon="-109.451263770">
        <ele>1414.000</ele>
        <time>2018-11-21T20:43:10Z</time>
        <name>WPT.1156</name>
      </trkpt>
      <trkpt lat="32.152963090" lon="-109.451293240">
        <ele>1413.000</ele>
        <time>2018-11-21T20:43:13Z</time>
        <name>WPT.1157</name>
      </trkpt>
      <trkpt lat="32.152985400" lon="-109.451330780">
        <ele>1412.000</ele>
        <time>2018-11-21T20:43:17Z</time>
        <name>WPT.1158</name>
      </trkpt>
      <trkpt lat="32.153028200" lon="-109.451353060">
        <ele>1412.000</ele>
        <time>2018-11-21T20:43:21Z</time>
        <name>WPT.1159</name>
      </trkpt>
      <trkpt lat="32.153065340" lon="-109.451357090">
        <ele>1411.000</ele>
        <time>2018-11-21T20:43:24Z</time>
        <name>WPT.1160</name>
      </trkpt>
      <trkpt lat="32.153110160" lon="-109.451340580">
        <ele>1411.000</ele>
        <time>2018-11-21T20:43:27Z</time>
        <name>WPT.1161</name>
      </trkpt>
      <trkpt lat="32.153149530" lon="-109.451328630">
        <ele>1411.000</ele>
        <time>2018-11-21T20:43:30Z</time>
        <name>WPT.1162</name>
      </trkpt>
      <trkpt lat="32.153190320" lon="-109.451341290">
        <ele>1411.000</ele>
        <time>2018-11-21T20:43:34Z</time>
        <name>WPT.1163</name>
      </trkpt>
      <trkpt lat="32.153226940" lon="-109.451353150">
        <ele>1412.000</ele>
        <time>2018-11-21T20:43:38Z</time>
        <name>WPT.1164</name>
      </trkpt>
      <trkpt lat="32.153253340" lon="-109.451389590">
        <ele>1412.000</ele>
        <time>2018-11-21T20:43:58Z</time>
        <name>WPT.1165</name>
      </trkpt>
      <trkpt lat="32.153289160" lon="-109.451413500">
        <ele>1410.000</ele>
        <time>2018-11-21T20:44:02Z</time>
        <name>WPT.1166</name>
      </trkpt>
      <trkpt lat="32.153322200" lon="-109.451433320">
        <ele>1411.000</ele>
        <time>2018-11-21T20:44:05Z</time>
        <name>WPT.1167</name>
      </trkpt>
      <trkpt lat="32.153365840" lon="-109.451449720">
        <ele>1411.000</ele>
        <time>2018-11-21T20:44:09Z</time>
        <name>WPT.1168</name>
      </trkpt>
      <trkpt lat="32.153396070" lon="-109.451484640">
        <ele>1412.000</ele>
        <time>2018-11-21T20:44:12Z</time>
        <name>WPT.1169</name>
      </trkpt>
      <trkpt lat="32.153424390" lon="-109.451511510">
        <ele>1413.000</ele>
        <time>2018-11-21T20:44:15Z</time>
        <name>WPT.1170</name>
      </trkpt>
      <trkpt lat="32.153465280" lon="-109.451532730">
        <ele>1414.000</ele>
        <time>2018-11-21T20:44:18Z</time>
        <name>WPT.1171</name>
      </trkpt>
      <trkpt lat="32.153505040" lon="-109.451541140">
        <ele>1413.000</ele>
        <time>2018-11-21T20:44:21Z</time>
        <name>WPT.1172</name>
      </trkpt>
      <trkpt lat="32.153545600" lon="-109.451549070">
        <ele>1412.000</ele>
        <time>2018-11-21T20:44:24Z</time>
        <name>WPT.1173</name>
      </trkpt>
      <trkpt lat="32.153579940" lon="-109.451564330">
        <ele>1412.000</ele>
        <time>2018-11-21T20:44:27Z</time>
        <name>WPT.1174</name>
      </trkpt>
      <trkpt lat="32.153621080" lon="-109.451586700">
        <ele>1412.000</ele>
        <time>2018-11-21T20:44:31Z</time>
        <name>WPT.1175</name>
      </trkpt>
      <trkpt lat="32.153655900" lon="-109.451612290">
        <ele>1413.000</ele>
        <time>2018-11-21T20:44:34Z</time>
        <name>WPT.1176</name>
      </trkpt>
      <trkpt lat="32.153685480" lon="-109.451643390">
        <ele>1412.000</ele>
        <time>2018-11-21T20:44:38Z</time>
        <name>WPT.1177</name>
      </trkpt>
      <trkpt lat="32.153717200" lon="-109.451684620">
        <ele>1411.000</ele>
        <time>2018-11-21T20:44:42Z</time>
        <name>WPT.1178</name>
      </trkpt>
      <trkpt lat="32.153749880" lon="-109.451713150">
        <ele>1411.000</ele>
        <time>2018-11-21T20:44:46Z</time>
        <name>WPT.1179</name>
      </trkpt>
      <trkpt lat="32.153784800" lon="-109.451727610">
        <ele>1411.000</ele>
        <time>2018-11-21T20:44:49Z</time>
        <name>WPT.1180</name>
      </trkpt>
      <trkpt lat="32.153828450" lon="-109.451722320">
        <ele>1409.000</ele>
        <time>2018-11-21T20:44:53Z</time>
        <name>WPT.1181</name>
      </trkpt>
      <trkpt lat="32.153868820" lon="-109.451717260">
        <ele>1409.000</ele>
        <time>2018-11-21T20:44:57Z</time>
        <name>WPT.1182</name>
      </trkpt>
      <trkpt lat="32.153905140" lon="-109.451715660">
        <ele>1409.000</ele>
        <time>2018-11-21T20:45:00Z</time>
        <name>WPT.1183</name>
      </trkpt>
      <trkpt lat="32.153945170" lon="-109.451726060">
        <ele>1408.000</ele>
        <time>2018-11-21T20:45:05Z</time>
        <name>WPT.1184</name>
      </trkpt>
      <trkpt lat="32.153976190" lon="-109.451759600">
        <ele>1406.000</ele>
        <time>2018-11-21T20:45:09Z</time>
        <name>WPT.1185</name>
      </trkpt>
      <trkpt lat="32.154008330" lon="-109.451806410">
        <ele>1405.000</ele>
        <time>2018-11-21T20:45:13Z</time>
        <name>WPT.1186</name>
      </trkpt>
      <trkpt lat="32.154042230" lon="-109.451826010">
        <ele>1405.000</ele>
        <time>2018-11-21T20:45:16Z</time>
        <name>WPT.1187</name>
      </trkpt>
      <trkpt lat="32.154088060" lon="-109.451844990">
        <ele>1405.000</ele>
        <time>2018-11-21T20:45:20Z</time>
        <name>WPT.1188</name>
      </trkpt>
      <trkpt lat="32.154128600" lon="-109.451869100">
        <ele>1405.000</ele>
        <time>2018-11-21T20:45:25Z</time>
        <name>WPT.1189</name>
      </trkpt>
      <trkpt lat="32.154168410" lon="-109.451895280">
        <ele>1404.000</ele>
        <time>2018-11-21T20:45:29Z</time>
        <name>WPT.1190</name>
      </trkpt>
      <trkpt lat="32.154198990" lon="-109.451920490">
        <ele>1403.000</ele>
        <time>2018-11-21T20:45:32Z</time>
        <name>WPT.1191</name>
      </trkpt>
      <trkpt lat="32.154243270" lon="-109.451915990">
        <ele>1402.000</ele>
        <time>2018-11-21T20:45:36Z</time>
        <name>WPT.1192</name>
      </trkpt>
      <trkpt lat="32.154280430" lon="-109.451912900">
        <ele>1402.000</ele>
        <time>2018-11-21T20:45:39Z</time>
        <name>WPT.1193</name>
      </trkpt>
      <trkpt lat="32.154317920" lon="-109.451944770">
        <ele>1402.000</ele>
        <time>2018-11-21T20:45:43Z</time>
        <name>WPT.1194</name>
      </trkpt>
      <trkpt lat="32.154350750" lon="-109.451967090">
        <ele>1403.000</ele>
        <time>2018-11-21T20:45:46Z</time>
        <name>WPT.1195</name>
      </trkpt>
      <trkpt lat="32.154396940" lon="-109.451972780">
        <ele>1402.000</ele>
        <time>2018-11-21T20:45:50Z</time>
        <name>WPT.1196</name>
      </trkpt>
      <trkpt lat="32.154439640" lon="-109.451966910">
        <ele>1402.000</ele>
        <time>2018-11-21T20:45:54Z</time>
        <name>WPT.1197</name>
      </trkpt>
      <trkpt lat="32.154479660" lon="-109.451970620">
        <ele>1403.000</ele>
        <time>2018-11-21T20:45:59Z</time>
        <name>WPT.1198</name>
      </trkpt>
      <trkpt lat="32.154527960" lon="-109.451971360">
        <ele>1404.000</ele>
        <time>2018-11-21T20:46:03Z</time>
        <name>WPT.1199</name>
      </trkpt>
      <trkpt lat="32.154570140" lon="-109.451965210">
        <ele>1404.000</ele>
        <time>2018-11-21T20:46:06Z</time>
        <name>WPT.1200</name>
      </trkpt>
      <trkpt lat="32.154606730" lon="-109.451974030">
        <ele>1404.000</ele>
        <time>2018-11-21T20:46:09Z</time>
        <name>WPT.1201</name>
      </trkpt>
      <trkpt lat="32.154642820" lon="-109.451963010">
        <ele>1401.000</ele>
        <time>2018-11-21T20:46:20Z</time>
        <name>WPT.1202</name>
      </trkpt>
      <trkpt lat="32.154673850" lon="-109.451991670">
        <ele>1400.000</ele>
        <time>2018-11-21T20:46:24Z</time>
        <name>WPT.1203</name>
      </trkpt>
      <trkpt lat="32.154698980" lon="-109.452024550">
        <ele>1401.000</ele>
        <time>2018-11-21T20:46:27Z</time>
        <name>WPT.1204</name>
      </trkpt>
      <trkpt lat="32.154730720" lon="-109.452063430">
        <ele>1401.000</ele>
        <time>2018-11-21T20:46:31Z</time>
        <name>WPT.1205</name>
      </trkpt>
      <trkpt lat="32.154752860" lon="-109.452099840">
        <ele>1402.000</ele>
        <time>2018-11-21T20:46:35Z</time>
        <name>WPT.1206</name>
      </trkpt>
      <trkpt lat="32.154769150" lon="-109.452139370">
        <ele>1402.000</ele>
        <time>2018-11-21T20:46:38Z</time>
        <name>WPT.1207</name>
      </trkpt>
      <trkpt lat="32.154800060" lon="-109.452161420">
        <ele>1401.000</ele>
        <time>2018-11-21T20:46:44Z</time>
        <name>WPT.1208</name>
      </trkpt>
      <trkpt lat="32.154846400" lon="-109.452172120">
        <ele>1400.000</ele>
        <time>2018-11-21T20:46:51Z</time>
        <name>WPT.1209</name>
      </trkpt>
      <trkpt lat="32.154897050" lon="-109.452176870">
        <ele>1400.000</ele>
        <time>2018-11-21T20:46:55Z</time>
        <name>WPT.1210</name>
      </trkpt>
      <trkpt lat="32.154930900" lon="-109.452204170">
        <ele>1401.000</ele>
        <time>2018-11-21T20:47:00Z</time>
        <name>WPT.1211</name>
      </trkpt>
      <trkpt lat="32.154972660" lon="-109.452224860">
        <ele>1399.000</ele>
        <time>2018-11-21T20:47:05Z</time>
        <name>WPT.1212</name>
      </trkpt>
      <trkpt lat="32.155011330" lon="-109.452257690">
        <ele>1398.000</ele>
        <time>2018-11-21T20:47:10Z</time>
        <name>WPT.1213</name>
      </trkpt>
      <trkpt lat="32.155049920" lon="-109.452283750">
        <ele>1397.000</ele>
        <time>2018-11-21T20:47:14Z</time>
        <name>WPT.1214</name>
      </trkpt>
      <trkpt lat="32.155088750" lon="-109.452270660">
        <ele>1393.000</ele>
        <time>2018-11-21T20:47:18Z</time>
        <name>WPT.1215</name>
      </trkpt>
      <trkpt lat="32.155128260" lon="-109.452276260">
        <ele>1393.000</ele>
        <time>2018-11-21T20:47:22Z</time>
        <name>WPT.1216</name>
      </trkpt>
      <trkpt lat="32.155164800" lon="-109.452286060">
        <ele>1394.000</ele>
        <time>2018-11-21T20:47:26Z</time>
        <name>WPT.1217</name>
      </trkpt>
      <trkpt lat="32.155205780" lon="-109.452282110">
        <ele>1393.000</ele>
        <time>2018-11-21T20:47:30Z</time>
        <name>WPT.1218</name>
      </trkpt>
      <trkpt lat="32.155240330" lon="-109.452295490">
        <ele>1393.000</ele>
        <time>2018-11-21T20:47:33Z</time>
        <name>WPT.1219</name>
      </trkpt>
      <trkpt lat="32.155279990" lon="-109.452319930">
        <ele>1394.000</ele>
        <time>2018-11-21T20:47:37Z</time>
        <name>WPT.1220</name>
      </trkpt>
      <trkpt lat="32.155310450" lon="-109.452345610">
        <ele>1396.000</ele>
        <time>2018-11-21T20:47:49Z</time>
        <name>WPT.1221</name>
      </trkpt>
      <trkpt lat="32.155345780" lon="-109.452373470">
        <ele>1397.000</ele>
        <time>2018-11-21T20:48:12Z</time>
        <name>WPT.1222</name>
      </trkpt>
      <trkpt lat="32.155388610" lon="-109.452396870">
        <ele>1398.000</ele>
        <time>2018-11-21T20:48:17Z</time>
        <name>WPT.1223</name>
      </trkpt>
      <trkpt lat="32.155433000" lon="-109.452392080">
        <ele>1398.000</ele>
        <time>2018-11-21T20:48:21Z</time>
        <name>WPT.1224</name>
      </trkpt>
      <trkpt lat="32.155470810" lon="-109.452394530">
        <ele>1398.000</ele>
        <time>2018-11-21T20:48:25Z</time>
        <name>WPT.1225</name>
      </trkpt>
      <trkpt lat="32.155508970" lon="-109.452424690">
        <ele>1398.000</ele>
        <time>2018-11-21T20:48:30Z</time>
        <name>WPT.1226</name>
      </trkpt>
      <trkpt lat="32.155550070" lon="-109.452442330">
        <ele>1395.000</ele>
        <time>2018-11-21T20:48:35Z</time>
        <name>WPT.1227</name>
      </trkpt>
      <trkpt lat="32.155591900" lon="-109.452462410">
        <ele>1396.000</ele>
        <time>2018-11-21T20:48:39Z</time>
        <name>WPT.1228</name>
      </trkpt>
      <trkpt lat="32.155632780" lon="-109.452481350">
        <ele>1396.000</ele>
        <time>2018-11-21T20:48:43Z</time>
        <name>WPT.1229</name>
      </trkpt>
      <trkpt lat="32.155671990" lon="-109.452493880">
        <ele>1397.000</ele>
        <time>2018-11-21T20:48:47Z</time>
        <name>WPT.1230</name>
      </trkpt>
      <trkpt lat="32.155702990" lon="-109.452517050">
        <ele>1398.000</ele>
        <time>2018-11-21T20:48:51Z</time>
        <name>WPT.1231</name>
      </trkpt>
      <trkpt lat="32.155742010" lon="-109.452528500">
        <ele>1398.000</ele>
        <time>2018-11-21T20:48:56Z</time>
        <name>WPT.1232</name>
      </trkpt>
      <trkpt lat="32.155778330" lon="-109.452551800">
        <ele>1397.000</ele>
        <time>2018-11-21T20:49:02Z</time>
        <name>WPT.1233</name>
      </trkpt>
      <trkpt lat="32.155809840" lon="-109.452583800">
        <ele>1397.000</ele>
        <time>2018-11-21T20:49:06Z</time>
        <name>WPT.1234</name>
      </trkpt>
      <trkpt lat="32.155835490" lon="-109.452623930">
        <ele>1397.000</ele>
        <time>2018-11-21T20:49:11Z</time>
        <name>WPT.1235</name>
      </trkpt>
      <trkpt lat="32.155869140" lon="-109.452654630">
        <ele>1396.000</ele>
        <time>2018-11-21T20:49:15Z</time>
        <name>WPT.1236</name>
      </trkpt>
      <trkpt lat="32.155888350" lon="-109.452691250">
        <ele>1395.000</ele>
        <time>2018-11-21T20:49:19Z</time>
        <name>WPT.1237</name>
      </trkpt>
      <trkpt lat="32.155907090" lon="-109.452734820">
        <ele>1393.000</ele>
        <time>2018-11-21T20:49:24Z</time>
        <name>WPT.1238</name>
      </trkpt>
      <trkpt lat="32.155929170" lon="-109.452772480">
        <ele>1393.000</ele>
        <time>2018-11-21T20:49:28Z</time>
        <name>WPT.1239</name>
      </trkpt>
      <trkpt lat="32.155953260" lon="-109.452804900">
        <ele>1392.000</ele>
        <time>2018-11-21T20:49:33Z</time>
        <name>WPT.1240</name>
      </trkpt>
      <trkpt lat="32.155986110" lon="-109.452826380">
        <ele>1391.000</ele>
        <time>2018-11-21T20:49:58Z</time>
        <name>WPT.1241</name>
      </trkpt>
      <trkpt lat="32.156012450" lon="-109.452858080">
        <ele>1390.000</ele>
        <time>2018-11-21T20:50:04Z</time>
        <name>WPT.1242</name>
      </trkpt>
      <trkpt lat="32.156048490" lon="-109.452882640">
        <ele>1391.000</ele>
        <time>2018-11-21T20:50:09Z</time>
        <name>WPT.1243</name>
      </trkpt>
      <trkpt lat="32.156077810" lon="-109.452910820">
        <ele>1390.000</ele>
        <time>2018-11-21T20:50:13Z</time>
        <name>WPT.1244</name>
      </trkpt>
      <trkpt lat="32.156100990" lon="-109.452951400">
        <ele>1391.000</ele>
        <time>2018-11-21T20:50:17Z</time>
        <name>WPT.1245</name>
      </trkpt>
      <trkpt lat="32.156114170" lon="-109.452996430">
        <ele>1391.000</ele>
        <time>2018-11-21T20:50:21Z</time>
        <name>WPT.1246</name>
      </trkpt>
      <trkpt lat="32.156130000" lon="-109.453036020">
        <ele>1392.000</ele>
        <time>2018-11-21T20:50:25Z</time>
        <name>WPT.1247</name>
      </trkpt>
      <trkpt lat="32.156138490" lon="-109.453080800">
        <ele>1392.000</ele>
        <time>2018-11-21T20:50:30Z</time>
        <name>WPT.1248</name>
      </trkpt>
      <trkpt lat="32.156148160" lon="-109.453127220">
        <ele>1393.000</ele>
        <time>2018-11-21T20:50:34Z</time>
        <name>WPT.1249</name>
      </trkpt>
      <trkpt lat="32.156171680" lon="-109.453160340">
        <ele>1394.000</ele>
        <time>2018-11-21T20:50:38Z</time>
        <name>WPT.1250</name>
      </trkpt>
      <trkpt lat="32.156196980" lon="-109.453194380">
        <ele>1394.000</ele>
        <time>2018-11-21T20:50:42Z</time>
        <name>WPT.1251</name>
      </trkpt>
      <trkpt lat="32.156227770" lon="-109.453229940">
        <ele>1395.000</ele>
        <time>2018-11-21T20:50:46Z</time>
        <name>WPT.1252</name>
      </trkpt>
      <trkpt lat="32.156267430" lon="-109.453243860">
        <ele>1396.000</ele>
        <time>2018-11-21T20:50:50Z</time>
        <name>WPT.1253</name>
      </trkpt>
      <trkpt lat="32.156305770" lon="-109.453214550">
        <ele>1395.000</ele>
        <time>2018-11-21T20:50:54Z</time>
        <name>WPT.1254</name>
      </trkpt>
      <trkpt lat="32.156342720" lon="-109.453186590">
        <ele>1396.000</ele>
        <time>2018-11-21T20:50:59Z</time>
        <name>WPT.1255</name>
      </trkpt>
      <trkpt lat="32.156367100" lon="-109.453149170">
        <ele>1398.000</ele>
        <time>2018-11-21T20:51:03Z</time>
        <name>WPT.1256</name>
      </trkpt>
      <trkpt lat="32.156383120" lon="-109.453105480">
        <ele>1399.000</ele>
        <time>2018-11-21T20:51:07Z</time>
        <name>WPT.1257</name>
      </trkpt>
      <trkpt lat="32.156400500" lon="-109.453064530">
        <ele>1400.000</ele>
        <time>2018-11-21T20:51:11Z</time>
        <name>WPT.1258</name>
      </trkpt>
      <trkpt lat="32.156417850" lon="-109.453023950">
        <ele>1402.000</ele>
        <time>2018-11-21T20:51:15Z</time>
        <name>WPT.1259</name>
      </trkpt>
      <trkpt lat="32.156438710" lon="-109.452975940">
        <ele>1403.000</ele>
        <time>2018-11-21T20:51:19Z</time>
        <name>WPT.1260</name>
      </trkpt>
      <trkpt lat="32.156454660" lon="-109.452935510">
        <ele>1404.000</ele>
        <time>2018-11-21T20:51:23Z</time>
        <name>WPT.1261</name>
      </trkpt>
      <trkpt lat="32.156475730" lon="-109.452891010">
        <ele>1405.000</ele>
        <time>2018-11-21T20:51:27Z</time>
        <name>WPT.1262</name>
      </trkpt>
      <trkpt lat="32.156510570" lon="-109.452878950">
        <ele>1406.000</ele>
        <time>2018-11-21T20:51:32Z</time>
        <name>WPT.1263</name>
      </trkpt>
      <trkpt lat="32.156538880" lon="-109.452912930">
        <ele>1404.000</ele>
        <time>2018-11-21T20:51:36Z</time>
        <name>WPT.1264</name>
      </trkpt>
      <trkpt lat="32.156580040" lon="-109.452928420">
        <ele>1405.000</ele>
        <time>2018-11-21T20:51:41Z</time>
        <name>WPT.1265</name>
      </trkpt>
      <trkpt lat="32.156603670" lon="-109.452893920">
        <ele>1406.000</ele>
        <time>2018-11-21T20:51:44Z</time>
        <name>WPT.1266</name>
      </trkpt>
      <trkpt lat="32.156626730" lon="-109.452857380">
        <ele>1407.000</ele>
        <time>2018-11-21T20:51:49Z</time>
        <name>WPT.1267</name>
      </trkpt>
      <trkpt lat="32.156632620" lon="-109.452908040">
        <ele>1408.000</ele>
        <time>2018-11-21T20:52:07Z</time>
        <name>WPT.1268</name>
      </trkpt>
      <trkpt lat="32.156640500" lon="-109.452865100">
        <ele>1410.000</ele>
        <time>2018-11-21T20:52:50Z</time>
        <name>WPT.1269</name>
      </trkpt>
      <trkpt lat="32.156625890" lon="-109.452823030">
        <ele>1412.000</ele>
        <time>2018-11-21T20:53:01Z</time>
        <name>WPT.1270</name>
      </trkpt>
      <trkpt lat="32.156647500" lon="-109.452789010">
        <ele>1413.000</ele>
        <time>2018-11-21T20:53:42Z</time>
        <name>WPT.1271</name>
      </trkpt>
      <trkpt lat="32.156621370" lon="-109.452755920">
        <ele>1412.000</ele>
        <time>2018-11-21T20:53:47Z</time>
        <name>WPT.1272</name>
      </trkpt>
      <trkpt lat="32.156631220" lon="-109.452714490">
        <ele>1412.000</ele>
        <time>2018-11-21T20:54:06Z</time>
        <name>WPT.1273</name>
      </trkpt>
      <trkpt lat="32.156627260" lon="-109.452713760">
        <ele>1412.000</ele>
        <time>2018-11-21T20:54:22Z</time>
        <name>WPT.1274</name>
      </trkpt>
    </trkseg>
  </trk>
</gpx>
